<?xml version="1.0" encoding="utf-8"?>
<gpx xmlns:xsi="http://www.w3.org/2001/XMLSchema-instance" xmlns:xsd="http://www.w3.org/2001/XMLSchema" version="1.1" creator="Shapelink.com" xmlns="http://www.topografix.com/GPX/1/1" xmlns:gpxtpx="http://www.garmin.com/xmlschemas/TrackPointExtension/v1">
  <metadata>
    <name>Löpning 4.29 km, 2018-04-09</name>
    <desc></desc>
    <author><name>Bengt-Åke Forslund</name></author> 
    <time>2018-04-09T18:08:45Z</time>
  </metadata>
  <trk>
    <name>Löpning 4.29 km, 2018-04-09</name>
    <trkseg>
      <trkpt lat="62.634288969283" lon="17.964645057255">
        <ele>57.8</ele>
        <time>2018-04-09T18:08:45Z</time>
      </trkpt>
      <trkpt lat="62.6342674278" lon="17.964650589309">
        <ele>57.8</ele>
        <time>2018-04-09T18:08:46Z</time>
      </trkpt>
      <trkpt lat="62.634240689539" lon="17.964652936241">
        <ele>57.8</ele>
        <time>2018-04-09T18:08:47Z</time>
      </trkpt>
      <trkpt lat="62.634216214391" lon="17.964656540458">
        <ele>57.8</ele>
        <time>2018-04-09T18:08:48Z</time>
      </trkpt>
      <trkpt lat="62.634192242157" lon="17.964656205182">
        <ele>58</ele>
        <time>2018-04-09T18:08:49Z</time>
      </trkpt>
      <trkpt lat="62.634166174448" lon="17.964658384476">
        <ele>58.2</ele>
        <time>2018-04-09T18:08:50Z</time>
      </trkpt>
      <trkpt lat="62.634145387336" lon="17.964660731408">
        <ele>58.2</ele>
        <time>2018-04-09T18:08:51Z</time>
      </trkpt>
      <trkpt lat="62.634122588568" lon="17.964666095824">
        <ele>58.2</ele>
        <time>2018-04-09T18:08:52Z</time>
      </trkpt>
      <trkpt lat="62.634098197239" lon="17.964670873507">
        <ele>58.2</ele>
        <time>2018-04-09T18:08:53Z</time>
      </trkpt>
      <trkpt lat="62.634067687123" lon="17.964672717525">
        <ele>58.2</ele>
        <time>2018-04-09T18:08:54Z</time>
      </trkpt>
      <trkpt lat="62.634044385441" lon="17.964673639534">
        <ele>58.2</ele>
        <time>2018-04-09T18:08:55Z</time>
      </trkpt>
      <trkpt lat="62.634022592501" lon="17.964676573199">
        <ele>58.2</ele>
        <time>2018-04-09T18:08:56Z</time>
      </trkpt>
      <trkpt lat="62.633993674946" lon="17.964679590683">
        <ele>58.2</ele>
        <time>2018-04-09T18:08:57Z</time>
      </trkpt>
      <trkpt lat="62.633971462911" lon="17.964680428873">
        <ele>58.2</ele>
        <time>2018-04-09T18:08:58Z</time>
      </trkpt>
      <trkpt lat="62.633947406858" lon="17.964684200728">
        <ele>58.2</ele>
        <time>2018-04-09T18:08:59Z</time>
      </trkpt>
      <trkpt lat="62.63392544628" lon="17.964687972583">
        <ele>58.2</ele>
        <time>2018-04-09T18:09:00Z</time>
      </trkpt>
      <trkpt lat="62.633906084091" lon="17.964682272891">
        <ele>58.2</ele>
        <time>2018-04-09T18:09:01Z</time>
      </trkpt>
      <trkpt lat="62.633884710246" lon="17.964674561543">
        <ele>58.4</ele>
        <time>2018-04-09T18:09:02Z</time>
      </trkpt>
      <trkpt lat="62.633878675278" lon="17.964668191299">
        <ele>58.2</ele>
        <time>2018-04-09T18:09:03Z</time>
      </trkpt>
      <trkpt lat="62.633877334174" lon="17.964671124964">
        <ele>58.4</ele>
        <time>2018-04-09T18:09:04Z</time>
      </trkpt>
      <trkpt lat="62.633880854572" lon="17.964670538231">
        <ele>58.4</ele>
        <time>2018-04-09T18:09:05Z</time>
      </trkpt>
      <trkpt lat="62.633879262011" lon="17.964673471896">
        <ele>58.2</ele>
        <time>2018-04-09T18:09:06Z</time>
      </trkpt>
      <trkpt lat="62.633873813776" lon="17.964743293123">
        <ele>58</ele>
        <time>2018-04-09T18:09:09Z</time>
      </trkpt>
      <trkpt lat="62.633867359713" lon="17.964775311981">
        <ele>58.2</ele>
        <time>2018-04-09T18:09:10Z</time>
      </trkpt>
      <trkpt lat="62.633853697216" lon="17.964818311128">
        <ele>58</ele>
        <time>2018-04-09T18:09:11Z</time>
      </trkpt>
      <trkpt lat="62.633836765778" lon="17.964856867868">
        <ele>58.2</ele>
        <time>2018-04-09T18:09:12Z</time>
      </trkpt>
      <trkpt lat="62.633825953127" lon="17.964895843703">
        <ele>58.2</ele>
        <time>2018-04-09T18:09:13Z</time>
      </trkpt>
      <trkpt lat="62.633820085797" lon="17.964938088479">
        <ele>58.4</ele>
        <time>2018-04-09T18:09:14Z</time>
      </trkpt>
      <trkpt lat="62.63382402529" lon="17.964972957183">
        <ele>58.4</ele>
        <time>2018-04-09T18:09:15Z</time>
      </trkpt>
      <trkpt lat="62.633826875136" lon="17.965011346285">
        <ele>58.6</ele>
        <time>2018-04-09T18:09:16Z</time>
      </trkpt>
      <trkpt lat="62.633825785489" lon="17.965054429251">
        <ele>58.6</ele>
        <time>2018-04-09T18:09:17Z</time>
      </trkpt>
      <trkpt lat="62.633825198756" lon="17.96510396628">
        <ele>58.8</ele>
        <time>2018-04-09T18:09:18Z</time>
      </trkpt>
      <trkpt lat="62.633832826285" lon="17.965139589355">
        <ele>59</ele>
        <time>2018-04-09T18:09:19Z</time>
      </trkpt>
      <trkpt lat="62.633843974212" lon="17.965165908521">
        <ele>59.2</ele>
        <time>2018-04-09T18:09:20Z</time>
      </trkpt>
      <trkpt lat="62.63385252375" lon="17.965206476917">
        <ele>59.2</ele>
        <time>2018-04-09T18:09:21Z</time>
      </trkpt>
      <trkpt lat="62.633855541234" lon="17.965244949838">
        <ele>59.6</ele>
        <time>2018-04-09T18:09:22Z</time>
      </trkpt>
      <trkpt lat="62.633860654193" lon="17.965287697528">
        <ele>59.8</ele>
        <time>2018-04-09T18:09:23Z</time>
      </trkpt>
      <trkpt lat="62.633864342229" lon="17.965331283408">
        <ele>60</ele>
        <time>2018-04-09T18:09:24Z</time>
      </trkpt>
      <trkpt lat="62.633869706645" lon="17.965370594519">
        <ele>60.2</ele>
        <time>2018-04-09T18:09:25Z</time>
      </trkpt>
      <trkpt lat="62.633873562319" lon="17.965425747421">
        <ele>60.4</ele>
        <time>2018-04-09T18:09:26Z</time>
      </trkpt>
      <trkpt lat="62.633876915079" lon="17.965476877011">
        <ele>60.6</ele>
        <time>2018-04-09T18:09:27Z</time>
      </trkpt>
      <trkpt lat="62.633879262011" lon="17.965506381299">
        <ele>60.8</ele>
        <time>2018-04-09T18:09:28Z</time>
      </trkpt>
      <trkpt lat="62.633880016382" lon="17.96558508734">
        <ele>60.8</ele>
        <time>2018-04-09T18:09:29Z</time>
      </trkpt>
      <trkpt lat="62.63388102221" lon="17.965633450903">
        <ele>61</ele>
        <time>2018-04-09T18:09:30Z</time>
      </trkpt>
      <trkpt lat="62.633880686934" lon="17.965682820294">
        <ele>61.2</ele>
        <time>2018-04-09T18:09:31Z</time>
      </trkpt>
      <trkpt lat="62.633880267839" lon="17.965735458626">
        <ele>61.2</ele>
        <time>2018-04-09T18:09:32Z</time>
      </trkpt>
      <trkpt lat="62.633880770753" lon="17.965774853556">
        <ele>61.4</ele>
        <time>2018-04-09T18:09:33Z</time>
      </trkpt>
      <trkpt lat="62.63387683126" lon="17.965811147183">
        <ele>61.4</ele>
        <time>2018-04-09T18:09:34Z</time>
      </trkpt>
      <trkpt lat="62.63387180212" lon="17.965891361966">
        <ele>61.6</ele>
        <time>2018-04-09T18:09:35Z</time>
      </trkpt>
      <trkpt lat="62.633868365541" lon="17.965944838488">
        <ele>61.6</ele>
        <time>2018-04-09T18:09:36Z</time>
      </trkpt>
      <trkpt lat="62.633862330573" lon="17.966001500132">
        <ele>61.8</ele>
        <time>2018-04-09T18:09:37Z</time>
      </trkpt>
      <trkpt lat="62.633858223442" lon="17.96604860641">
        <ele>62.2</ele>
        <time>2018-04-09T18:09:38Z</time>
      </trkpt>
      <trkpt lat="62.633851937017" lon="17.966103256398">
        <ele>62.2</ele>
        <time>2018-04-09T18:09:39Z</time>
      </trkpt>
      <trkpt lat="62.633844477126" lon="17.966149021572">
        <ele>62.4</ele>
        <time>2018-04-09T18:09:40Z</time>
      </trkpt>
      <trkpt lat="62.633838777434" lon="17.966195457298">
        <ele>62.6</ele>
        <time>2018-04-09T18:09:41Z</time>
      </trkpt>
      <trkpt lat="62.633830563172" lon="17.966248682363">
        <ele>62.8</ele>
        <time>2018-04-09T18:09:42Z</time>
      </trkpt>
      <trkpt lat="62.633825534032" lon="17.966293693166">
        <ele>62.8</ele>
        <time>2018-04-09T18:09:43Z</time>
      </trkpt>
      <trkpt lat="62.633820840168" lon="17.966342978738">
        <ele>63</ele>
        <time>2018-04-09T18:09:44Z</time>
      </trkpt>
      <trkpt lat="62.63381312882" lon="17.966388995369">
        <ele>63.2</ele>
        <time>2018-04-09T18:09:45Z</time>
      </trkpt>
      <trkpt lat="62.633809524603" lon="17.966424450806">
        <ele>63.2</ele>
        <time>2018-04-09T18:09:46Z</time>
      </trkpt>
      <trkpt lat="62.63379971778" lon="17.966481363907">
        <ele>63.4</ele>
        <time>2018-04-09T18:09:47Z</time>
      </trkpt>
      <trkpt lat="62.633794018088" lon="17.966519333914">
        <ele>63.6</ele>
        <time>2018-04-09T18:09:48Z</time>
      </trkpt>
      <trkpt lat="62.633787228749" lon="17.966567362201">
        <ele>63.8</ele>
        <time>2018-04-09T18:09:49Z</time>
      </trkpt>
      <trkpt lat="62.633784546541" lon="17.96661019371">
        <ele>64</ele>
        <time>2018-04-09T18:09:50Z</time>
      </trkpt>
      <trkpt lat="62.633781361419" lon="17.966650510649">
        <ele>64.2</ele>
        <time>2018-04-09T18:09:51Z</time>
      </trkpt>
      <trkpt lat="62.633779014487" lon="17.966691330502">
        <ele>64.4</ele>
        <time>2018-04-09T18:09:52Z</time>
      </trkpt>
      <trkpt lat="62.633775242632" lon="17.966730138699">
        <ele>64.6</ele>
        <time>2018-04-09T18:09:53Z</time>
      </trkpt>
      <trkpt lat="62.633769878216" lon="17.966771545285">
        <ele>64.6</ele>
        <time>2018-04-09T18:09:54Z</time>
      </trkpt>
      <trkpt lat="62.633763424153" lon="17.966819573572">
        <ele>64.8</ele>
        <time>2018-04-09T18:09:55Z</time>
      </trkpt>
      <trkpt lat="62.633760993402" lon="17.966854442276">
        <ele>65</ele>
        <time>2018-04-09T18:09:56Z</time>
      </trkpt>
      <trkpt lat="62.633752695321" lon="17.966900123631">
        <ele>65.2</ele>
        <time>2018-04-09T18:09:57Z</time>
      </trkpt>
      <trkpt lat="62.633746576534" lon="17.966943374235">
        <ele>65.2</ele>
        <time>2018-04-09T18:09:58Z</time>
      </trkpt>
      <trkpt lat="62.633742050308" lon="17.966995090558">
        <ele>65.4</ele>
        <time>2018-04-09T18:09:59Z</time>
      </trkpt>
      <trkpt lat="62.633734171322" lon="17.967039095533">
        <ele>65.8</ele>
        <time>2018-04-09T18:10:00Z</time>
      </trkpt>
      <trkpt lat="62.633729226001" lon="17.967086956182">
        <ele>66</ele>
        <time>2018-04-09T18:10:01Z</time>
      </trkpt>
      <trkpt lat="62.633721347015" lon="17.967140935618">
        <ele>66</ele>
        <time>2018-04-09T18:10:02Z</time>
      </trkpt>
      <trkpt lat="62.633715228228" lon="17.967184856774">
        <ele>66.2</ele>
        <time>2018-04-09T18:10:03Z</time>
      </trkpt>
      <trkpt lat="62.633710366726" lon="17.967225173713">
        <ele>66.4</ele>
        <time>2018-04-09T18:10:04Z</time>
      </trkpt>
      <trkpt lat="62.633702739197" lon="17.967281835357">
        <ele>66.4</ele>
        <time>2018-04-09T18:10:05Z</time>
      </trkpt>
      <trkpt lat="62.633698967342" lon="17.967315782052">
        <ele>66.4</ele>
        <time>2018-04-09T18:10:06Z</time>
      </trkpt>
      <trkpt lat="62.633690836899" lon="17.967374706809">
        <ele>66.6</ele>
        <time>2018-04-09T18:10:07Z</time>
      </trkpt>
      <trkpt lat="62.633686143035" lon="17.967416448671">
        <ele>67</ele>
        <time>2018-04-09T18:10:08Z</time>
      </trkpt>
      <trkpt lat="62.633678850782" lon="17.967464896053">
        <ele>67</ele>
        <time>2018-04-09T18:10:09Z</time>
      </trkpt>
      <trkpt lat="62.633669714511" lon="17.967508230476">
        <ele>67.2</ele>
        <time>2018-04-09T18:10:10Z</time>
      </trkpt>
      <trkpt lat="62.633665104466" lon="17.967550475252">
        <ele>67.4</ele>
        <time>2018-04-09T18:10:11Z</time>
      </trkpt>
      <trkpt lat="62.633656722566" lon="17.967601688661">
        <ele>67.6</ele>
        <time>2018-04-09T18:10:12Z</time>
      </trkpt>
      <trkpt lat="62.633648592123" lon="17.967642676152">
        <ele>67.8</ele>
        <time>2018-04-09T18:10:13Z</time>
      </trkpt>
      <trkpt lat="62.633641383689" lon="17.967691877905">
        <ele>68</ele>
        <time>2018-04-09T18:10:14Z</time>
      </trkpt>
      <trkpt lat="62.63363627073" lon="17.967741917848">
        <ele>68.2</ele>
        <time>2018-04-09T18:10:15Z</time>
      </trkpt>
      <trkpt lat="62.633634259074" lon="17.967773433792">
        <ele>68.4</ele>
        <time>2018-04-09T18:10:16Z</time>
      </trkpt>
      <trkpt lat="62.633625541898" lon="17.967827497047">
        <ele>68.6</ele>
        <time>2018-04-09T18:10:17Z</time>
      </trkpt>
      <trkpt lat="62.633622440595" lon="17.967865634692">
        <ele>68.6</ele>
        <time>2018-04-09T18:10:18Z</time>
      </trkpt>
      <trkpt lat="62.633614393971" lon="17.967912489513">
        <ele>68.8</ele>
        <time>2018-04-09T18:10:19Z</time>
      </trkpt>
      <trkpt lat="62.633606598804" lon="17.967950543339">
        <ele>69</ele>
        <time>2018-04-09T18:10:20Z</time>
      </trkpt>
      <trkpt lat="62.633597881628" lon="17.968017347082">
        <ele>69.2</ele>
        <time>2018-04-09T18:10:21Z</time>
      </trkpt>
      <trkpt lat="62.633588158624" lon="17.96806696793">
        <ele>69.2</ele>
        <time>2018-04-09T18:10:22Z</time>
      </trkpt>
      <trkpt lat="62.633581956018" lon="17.96810803924">
        <ele>69.4</ele>
        <time>2018-04-09T18:10:23Z</time>
      </trkpt>
      <trkpt lat="62.633573322661" lon="17.968158582097">
        <ele>69.6</ele>
        <time>2018-04-09T18:10:24Z</time>
      </trkpt>
      <trkpt lat="62.633570221358" lon="17.968205185461">
        <ele>69.6</ele>
        <time>2018-04-09T18:10:25Z</time>
      </trkpt>
      <trkpt lat="62.633564437847" lon="17.968256734146">
        <ele>69.8</ele>
        <time>2018-04-09T18:10:26Z</time>
      </trkpt>
      <trkpt lat="62.633558235241" lon="17.968309456297">
        <ele>70</ele>
        <time>2018-04-09T18:10:27Z</time>
      </trkpt>
      <trkpt lat="62.633553541377" lon="17.968351030521">
        <ele>70.2</ele>
        <time>2018-04-09T18:10:28Z</time>
      </trkpt>
      <trkpt lat="62.633544991839" lon="17.968399226446">
        <ele>70.2</ele>
        <time>2018-04-09T18:10:29Z</time>
      </trkpt>
      <trkpt lat="62.633541722898" lon="17.968439208109">
        <ele>70.6</ele>
        <time>2018-04-09T18:10:30Z</time>
      </trkpt>
      <trkpt lat="62.633534933559" lon="17.968489080414">
        <ele>70.6</ele>
        <time>2018-04-09T18:10:31Z</time>
      </trkpt>
      <trkpt lat="62.633526300202" lon="17.968538282167">
        <ele>70.8</ele>
        <time>2018-04-09T18:10:32Z</time>
      </trkpt>
      <trkpt lat="62.633521773976" lon="17.96858748392">
        <ele>71</ele>
        <time>2018-04-09T18:10:33Z</time>
      </trkpt>
      <trkpt lat="62.63351557137" lon="17.968639535519">
        <ele>71.2</ele>
        <time>2018-04-09T18:10:34Z</time>
      </trkpt>
      <trkpt lat="62.633513224438" lon="17.96868639034">
        <ele>71.2</ele>
        <time>2018-04-09T18:10:35Z</time>
      </trkpt>
      <trkpt lat="62.633505848366" lon="17.968734586265">
        <ele>71.4</ele>
        <time>2018-04-09T18:10:36Z</time>
      </trkpt>
      <trkpt lat="62.633498723751" lon="17.96878278219">
        <ele>71.6</ele>
        <time>2018-04-09T18:10:37Z</time>
      </trkpt>
      <trkpt lat="62.633494029887" lon="17.968827290079">
        <ele>72</ele>
        <time>2018-04-09T18:10:38Z</time>
      </trkpt>
      <trkpt lat="62.633489084566" lon="17.968882107705">
        <ele>72</ele>
        <time>2018-04-09T18:10:39Z</time>
      </trkpt>
      <trkpt lat="62.633485564168" lon="17.968920915902">
        <ele>72</ele>
        <time>2018-04-09T18:10:40Z</time>
      </trkpt>
      <trkpt lat="62.633479361562" lon="17.968974643881">
        <ele>72.2</ele>
        <time>2018-04-09T18:10:41Z</time>
      </trkpt>
      <trkpt lat="62.633473242775" lon="17.969025605833">
        <ele>72.6</ele>
        <time>2018-04-09T18:10:42Z</time>
      </trkpt>
      <trkpt lat="62.633468213635" lon="17.969072628292">
        <ele>72.6</ele>
        <time>2018-04-09T18:10:43Z</time>
      </trkpt>
      <trkpt lat="62.6334627654" lon="17.969129709031">
        <ele>72.8</ele>
        <time>2018-04-09T18:10:44Z</time>
      </trkpt>
      <trkpt lat="62.633459915554" lon="17.969168852504">
        <ele>72.8</ele>
        <time>2018-04-09T18:10:45Z</time>
      </trkpt>
      <trkpt lat="62.633455976061" lon="17.96921528823">
        <ele>73</ele>
        <time>2018-04-09T18:10:46Z</time>
      </trkpt>
      <trkpt lat="62.633450108731" lon="17.969261221042">
        <ele>73.2</ele>
        <time>2018-04-09T18:10:47Z</time>
      </trkpt>
      <trkpt lat="62.633447342704" lon="17.969312350632">
        <ele>73.4</ele>
        <time>2018-04-09T18:10:48Z</time>
      </trkpt>
      <trkpt lat="62.633444995772" lon="17.969365827154">
        <ele>73.6</ele>
        <time>2018-04-09T18:10:49Z</time>
      </trkpt>
      <trkpt lat="62.633445582505" lon="17.969416370011">
        <ele>73.8</ele>
        <time>2018-04-09T18:10:50Z</time>
      </trkpt>
      <trkpt lat="62.633442313564" lon="17.969469008343">
        <ele>74</ele>
        <time>2018-04-09T18:10:51Z</time>
      </trkpt>
      <trkpt lat="62.633439631356" lon="17.969511001662">
        <ele>74</ele>
        <time>2018-04-09T18:10:52Z</time>
      </trkpt>
      <trkpt lat="62.633437368243" lon="17.96957319536">
        <ele>74</ele>
        <time>2018-04-09T18:10:53Z</time>
      </trkpt>
      <trkpt lat="62.633432842017" lon="17.969618960534">
        <ele>74.2</ele>
        <time>2018-04-09T18:10:54Z</time>
      </trkpt>
      <trkpt lat="62.633436697691" lon="17.969669671029">
        <ele>74.6</ele>
        <time>2018-04-09T18:10:55Z</time>
      </trkpt>
      <trkpt lat="62.633438625528" lon="17.969723734284">
        <ele>74.6</ele>
        <time>2018-04-09T18:10:56Z</time>
      </trkpt>
      <trkpt lat="62.633436446234" lon="17.969773438951">
        <ele>74.8</ele>
        <time>2018-04-09T18:10:57Z</time>
      </trkpt>
      <trkpt lat="62.633435272768" lon="17.969826161102">
        <ele>74.8</ele>
        <time>2018-04-09T18:10:58Z</time>
      </trkpt>
      <trkpt lat="62.633437535881" lon="17.969883241841">
        <ele>75.2</ele>
        <time>2018-04-09T18:10:59Z</time>
      </trkpt>
      <trkpt lat="62.633437452062" lon="17.969933365603">
        <ele>75</ele>
        <time>2018-04-09T18:11:00Z</time>
      </trkpt>
      <trkpt lat="62.633440050451" lon="17.969986842125">
        <ele>75</ele>
        <time>2018-04-09T18:11:01Z</time>
      </trkpt>
      <trkpt lat="62.633443403211" lon="17.970039061362">
        <ele>75.2</ele>
        <time>2018-04-09T18:11:02Z</time>
      </trkpt>
      <trkpt lat="62.633443822306" lon="17.970088933667">
        <ele>75.4</ele>
        <time>2018-04-09T18:11:03Z</time>
      </trkpt>
      <trkpt lat="62.633445750143" lon="17.97013310628">
        <ele>75.4</ele>
        <time>2018-04-09T18:11:04Z</time>
      </trkpt>
      <trkpt lat="62.633446588333" lon="17.970182140395">
        <ele>75.6</ele>
        <time>2018-04-09T18:11:05Z</time>
      </trkpt>
      <trkpt lat="62.633447175066" lon="17.97023285089">
        <ele>75.6</ele>
        <time>2018-04-09T18:11:06Z</time>
      </trkpt>
      <trkpt lat="62.633448013256" lon="17.970284567213">
        <ele>75.8</ele>
        <time>2018-04-09T18:11:07Z</time>
      </trkpt>
      <trkpt lat="62.633446672152" lon="17.970335864441">
        <ele>75.8</ele>
        <time>2018-04-09T18:11:08Z</time>
      </trkpt>
      <trkpt lat="62.633448013256" lon="17.970393112818">
        <ele>76</ele>
        <time>2018-04-09T18:11:09Z</time>
      </trkpt>
      <trkpt lat="62.63345103074" lon="17.970432423929">
        <ele>76</ele>
        <time>2018-04-09T18:11:10Z</time>
      </trkpt>
      <trkpt lat="62.633455137871" lon="17.970476847999">
        <ele>76.2</ele>
        <time>2018-04-09T18:11:11Z</time>
      </trkpt>
      <trkpt lat="62.633459747916" lon="17.970532587634">
        <ele>76.2</ele>
        <time>2018-04-09T18:11:12Z</time>
      </trkpt>
      <trkpt lat="62.633467040169" lon="17.970588159631">
        <ele>76.4</ele>
        <time>2018-04-09T18:11:13Z</time>
      </trkpt>
      <trkpt lat="62.633471063481" lon="17.970641384696">
        <ele>76.6</ele>
        <time>2018-04-09T18:11:14Z</time>
      </trkpt>
      <trkpt lat="62.633473075137" lon="17.970689496802">
        <ele>76.6</ele>
        <time>2018-04-09T18:11:15Z</time>
      </trkpt>
      <trkpt lat="62.633472488404" lon="17.970731071026">
        <ele>76.6</ele>
        <time>2018-04-09T18:11:16Z</time>
      </trkpt>
      <trkpt lat="62.633473578051" lon="17.970801478986">
        <ele>76.8</ele>
        <time>2018-04-09T18:11:17Z</time>
      </trkpt>
      <trkpt lat="62.633475757345" lon="17.970849423454">
        <ele>77</ele>
        <time>2018-04-09T18:11:18Z</time>
      </trkpt>
      <trkpt lat="62.63347869101" lon="17.970909856953">
        <ele>77</ele>
        <time>2018-04-09T18:11:19Z</time>
      </trkpt>
      <trkpt lat="62.633481457037" lon="17.970959729258">
        <ele>77</ele>
        <time>2018-04-09T18:11:20Z</time>
      </trkpt>
      <trkpt lat="62.633484893616" lon="17.971007841364">
        <ele>77.2</ele>
        <time>2018-04-09T18:11:21Z</time>
      </trkpt>
      <trkpt lat="62.633485312711" lon="17.971059892963">
        <ele>77.4</ele>
        <time>2018-04-09T18:11:22Z</time>
      </trkpt>
      <trkpt lat="62.633485564168" lon="17.971109262354">
        <ele>77.4</ele>
        <time>2018-04-09T18:11:23Z</time>
      </trkpt>
      <trkpt lat="62.633485731806" lon="17.971173048613">
        <ele>77.4</ele>
        <time>2018-04-09T18:11:24Z</time>
      </trkpt>
      <trkpt lat="62.633484306883" lon="17.971220741624">
        <ele>77.6</ele>
        <time>2018-04-09T18:11:25Z</time>
      </trkpt>
      <trkpt lat="62.633483384874" lon="17.971274050508">
        <ele>77.6</ele>
        <time>2018-04-09T18:11:26Z</time>
      </trkpt>
      <trkpt lat="62.633484306883" lon="17.971334148731">
        <ele>77.6</ele>
        <time>2018-04-09T18:11:27Z</time>
      </trkpt>
      <trkpt lat="62.63348204377" lon="17.971385278321">
        <ele>77.8</ele>
        <time>2018-04-09T18:11:28Z</time>
      </trkpt>
      <trkpt lat="62.633480451209" lon="17.971445628001">
        <ele>77.8</ele>
        <time>2018-04-09T18:11:29Z</time>
      </trkpt>
      <trkpt lat="62.633479361562" lon="17.971486615492">
        <ele>78</ele>
        <time>2018-04-09T18:11:30Z</time>
      </trkpt>
      <trkpt lat="62.633477936639" lon="17.971542019851">
        <ele>78</ele>
        <time>2018-04-09T18:11:31Z</time>
      </trkpt>
      <trkpt lat="62.633474667698" lon="17.971598094762">
        <ele>78</ele>
        <time>2018-04-09T18:11:32Z</time>
      </trkpt>
      <trkpt lat="62.633471817852" lon="17.971644614307">
        <ele>78.2</ele>
        <time>2018-04-09T18:11:33Z</time>
      </trkpt>
      <trkpt lat="62.633466872531" lon="17.971698761381">
        <ele>78.4</ele>
        <time>2018-04-09T18:11:34Z</time>
      </trkpt>
      <trkpt lat="62.633463184495" lon="17.971751399713">
        <ele>78.2</ele>
        <time>2018-04-09T18:11:35Z</time>
      </trkpt>
      <trkpt lat="62.633458742088" lon="17.971799595638">
        <ele>78.4</ele>
        <time>2018-04-09T18:11:36Z</time>
      </trkpt>
      <trkpt lat="62.633452623301" lon="17.971859442404">
        <ele>78.4</ele>
        <time>2018-04-09T18:11:37Z</time>
      </trkpt>
      <trkpt lat="62.633448264713" lon="17.971904872302">
        <ele>78.6</ele>
        <time>2018-04-09T18:11:38Z</time>
      </trkpt>
      <trkpt lat="62.633442062107" lon="17.971967233638">
        <ele>78.6</ele>
        <time>2018-04-09T18:11:39Z</time>
      </trkpt>
      <trkpt lat="62.633436613872" lon="17.972016183934">
        <ele>78.6</ele>
        <time>2018-04-09T18:11:40Z</time>
      </trkpt>
      <trkpt lat="62.633430578904" lon="17.972066391515">
        <ele>78.8</ele>
        <time>2018-04-09T18:11:41Z</time>
      </trkpt>
      <trkpt lat="62.633420604443" lon="17.972127830842">
        <ele>79</ele>
        <time>2018-04-09T18:11:42Z</time>
      </trkpt>
      <trkpt lat="62.633416497312" lon="17.972177703147">
        <ele>78.8</ele>
        <time>2018-04-09T18:11:43Z</time>
      </trkpt>
      <trkpt lat="62.633408785964" lon="17.972232688411">
        <ele>79</ele>
        <time>2018-04-09T18:11:44Z</time>
      </trkpt>
      <trkpt lat="62.633401828987" lon="17.972284237096">
        <ele>79.2</ele>
        <time>2018-04-09T18:11:45Z</time>
      </trkpt>
      <trkpt lat="62.633395877838" lon="17.972330086089">
        <ele>79.2</ele>
        <time>2018-04-09T18:11:46Z</time>
      </trkpt>
      <trkpt lat="62.633387831214" lon="17.972388507932">
        <ele>79.2</ele>
        <time>2018-04-09T18:11:47Z</time>
      </trkpt>
      <trkpt lat="62.633380538961" lon="17.972439134608">
        <ele>79.4</ele>
        <time>2018-04-09T18:11:48Z</time>
      </trkpt>
      <trkpt lat="62.633372157061" lon="17.972488671637">
        <ele>79.6</ele>
        <time>2018-04-09T18:11:49Z</time>
      </trkpt>
      <trkpt lat="62.633365283903" lon="17.972528401843">
        <ele>79.4</ele>
        <time>2018-04-09T18:11:50Z</time>
      </trkpt>
      <trkpt lat="62.633356985822" lon="17.972570981895">
        <ele>79.4</ele>
        <time>2018-04-09T18:11:51Z</time>
      </trkpt>
      <trkpt lat="62.633345502619" lon="17.97262588334">
        <ele>79.6</ele>
        <time>2018-04-09T18:11:52Z</time>
      </trkpt>
      <trkpt lat="62.633338378004" lon="17.972671732333">
        <ele>79.8</ele>
        <time>2018-04-09T18:11:53Z</time>
      </trkpt>
      <trkpt lat="62.63333033138" lon="17.972718670973">
        <ele>79.6</ele>
        <time>2018-04-09T18:11:54Z</time>
      </trkpt>
      <trkpt lat="62.633318261444" lon="17.97276586107">
        <ele>79.8</ele>
        <time>2018-04-09T18:11:55Z</time>
      </trkpt>
      <trkpt lat="62.63330937663" lon="17.972820008144">
        <ele>80</ele>
        <time>2018-04-09T18:11:56Z</time>
      </trkpt>
      <trkpt lat="62.633296300866" lon="17.972872897933">
        <ele>80</ele>
        <time>2018-04-09T18:11:57Z</time>
      </trkpt>
      <trkpt lat="62.633285823491" lon="17.972910700302">
        <ele>80</ele>
        <time>2018-04-09T18:11:58Z</time>
      </trkpt>
      <trkpt lat="62.633277609229" lon="17.972969038326">
        <ele>80.2</ele>
        <time>2018-04-09T18:11:59Z</time>
      </trkpt>
      <trkpt lat="62.633263611456" lon="17.973021676658">
        <ele>80.4</ele>
        <time>2018-04-09T18:12:00Z</time>
      </trkpt>
      <trkpt lat="62.633256989755" lon="17.97306090395">
        <ele>80.4</ele>
        <time>2018-04-09T18:12:01Z</time>
      </trkpt>
      <trkpt lat="62.633244416905" lon="17.973113626101">
        <ele>80.4</ele>
        <time>2018-04-09T18:12:02Z</time>
      </trkpt>
      <trkpt lat="62.633236286462" lon="17.973160397103">
        <ele>80.6</ele>
        <time>2018-04-09T18:12:03Z</time>
      </trkpt>
      <trkpt lat="62.633223797431" lon="17.973205659363">
        <ele>80.6</ele>
        <time>2018-04-09T18:12:04Z</time>
      </trkpt>
      <trkpt lat="62.633211978952" lon="17.973252765641">
        <ele>80.6</ele>
        <time>2018-04-09T18:12:05Z</time>
      </trkpt>
      <trkpt lat="62.633202591224" lon="17.973301380661">
        <ele>80.8</ele>
        <time>2018-04-09T18:12:06Z</time>
      </trkpt>
      <trkpt lat="62.633190018374" lon="17.973359970142">
        <ele>80.8</ele>
        <time>2018-04-09T18:12:07Z</time>
      </trkpt>
      <trkpt lat="62.633179708637" lon="17.97340456185">
        <ele>80.8</ele>
        <time>2018-04-09T18:12:08Z</time>
      </trkpt>
      <trkpt lat="62.633173925126" lon="17.973454685612">
        <ele>80.8</ele>
        <time>2018-04-09T18:12:09Z</time>
      </trkpt>
      <trkpt lat="62.633162525742" lon="17.973499109682">
        <ele>80.8</ele>
        <time>2018-04-09T18:12:10Z</time>
      </trkpt>
      <trkpt lat="62.633152970376" lon="17.973538336974">
        <ele>81</ele>
        <time>2018-04-09T18:12:11Z</time>
      </trkpt>
      <trkpt lat="62.633137463861" lon="17.97360237469">
        <ele>80.8</ele>
        <time>2018-04-09T18:12:12Z</time>
      </trkpt>
      <trkpt lat="62.633125393925" lon="17.97365601885">
        <ele>80.8</ele>
        <time>2018-04-09T18:12:13Z</time>
      </trkpt>
      <trkpt lat="62.633113826903" lon="17.973706645526">
        <ele>81</ele>
        <time>2018-04-09T18:12:14Z</time>
      </trkpt>
      <trkpt lat="62.633094883809" lon="17.973744699352">
        <ele>81.2</ele>
        <time>2018-04-09T18:12:15Z</time>
      </trkpt>
      <trkpt lat="62.63307971257" lon="17.973767749577">
        <ele>81.2</ele>
        <time>2018-04-09T18:12:16Z</time>
      </trkpt>
      <trkpt lat="62.63306462515" lon="17.973823573031">
        <ele>81.4</ele>
        <time>2018-04-09T18:12:17Z</time>
      </trkpt>
      <trkpt lat="62.63305289049" lon="17.973877971562">
        <ele>81.6</ele>
        <time>2018-04-09T18:12:18Z</time>
      </trkpt>
      <trkpt lat="62.633043754219" lon="17.973932956826">
        <ele>81.8</ele>
        <time>2018-04-09T18:12:19Z</time>
      </trkpt>
      <trkpt lat="62.633030846093" lon="17.973992719773">
        <ele>81.8</ele>
        <time>2018-04-09T18:12:20Z</time>
      </trkpt>
      <trkpt lat="62.633021709822" lon="17.974031947065">
        <ele>81.8</ele>
        <time>2018-04-09T18:12:21Z</time>
      </trkpt>
      <trkpt lat="62.633006873859" lon="17.974090285089">
        <ele>82</ele>
        <time>2018-04-09T18:12:22Z</time>
      </trkpt>
      <trkpt lat="62.63299505538" lon="17.974147952561">
        <ele>82.2</ele>
        <time>2018-04-09T18:12:23Z</time>
      </trkpt>
      <trkpt lat="62.632984326548" lon="17.974196735219">
        <ele>82</ele>
        <time>2018-04-09T18:12:24Z</time>
      </trkpt>
      <trkpt lat="62.632970664051" lon="17.974248535361">
        <ele>82.2</ele>
        <time>2018-04-09T18:12:25Z</time>
      </trkpt>
      <trkpt lat="62.632961946875" lon="17.974296982743">
        <ele>82.2</ele>
        <time>2018-04-09T18:12:26Z</time>
      </trkpt>
      <trkpt lat="62.632950212215" lon="17.974356326595">
        <ele>82.4</ele>
        <time>2018-04-09T18:12:27Z</time>
      </trkpt>
      <trkpt lat="62.632934957157" lon="17.974410725126">
        <ele>82.2</ele>
        <time>2018-04-09T18:12:28Z</time>
      </trkpt>
      <trkpt lat="62.632915092054" lon="17.974451712617">
        <ele>82.4</ele>
        <time>2018-04-09T18:12:29Z</time>
      </trkpt>
      <trkpt lat="62.632893802028" lon="17.974493622117">
        <ele>82.4</ele>
        <time>2018-04-09T18:12:30Z</time>
      </trkpt>
      <trkpt lat="62.6328760324" lon="17.974534274332">
        <ele>82.6</ele>
        <time>2018-04-09T18:12:31Z</time>
      </trkpt>
      <trkpt lat="62.632857340763" lon="17.974581045334">
        <ele>82.4</ele>
        <time>2018-04-09T18:12:32Z</time>
      </trkpt>
      <trkpt lat="62.632838481488" lon="17.974619685893">
        <ele>82.6</ele>
        <time>2018-04-09T18:12:33Z</time>
      </trkpt>
      <trkpt lat="62.632824399896" lon="17.97466184685">
        <ele>82.6</ele>
        <time>2018-04-09T18:12:34Z</time>
      </trkpt>
      <trkpt lat="62.632809563933" lon="17.974724962557">
        <ele>82.6</ele>
        <time>2018-04-09T18:12:35Z</time>
      </trkpt>
      <trkpt lat="62.63279891892" lon="17.974769554265">
        <ele>82.4</ele>
        <time>2018-04-09T18:12:36Z</time>
      </trkpt>
      <trkpt lat="62.632784502052" lon="17.9748252939">
        <ele>82.6</ele>
        <time>2018-04-09T18:12:37Z</time>
      </trkpt>
      <trkpt lat="62.632770252822" lon="17.974879692431">
        <ele>82.6</ele>
        <time>2018-04-09T18:12:38Z</time>
      </trkpt>
      <trkpt lat="62.632759440171" lon="17.974927720718">
        <ele>82.6</ele>
        <time>2018-04-09T18:12:39Z</time>
      </trkpt>
      <trkpt lat="62.632748376063" lon="17.974977928299">
        <ele>82.6</ele>
        <time>2018-04-09T18:12:40Z</time>
      </trkpt>
      <trkpt lat="62.632735887032" lon="17.975023190559">
        <ele>82.8</ele>
        <time>2018-04-09T18:12:41Z</time>
      </trkpt>
      <trkpt lat="62.632727253675" lon="17.975079516927">
        <ele>82.8</ele>
        <time>2018-04-09T18:12:42Z</time>
      </trkpt>
      <trkpt lat="62.632711663341" lon="17.975128048128">
        <ele>82.8</ele>
        <time>2018-04-09T18:12:43Z</time>
      </trkpt>
      <trkpt lat="62.632698419939" lon="17.975170711999">
        <ele>82.8</ele>
        <time>2018-04-09T18:12:44Z</time>
      </trkpt>
      <trkpt lat="62.632682745786" lon="17.975225026711">
        <ele>83</ele>
        <time>2018-04-09T18:12:45Z</time>
      </trkpt>
      <trkpt lat="62.632672687506" lon="17.975270121333">
        <ele>83</ele>
        <time>2018-04-09T18:12:46Z</time>
      </trkpt>
      <trkpt lat="62.632660701389" lon="17.975324938959">
        <ele>83</ele>
        <time>2018-04-09T18:12:47Z</time>
      </trkpt>
      <trkpt lat="62.632646787435" lon="17.97538017568">
        <ele>83</ele>
        <time>2018-04-09T18:12:48Z</time>
      </trkpt>
      <trkpt lat="62.63263547187" lon="17.975427030501">
        <ele>83.2</ele>
        <time>2018-04-09T18:12:49Z</time>
      </trkpt>
      <trkpt lat="62.632625581228" lon="17.975482937774">
        <ele>83</ele>
        <time>2018-04-09T18:12:50Z</time>
      </trkpt>
      <trkpt lat="62.632615858224" lon="17.975532810079">
        <ele>83</ele>
        <time>2018-04-09T18:12:51Z</time>
      </trkpt>
      <trkpt lat="62.632607141048" lon="17.975584526402">
        <ele>83.2</ele>
        <time>2018-04-09T18:12:52Z</time>
      </trkpt>
      <trkpt lat="62.632605129392" lon="17.97565677838">
        <ele>83.4</ele>
        <time>2018-04-09T18:12:53Z</time>
      </trkpt>
      <trkpt lat="62.632598842967" lon="17.975713356205">
        <ele>83.2</ele>
        <time>2018-04-09T18:12:54Z</time>
      </trkpt>
      <trkpt lat="62.632584258461" lon="17.975770520763">
        <ele>83.2</ele>
        <time>2018-04-09T18:12:55Z</time>
      </trkpt>
      <trkpt lat="62.632573613448" lon="17.975815783023">
        <ele>83.2</ele>
        <time>2018-04-09T18:12:56Z</time>
      </trkpt>
      <trkpt lat="62.632559531856" lon="17.97587051683">
        <ele>83.2</ele>
        <time>2018-04-09T18:12:57Z</time>
      </trkpt>
      <trkpt lat="62.632542684237" lon="17.975919550945">
        <ele>83.2</ele>
        <time>2018-04-09T18:12:58Z</time>
      </trkpt>
      <trkpt lat="62.632531368672" lon="17.975966741042">
        <ele>83.2</ele>
        <time>2018-04-09T18:12:59Z</time>
      </trkpt>
      <trkpt lat="62.632517454718" lon="17.976017032442">
        <ele>83.2</ele>
        <time>2018-04-09T18:13:00Z</time>
      </trkpt>
      <trkpt lat="62.632507144981" lon="17.976066737109">
        <ele>83.4</ele>
        <time>2018-04-09T18:13:01Z</time>
      </trkpt>
      <trkpt lat="62.632499098357" lon="17.976126248599">
        <ele>83.2</ele>
        <time>2018-04-09T18:13:02Z</time>
      </trkpt>
      <trkpt lat="62.632485603498" lon="17.976178719293">
        <ele>83.4</ele>
        <time>2018-04-09T18:13:03Z</time>
      </trkpt>
      <trkpt lat="62.632476048132" lon="17.976219455327">
        <ele>83.4</ele>
        <time>2018-04-09T18:13:04Z</time>
      </trkpt>
      <trkpt lat="62.632460793074" lon="17.976276452247">
        <ele>83.6</ele>
        <time>2018-04-09T18:13:05Z</time>
      </trkpt>
      <trkpt lat="62.632449226052" lon="17.976324145258">
        <ele>83.4</ele>
        <time>2018-04-09T18:13:06Z</time>
      </trkpt>
      <trkpt lat="62.632437910487" lon="17.976379717255">
        <ele>83.6</ele>
        <time>2018-04-09T18:13:07Z</time>
      </trkpt>
      <trkpt lat="62.632422906886" lon="17.97643378051">
        <ele>83.6</ele>
        <time>2018-04-09T18:13:08Z</time>
      </trkpt>
      <trkpt lat="62.632414776443" lon="17.976482563168">
        <ele>83.8</ele>
        <time>2018-04-09T18:13:09Z</time>
      </trkpt>
      <trkpt lat="62.632403712335" lon="17.976523383021">
        <ele>83.6</ele>
        <time>2018-04-09T18:13:10Z</time>
      </trkpt>
      <trkpt lat="62.632391390942" lon="17.976577530095">
        <ele>83.8</ele>
        <time>2018-04-09T18:13:11Z</time>
      </trkpt>
      <trkpt lat="62.63237982392" lon="17.976631090436">
        <ele>83.8</ele>
        <time>2018-04-09T18:13:12Z</time>
      </trkpt>
      <trkpt lat="62.632365909966" lon="17.976681130379">
        <ele>84</ele>
        <time>2018-04-09T18:13:13Z</time>
      </trkpt>
      <trkpt lat="62.632356941333" lon="17.976729326304">
        <ele>83.8</ele>
        <time>2018-04-09T18:13:14Z</time>
      </trkpt>
      <trkpt lat="62.632343530293" lon="17.976780120618">
        <ele>84</ele>
        <time>2018-04-09T18:13:15Z</time>
      </trkpt>
      <trkpt lat="62.632334058746" lon="17.976820102281">
        <ele>84.2</ele>
        <time>2018-04-09T18:13:16Z</time>
      </trkpt>
      <trkpt lat="62.632317043489" lon="17.976878691762">
        <ele>84.2</ele>
        <time>2018-04-09T18:13:17Z</time>
      </trkpt>
      <trkpt lat="62.632302207526" lon="17.976928815524">
        <ele>84</ele>
        <time>2018-04-09T18:13:18Z</time>
      </trkpt>
      <trkpt lat="62.632288880305" lon="17.976968210454">
        <ele>84.2</ele>
        <time>2018-04-09T18:13:19Z</time>
      </trkpt>
      <trkpt lat="62.632274379618" lon="17.977018501854">
        <ele>84.4</ele>
        <time>2018-04-09T18:13:20Z</time>
      </trkpt>
      <trkpt lat="62.63226080094" lon="17.977063177381">
        <ele>84.2</ele>
        <time>2018-04-09T18:13:21Z</time>
      </trkpt>
      <trkpt lat="62.63224990447" lon="17.97711271441">
        <ele>84.2</ele>
        <time>2018-04-09T18:13:22Z</time>
      </trkpt>
      <trkpt lat="62.63223481705" lon="17.977165939475">
        <ele>84.2</ele>
        <time>2018-04-09T18:13:23Z</time>
      </trkpt>
      <trkpt lat="62.632224423494" lon="17.977207010785">
        <ele>84.4</ele>
        <time>2018-04-09T18:13:24Z</time>
      </trkpt>
      <trkpt lat="62.632219394354" lon="17.977263420972">
        <ele>84.2</ele>
        <time>2018-04-09T18:13:25Z</time>
      </trkpt>
      <trkpt lat="62.632212605015" lon="17.97731555639">
        <ele>84.2</ele>
        <time>2018-04-09T18:13:26Z</time>
      </trkpt>
      <trkpt lat="62.632203217287" lon="17.977372972405">
        <ele>84.4</ele>
        <time>2018-04-09T18:13:27Z</time>
      </trkpt>
      <trkpt lat="62.632198020509" lon="17.977395771173">
        <ele>84.4</ele>
        <time>2018-04-09T18:13:28Z</time>
      </trkpt>
      <trkpt lat="62.632179999424" lon="17.977475063947">
        <ele>84.6</ele>
        <time>2018-04-09T18:13:29Z</time>
      </trkpt>
      <trkpt lat="62.63216860004" lon="17.977524349519">
        <ele>84.6</ele>
        <time>2018-04-09T18:13:30Z</time>
      </trkpt>
      <trkpt lat="62.63215686538" lon="17.977572210168">
        <ele>84.8</ele>
        <time>2018-04-09T18:13:31Z</time>
      </trkpt>
      <trkpt lat="62.632146052729" lon="17.977621160464">
        <ele>85</ele>
        <time>2018-04-09T18:13:32Z</time>
      </trkpt>
      <trkpt lat="62.632132893146" lon="17.97767346352">
        <ele>85</ele>
        <time>2018-04-09T18:13:33Z</time>
      </trkpt>
      <trkpt lat="62.632123756875" lon="17.977718390504">
        <ele>85</ele>
        <time>2018-04-09T18:13:34Z</time>
      </trkpt>
      <trkpt lat="62.632110010559" lon="17.977771196474">
        <ele>85.2</ele>
        <time>2018-04-09T18:13:35Z</time>
      </trkpt>
      <trkpt lat="62.632098108261" lon="17.977819392399">
        <ele>85.4</ele>
        <time>2018-04-09T18:13:36Z</time>
      </trkpt>
      <trkpt lat="62.632087127972" lon="17.97786876179">
        <ele>85.2</ele>
        <time>2018-04-09T18:13:37Z</time>
      </trkpt>
      <trkpt lat="62.63207388457" lon="17.977922238312">
        <ele>85.2</ele>
        <time>2018-04-09T18:13:38Z</time>
      </trkpt>
      <trkpt lat="62.632062652824" lon="17.977967332934">
        <ele>85.4</ele>
        <time>2018-04-09T18:13:39Z</time>
      </trkpt>
      <trkpt lat="62.632052426906" lon="17.978019719809">
        <ele>85.4</ele>
        <time>2018-04-09T18:13:40Z</time>
      </trkpt>
      <trkpt lat="62.632039854056" lon="17.97806825101">
        <ele>85.2</ele>
        <time>2018-04-09T18:13:41Z</time>
      </trkpt>
      <trkpt lat="62.632029628138" lon="17.978120470247">
        <ele>85.2</ele>
        <time>2018-04-09T18:13:42Z</time>
      </trkpt>
      <trkpt lat="62.632014875994" lon="17.978177467167">
        <ele>85.4</ele>
        <time>2018-04-09T18:13:43Z</time>
      </trkpt>
      <trkpt lat="62.632006074999" lon="17.978222729427">
        <ele>85.4</ele>
        <time>2018-04-09T18:13:44Z</time>
      </trkpt>
      <trkpt lat="62.631993250692" lon="17.978272601732">
        <ele>85.4</ele>
        <time>2018-04-09T18:13:45Z</time>
      </trkpt>
      <trkpt lat="62.63198168367" lon="17.978319959467">
        <ele>85.6</ele>
        <time>2018-04-09T18:13:46Z</time>
      </trkpt>
      <trkpt lat="62.631970284286" lon="17.978372346342">
        <ele>85.6</ele>
        <time>2018-04-09T18:13:47Z</time>
      </trkpt>
      <trkpt lat="62.631955783599" lon="17.978426912511">
        <ele>85.8</ele>
        <time>2018-04-09T18:13:48Z</time>
      </trkpt>
      <trkpt lat="62.63194480331" lon="17.978471923314">
        <ele>85.8</ele>
        <time>2018-04-09T18:13:49Z</time>
      </trkpt>
      <trkpt lat="62.631932565736" lon="17.978524142551">
        <ele>86</ele>
        <time>2018-04-09T18:13:50Z</time>
      </trkpt>
      <trkpt lat="62.631920663438" lon="17.978574433951">
        <ele>86.2</ele>
        <time>2018-04-09T18:13:51Z</time>
      </trkpt>
      <trkpt lat="62.631911778624" lon="17.9786222946">
        <ele>86.2</ele>
        <time>2018-04-09T18:13:52Z</time>
      </trkpt>
      <trkpt lat="62.631898367584" lon="17.978681303176">
        <ele>86</ele>
        <time>2018-04-09T18:13:53Z</time>
      </trkpt>
      <trkpt lat="62.631889734227" lon="17.978726984531">
        <ele>86</ele>
        <time>2018-04-09T18:13:54Z</time>
      </trkpt>
      <trkpt lat="62.631879005395" lon="17.97877735975">
        <ele>86.2</ele>
        <time>2018-04-09T18:13:55Z</time>
      </trkpt>
      <trkpt lat="62.631867354554" lon="17.978826226227">
        <ele>86.2</ele>
        <time>2018-04-09T18:13:56Z</time>
      </trkpt>
      <trkpt lat="62.631856709541" lon="17.978871907582">
        <ele>86.2</ele>
        <time>2018-04-09T18:13:57Z</time>
      </trkpt>
      <trkpt lat="62.631845393976" lon="17.978922785715">
        <ele>86.4</ele>
        <time>2018-04-09T18:13:58Z</time>
      </trkpt>
      <trkpt lat="62.631836592981" lon="17.978966623052">
        <ele>86.6</ele>
        <time>2018-04-09T18:13:59Z</time>
      </trkpt>
      <trkpt lat="62.631828127262" lon="17.979015908624">
        <ele>86.4</ele>
        <time>2018-04-09T18:14:00Z</time>
      </trkpt>
      <trkpt lat="62.63181739843" lon="17.979066116205">
        <ele>86.4</ele>
        <time>2018-04-09T18:14:01Z</time>
      </trkpt>
      <trkpt lat="62.631805160856" lon="17.979121436745">
        <ele>86.4</ele>
        <time>2018-04-09T18:14:02Z</time>
      </trkpt>
      <trkpt lat="62.631784541382" lon="17.979163346245">
        <ele>86.6</ele>
        <time>2018-04-09T18:14:03Z</time>
      </trkpt>
      <trkpt lat="62.631773225817" lon="17.979216738948">
        <ele>86.4</ele>
        <time>2018-04-09T18:14:04Z</time>
      </trkpt>
      <trkpt lat="62.631756713474" lon="17.979265856882">
        <ele>86.6</ele>
        <time>2018-04-09T18:14:05Z</time>
      </trkpt>
      <trkpt lat="62.631747325746" lon="17.979316148282">
        <ele>86.6</ele>
        <time>2018-04-09T18:14:06Z</time>
      </trkpt>
      <trkpt lat="62.63173525581" lon="17.979368199881">
        <ele>86.6</ele>
        <time>2018-04-09T18:14:07Z</time>
      </trkpt>
      <trkpt lat="62.631723772607" lon="17.979427208457">
        <ele>86.8</ele>
        <time>2018-04-09T18:14:08Z</time>
      </trkpt>
      <trkpt lat="62.631715809802" lon="17.979467860672">
        <ele>86.6</ele>
        <time>2018-04-09T18:14:09Z</time>
      </trkpt>
      <trkpt lat="62.6317025664" lon="17.97952167247">
        <ele>86.8</ele>
        <time>2018-04-09T18:14:10Z</time>
      </trkpt>
      <trkpt lat="62.631690664102" lon="17.979563162875">
        <ele>87</ele>
        <time>2018-04-09T18:14:11Z</time>
      </trkpt>
      <trkpt lat="62.631682282202" lon="17.979615465931">
        <ele>87</ele>
        <time>2018-04-09T18:14:12Z</time>
      </trkpt>
      <trkpt lat="62.631670631361" lon="17.979662404571">
        <ele>86.8</ele>
        <time>2018-04-09T18:14:13Z</time>
      </trkpt>
      <trkpt lat="62.631661746547" lon="17.979724262993">
        <ele>86.8</ele>
        <time>2018-04-09T18:14:14Z</time>
      </trkpt>
      <trkpt lat="62.631640624159" lon="17.979755359842">
        <ele>87</ele>
        <time>2018-04-09T18:14:15Z</time>
      </trkpt>
      <trkpt lat="62.631630733517" lon="17.979795341505">
        <ele>87</ele>
        <time>2018-04-09T18:14:16Z</time>
      </trkpt>
      <trkpt lat="62.63161707102" lon="17.97984940476">
        <ele>87</ele>
        <time>2018-04-09T18:14:17Z</time>
      </trkpt>
      <trkpt lat="62.631600223401" lon="17.979892403907">
        <ele>87.2</ele>
        <time>2018-04-09T18:14:18Z</time>
      </trkpt>
      <trkpt lat="62.631589326931" lon="17.979931044466">
        <ele>87.2</ele>
        <time>2018-04-09T18:14:19Z</time>
      </trkpt>
      <trkpt lat="62.631572144036" lon="17.979971445224">
        <ele>87.4</ele>
        <time>2018-04-09T18:14:20Z</time>
      </trkpt>
      <trkpt lat="62.631560493195" lon="17.979995836553">
        <ele>87.4</ele>
        <time>2018-04-09T18:14:21Z</time>
      </trkpt>
      <trkpt lat="62.631548590897" lon="17.980014025276">
        <ele>87.4</ele>
        <time>2018-04-09T18:14:22Z</time>
      </trkpt>
      <trkpt lat="62.631538616436" lon="17.980031208171">
        <ele>87.4</ele>
        <time>2018-04-09T18:14:23Z</time>
      </trkpt>
      <trkpt lat="62.631529731622" lon="17.980044451573">
        <ele>87.4</ele>
        <time>2018-04-09T18:14:24Z</time>
      </trkpt>
      <trkpt lat="62.631525959767" lon="17.980061299192">
        <ele>87.2</ele>
        <time>2018-04-09T18:14:25Z</time>
      </trkpt>
      <trkpt lat="62.631519505704" lon="17.98007990701">
        <ele>87.4</ele>
        <time>2018-04-09T18:14:26Z</time>
      </trkpt>
      <trkpt lat="62.631512967822" lon="17.980104298339">
        <ele>87.4</ele>
        <time>2018-04-09T18:14:27Z</time>
      </trkpt>
      <trkpt lat="62.631508273958" lon="17.980129444039">
        <ele>87.4</ele>
        <time>2018-04-09T18:14:28Z</time>
      </trkpt>
      <trkpt lat="62.631503580094" lon="17.980155595567">
        <ele>87.4</ele>
        <time>2018-04-09T18:14:29Z</time>
      </trkpt>
      <trkpt lat="62.631497880402" lon="17.980180741267">
        <ele>87.4</ele>
        <time>2018-04-09T18:14:30Z</time>
      </trkpt>
      <trkpt lat="62.631489917597" lon="17.980203037121">
        <ele>87.4</ele>
        <time>2018-04-09T18:14:31Z</time>
      </trkpt>
      <trkpt lat="62.631484050267" lon="17.980216951075">
        <ele>87.4</ele>
        <time>2018-04-09T18:14:32Z</time>
      </trkpt>
      <trkpt lat="62.631479272584" lon="17.980237319092">
        <ele>87.6</ele>
        <time>2018-04-09T18:14:33Z</time>
      </trkpt>
      <trkpt lat="62.631473908168" lon="17.980244611345">
        <ele>87.6</ele>
        <time>2018-04-09T18:14:34Z</time>
      </trkpt>
      <trkpt lat="62.63147206415" lon="17.980234301608">
        <ele>87.6</ele>
        <time>2018-04-09T18:14:35Z</time>
      </trkpt>
      <trkpt lat="62.631479524041" lon="17.980235307436">
        <ele>87.6</ele>
        <time>2018-04-09T18:14:36Z</time>
      </trkpt>
      <trkpt lat="62.631590416578" lon="17.979870862424">
        <ele>78.8</ele>
        <time>2018-04-09T18:16:36Z</time>
      </trkpt>
      <trkpt lat="62.631605252541" lon="17.979826605992">
        <ele>78.6</ele>
        <time>2018-04-09T18:16:37Z</time>
      </trkpt>
      <trkpt lat="62.631620088504" lon="17.97976810033">
        <ele>78.6</ele>
        <time>2018-04-09T18:16:38Z</time>
      </trkpt>
      <trkpt lat="62.631634840648" lon="17.979717222197">
        <ele>78.6</ele>
        <time>2018-04-09T18:16:39Z</time>
      </trkpt>
      <trkpt lat="62.631643976919" lon="17.979677072896">
        <ele>78.8</ele>
        <time>2018-04-09T18:16:40Z</time>
      </trkpt>
      <trkpt lat="62.631656298312" lon="17.979612364628">
        <ele>78.6</ele>
        <time>2018-04-09T18:16:41Z</time>
      </trkpt>
      <trkpt lat="62.631665769859" lon="17.97955352369">
        <ele>78.8</ele>
        <time>2018-04-09T18:16:42Z</time>
      </trkpt>
      <trkpt lat="62.631676079596" lon="17.979501639729">
        <ele>79.2</ele>
        <time>2018-04-09T18:16:43Z</time>
      </trkpt>
      <trkpt lat="62.631683707125" lon="17.979451432148">
        <ele>79.4</ele>
        <time>2018-04-09T18:16:44Z</time>
      </trkpt>
      <trkpt lat="62.631697201984" lon="17.979409019734">
        <ele>79.4</ele>
        <time>2018-04-09T18:16:45Z</time>
      </trkpt>
      <trkpt lat="62.631704326599" lon="17.979364763302">
        <ele>79.4</ele>
        <time>2018-04-09T18:16:46Z</time>
      </trkpt>
      <trkpt lat="62.631718324372" lon="17.979289829116">
        <ele>79.4</ele>
        <time>2018-04-09T18:16:47Z</time>
      </trkpt>
      <trkpt lat="62.631735004353" lon="17.97923584968">
        <ele>79.4</ele>
        <time>2018-04-09T18:16:48Z</time>
      </trkpt>
      <trkpt lat="62.631754869456" lon="17.979193269628">
        <ele>79.4</ele>
        <time>2018-04-09T18:16:49Z</time>
      </trkpt>
      <trkpt lat="62.631772890541" lon="17.979146330988">
        <ele>79.4</ele>
        <time>2018-04-09T18:16:50Z</time>
      </trkpt>
      <trkpt lat="62.631787391228" lon="17.979087741507">
        <ele>79.4</ele>
        <time>2018-04-09T18:16:51Z</time>
      </trkpt>
      <trkpt lat="62.631794012929" lon="17.979029738759">
        <ele>79</ele>
        <time>2018-04-09T18:16:52Z</time>
      </trkpt>
      <trkpt lat="62.63180063463" lon="17.978976346056">
        <ele>79.2</ele>
        <time>2018-04-09T18:16:53Z</time>
      </trkpt>
      <trkpt lat="62.631812453109" lon="17.978918343308">
        <ele>79.2</ele>
        <time>2018-04-09T18:16:54Z</time>
      </trkpt>
      <trkpt lat="62.631817063154" lon="17.978863525682">
        <ele>79.4</ele>
        <time>2018-04-09T18:16:55Z</time>
      </trkpt>
      <trkpt lat="62.631826869977" lon="17.978811976997">
        <ele>79.4</ele>
        <time>2018-04-09T18:16:56Z</time>
      </trkpt>
      <trkpt lat="62.63183751499" lon="17.978756237362">
        <ele>79.4</ele>
        <time>2018-04-09T18:16:57Z</time>
      </trkpt>
      <trkpt lat="62.631845980709" lon="17.978708125256">
        <ele>79.4</ele>
        <time>2018-04-09T18:16:58Z</time>
      </trkpt>
      <trkpt lat="62.631853943514" lon="17.978649535775">
        <ele>79.4</ele>
        <time>2018-04-09T18:16:59Z</time>
      </trkpt>
      <trkpt lat="62.631861068129" lon="17.978605027886">
        <ele>79.4</ele>
        <time>2018-04-09T18:17:00Z</time>
      </trkpt>
      <trkpt lat="62.631870455857" lon="17.978546606043">
        <ele>79.4</ele>
        <time>2018-04-09T18:17:01Z</time>
      </trkpt>
      <trkpt lat="62.63188110087" lon="17.978495057358">
        <ele>79.4</ele>
        <time>2018-04-09T18:17:02Z</time>
      </trkpt>
      <trkpt lat="62.631888225485" lon="17.97843454004">
        <ele>79.4</ele>
        <time>2018-04-09T18:17:03Z</time>
      </trkpt>
      <trkpt lat="62.631896439747" lon="17.978407550322">
        <ele>79.2</ele>
        <time>2018-04-09T18:17:04Z</time>
      </trkpt>
      <trkpt lat="62.631908593502" lon="17.978338315828">
        <ele>79.2</ele>
        <time>2018-04-09T18:17:05Z</time>
      </trkpt>
      <trkpt lat="62.631915634298" lon="17.978280648356">
        <ele>79.2</ele>
        <time>2018-04-09T18:17:06Z</time>
      </trkpt>
      <trkpt lat="62.631926111673" lon="17.978227926205">
        <ele>79.2</ele>
        <time>2018-04-09T18:17:07Z</time>
      </trkpt>
      <trkpt lat="62.631938013971" lon="17.97816799562">
        <ele>79</ele>
        <time>2018-04-09T18:17:08Z</time>
      </trkpt>
      <trkpt lat="62.631949497174" lon="17.978120805523">
        <ele>79</ele>
        <time>2018-04-09T18:17:09Z</time>
      </trkpt>
      <trkpt lat="62.631962070024" lon="17.978071436132">
        <ele>78.8</ele>
        <time>2018-04-09T18:17:10Z</time>
      </trkpt>
      <trkpt lat="62.631973217951" lon="17.978019803628">
        <ele>78.8</ele>
        <time>2018-04-09T18:17:11Z</time>
      </trkpt>
      <trkpt lat="62.631988053914" lon="17.977960711233">
        <ele>78.6</ele>
        <time>2018-04-09T18:17:12Z</time>
      </trkpt>
      <trkpt lat="62.632003392791" lon="17.97789474568">
        <ele>78.6</ele>
        <time>2018-04-09T18:17:13Z</time>
      </trkpt>
      <trkpt lat="62.632014540718" lon="17.977846549755">
        <ele>78.8</ele>
        <time>2018-04-09T18:17:14Z</time>
      </trkpt>
      <trkpt lat="62.632026023921" lon="17.977800533124">
        <ele>78.8</ele>
        <time>2018-04-09T18:17:15Z</time>
      </trkpt>
      <trkpt lat="62.632036752753" lon="17.977745464041">
        <ele>78.8</ele>
        <time>2018-04-09T18:17:16Z</time>
      </trkpt>
      <trkpt lat="62.632051923992" lon="17.977695591736">
        <ele>78.8</ele>
        <time>2018-04-09T18:17:17Z</time>
      </trkpt>
      <trkpt lat="62.632064077747" lon="17.977650245657">
        <ele>78.8</ele>
        <time>2018-04-09T18:17:18Z</time>
      </trkpt>
      <trkpt lat="62.632075980045" lon="17.977597691144">
        <ele>79</ele>
        <time>2018-04-09T18:17:19Z</time>
      </trkpt>
      <trkpt lat="62.632085451592" lon="17.977549914314">
        <ele>79</ele>
        <time>2018-04-09T18:17:20Z</time>
      </trkpt>
      <trkpt lat="62.632099114089" lon="17.977494174679">
        <ele>79</ele>
        <time>2018-04-09T18:17:21Z</time>
      </trkpt>
      <trkpt lat="62.632110681111" lon="17.977443631822">
        <ele>79.2</ele>
        <time>2018-04-09T18:17:22Z</time>
      </trkpt>
      <trkpt lat="62.632121745219" lon="17.977393843336">
        <ele>79.4</ele>
        <time>2018-04-09T18:17:23Z</time>
      </trkpt>
      <trkpt lat="62.632135491535" lon="17.977341288823">
        <ele>79.6</ele>
        <time>2018-04-09T18:17:24Z</time>
      </trkpt>
      <trkpt lat="62.632146555643" lon="17.977294350183">
        <ele>79.6</ele>
        <time>2018-04-09T18:17:25Z</time>
      </trkpt>
      <trkpt lat="62.632159296131" lon="17.977233665227">
        <ele>79.6</ele>
        <time>2018-04-09T18:17:26Z</time>
      </trkpt>
      <trkpt lat="62.632168851497" lon="17.977185301664">
        <ele>79.8</ele>
        <time>2018-04-09T18:17:27Z</time>
      </trkpt>
      <trkpt lat="62.632181843442" lon="17.977134339712">
        <ele>79.8</ele>
        <time>2018-04-09T18:17:28Z</time>
      </trkpt>
      <trkpt lat="62.63219458393" lon="17.977088742176">
        <ele>79.8</ele>
        <time>2018-04-09T18:17:29Z</time>
      </trkpt>
      <trkpt lat="62.632205648038" lon="17.977039121328">
        <ele>79.8</ele>
        <time>2018-04-09T18:17:30Z</time>
      </trkpt>
      <trkpt lat="62.632217801793" lon="17.976983716969">
        <ele>80</ele>
        <time>2018-04-09T18:17:31Z</time>
      </trkpt>
      <trkpt lat="62.632228530625" lon="17.976932922655">
        <ele>80</ele>
        <time>2018-04-09T18:17:32Z</time>
      </trkpt>
      <trkpt lat="62.632239930009" lon="17.976882882712">
        <ele>79.8</ele>
        <time>2018-04-09T18:17:33Z</time>
      </trkpt>
      <trkpt lat="62.632249233918" lon="17.976828148905">
        <ele>80</ele>
        <time>2018-04-09T18:17:34Z</time>
      </trkpt>
      <trkpt lat="62.63225744818" lon="17.976772157813">
        <ele>80.2</ele>
        <time>2018-04-09T18:17:35Z</time>
      </trkpt>
      <trkpt lat="62.632267674098" lon="17.976714155065">
        <ele>80.4</ele>
        <time>2018-04-09T18:17:36Z</time>
      </trkpt>
      <trkpt lat="62.632278905844" lon="17.976663528389">
        <ele>80.6</ele>
        <time>2018-04-09T18:17:37Z</time>
      </trkpt>
      <trkpt lat="62.632293741807" lon="17.976611979704">
        <ele>80.8</ele>
        <time>2018-04-09T18:17:38Z</time>
      </trkpt>
      <trkpt lat="62.632303883906" lon="17.976561939761">
        <ele>80.8</ele>
        <time>2018-04-09T18:17:39Z</time>
      </trkpt>
      <trkpt lat="62.63231276872" lon="17.976508714696">
        <ele>80.8</ele>
        <time>2018-04-09T18:17:40Z</time>
      </trkpt>
      <trkpt lat="62.632323916647" lon="17.976457920382">
        <ele>80.6</ele>
        <time>2018-04-09T18:17:41Z</time>
      </trkpt>
      <trkpt lat="62.63233623804" lon="17.976407712801">
        <ele>80.8</ele>
        <time>2018-04-09T18:17:42Z</time>
      </trkpt>
      <trkpt lat="62.632346799234" lon="17.976355745021">
        <ele>81</ele>
        <time>2018-04-09T18:17:43Z</time>
      </trkpt>
      <trkpt lat="62.632356270781" lon="17.976306040354">
        <ele>81</ele>
        <time>2018-04-09T18:17:44Z</time>
      </trkpt>
      <trkpt lat="62.63236976564" lon="17.976255078402">
        <ele>81.2</ele>
        <time>2018-04-09T18:17:45Z</time>
      </trkpt>
      <trkpt lat="62.632384936879" lon="17.976203613536">
        <ele>81.2</ele>
        <time>2018-04-09T18:17:46Z</time>
      </trkpt>
      <trkpt lat="62.632397174453" lon="17.976145610788">
        <ele>81.2</ele>
        <time>2018-04-09T18:17:47Z</time>
      </trkpt>
      <trkpt lat="62.632406646" lon="17.976093140094">
        <ele>81.4</ele>
        <time>2018-04-09T18:17:48Z</time>
      </trkpt>
      <trkpt lat="62.632417291013" lon="17.976040417943">
        <ele>81.4</ele>
        <time>2018-04-09T18:17:49Z</time>
      </trkpt>
      <trkpt lat="62.632429696225" lon="17.975991635285">
        <ele>81.4</ele>
        <time>2018-04-09T18:17:50Z</time>
      </trkpt>
      <trkpt lat="62.632444448369" lon="17.975942182075">
        <ele>81.8</ele>
        <time>2018-04-09T18:17:51Z</time>
      </trkpt>
      <trkpt lat="62.632459032875" lon="17.975885268974">
        <ele>81.8</ele>
        <time>2018-04-09T18:17:52Z</time>
      </trkpt>
      <trkpt lat="62.632471857182" lon="17.975832546823">
        <ele>81.6</ele>
        <time>2018-04-09T18:17:53Z</time>
      </trkpt>
      <trkpt lat="62.632484010937" lon="17.975780243767">
        <ele>81.8</ele>
        <time>2018-04-09T18:17:54Z</time>
      </trkpt>
      <trkpt lat="62.632497505796" lon="17.975731964023">
        <ele>82</ele>
        <time>2018-04-09T18:17:55Z</time>
      </trkpt>
      <trkpt lat="62.632509072818" lon="17.975675134741">
        <ele>82.2</ele>
        <time>2018-04-09T18:17:56Z</time>
      </trkpt>
      <trkpt lat="62.632521813306" lon="17.975621322943">
        <ele>82.4</ele>
        <time>2018-04-09T18:17:57Z</time>
      </trkpt>
      <trkpt lat="62.63253321269" lon="17.975571785914">
        <ele>82.4</ele>
        <time>2018-04-09T18:17:58Z</time>
      </trkpt>
      <trkpt lat="62.632544863531" lon="17.975525014912">
        <ele>82.8</ele>
        <time>2018-04-09T18:17:59Z</time>
      </trkpt>
      <trkpt lat="62.632555089449" lon="17.975474136779">
        <ele>82.8</ele>
        <time>2018-04-09T18:18:00Z</time>
      </trkpt>
      <trkpt lat="62.632566488833" lon="17.975423258646">
        <ele>82.8</ele>
        <time>2018-04-09T18:18:01Z</time>
      </trkpt>
      <trkpt lat="62.632580067511" lon="17.975370285038">
        <ele>82.8</ele>
        <time>2018-04-09T18:18:02Z</time>
      </trkpt>
      <trkpt lat="62.632590377248" lon="17.975324268407">
        <ele>83</ele>
        <time>2018-04-09T18:18:03Z</time>
      </trkpt>
      <trkpt lat="62.632599513519" lon="17.975277245948">
        <ele>83.2</ele>
        <time>2018-04-09T18:18:04Z</time>
      </trkpt>
      <trkpt lat="62.63261116436" lon="17.975218907924">
        <ele>83</ele>
        <time>2018-04-09T18:18:05Z</time>
      </trkpt>
      <trkpt lat="62.63261954626" lon="17.975157636235">
        <ele>83</ele>
        <time>2018-04-09T18:18:06Z</time>
      </trkpt>
      <trkpt lat="62.632631364739" lon="17.975103489161">
        <ele>83</ele>
        <time>2018-04-09T18:18:07Z</time>
      </trkpt>
      <trkpt lat="62.632643183218" lon="17.975056382883">
        <ele>83</ele>
        <time>2018-04-09T18:18:08Z</time>
      </trkpt>
      <trkpt lat="62.63265642662" lon="17.975004498922">
        <ele>83</ele>
        <time>2018-04-09T18:18:09Z</time>
      </trkpt>
      <trkpt lat="62.63266816128" lon="17.97495269878">
        <ele>83</ele>
        <time>2018-04-09T18:18:10Z</time>
      </trkpt>
      <trkpt lat="62.632679476845" lon="17.974898300249">
        <ele>82.8</ele>
        <time>2018-04-09T18:18:11Z</time>
      </trkpt>
      <trkpt lat="62.632692301152" lon="17.974842979709">
        <ele>83</ele>
        <time>2018-04-09T18:18:12Z</time>
      </trkpt>
      <trkpt lat="62.632703449079" lon="17.974794029413">
        <ele>82.8</ele>
        <time>2018-04-09T18:18:13Z</time>
      </trkpt>
      <trkpt lat="62.632715435196" lon="17.974744743841">
        <ele>82.6</ele>
        <time>2018-04-09T18:18:14Z</time>
      </trkpt>
      <trkpt lat="62.632726080209" lon="17.974706606196">
        <ele>82.6</ele>
        <time>2018-04-09T18:18:15Z</time>
      </trkpt>
      <trkpt lat="62.632739155973" lon="17.974642652299">
        <ele>82.8</ele>
        <time>2018-04-09T18:18:16Z</time>
      </trkpt>
      <trkpt lat="62.632753069927" lon="17.974590181605">
        <ele>82.6</ele>
        <time>2018-04-09T18:18:17Z</time>
      </trkpt>
      <trkpt lat="62.632763798759" lon="17.974539554929">
        <ele>82.6</ele>
        <time>2018-04-09T18:18:18Z</time>
      </trkpt>
      <trkpt lat="62.632776790704" lon="17.97448834152">
        <ele>82.8</ele>
        <time>2018-04-09T18:18:19Z</time>
      </trkpt>
      <trkpt lat="62.632786597527" lon="17.97444056469">
        <ele>82.8</ele>
        <time>2018-04-09T18:18:20Z</time>
      </trkpt>
      <trkpt lat="62.632797158721" lon="17.974393877507">
        <ele>82.8</ele>
        <time>2018-04-09T18:18:21Z</time>
      </trkpt>
      <trkpt lat="62.632809731571" lon="17.974334868931">
        <ele>82.6</ele>
        <time>2018-04-09T18:18:22Z</time>
      </trkpt>
      <trkpt lat="62.632819789851" lon="17.974283990798">
        <ele>82.6</ele>
        <time>2018-04-09T18:18:23Z</time>
      </trkpt>
      <trkpt lat="62.632832278882" lon="17.974229676086">
        <ele>82.6</ele>
        <time>2018-04-09T18:18:24Z</time>
      </trkpt>
      <trkpt lat="62.632841918067" lon="17.974182150713">
        <ele>82.4</ele>
        <time>2018-04-09T18:18:25Z</time>
      </trkpt>
      <trkpt lat="62.632855664383" lon="17.974130685847">
        <ele>82.2</ele>
        <time>2018-04-09T18:18:26Z</time>
      </trkpt>
      <trkpt lat="62.632870248889" lon="17.974079723895">
        <ele>82.2</ele>
        <time>2018-04-09T18:18:27Z</time>
      </trkpt>
      <trkpt lat="62.632883240834" lon="17.974027085563">
        <ele>82.4</ele>
        <time>2018-04-09T18:18:28Z</time>
      </trkpt>
      <trkpt lat="62.632895981322" lon="17.973974782507">
        <ele>82.4</ele>
        <time>2018-04-09T18:18:29Z</time>
      </trkpt>
      <trkpt lat="62.632908218896" lon="17.973926670401">
        <ele>82.2</ele>
        <time>2018-04-09T18:18:30Z</time>
      </trkpt>
      <trkpt lat="62.63292129466" lon="17.973867075092">
        <ele>82.2</ele>
        <time>2018-04-09T18:18:31Z</time>
      </trkpt>
      <trkpt lat="62.632936549718" lon="17.973811251638">
        <ele>82.4</ele>
        <time>2018-04-09T18:18:32Z</time>
      </trkpt>
      <trkpt lat="62.632953313518" lon="17.973765067369">
        <ele>82.2</ele>
        <time>2018-04-09T18:18:33Z</time>
      </trkpt>
      <trkpt lat="62.632969825861" lon="17.973711423209">
        <ele>82.2</ele>
        <time>2018-04-09T18:18:34Z</time>
      </trkpt>
      <trkpt lat="62.632981979616" lon="17.9736602098">
        <ele>82</ele>
        <time>2018-04-09T18:18:35Z</time>
      </trkpt>
      <trkpt lat="62.63299673176" lon="17.973601452681">
        <ele>82</ele>
        <time>2018-04-09T18:18:36Z</time>
      </trkpt>
      <trkpt lat="62.63300930461" lon="17.973550658367">
        <ele>82</ele>
        <time>2018-04-09T18:18:37Z</time>
      </trkpt>
      <trkpt lat="62.633017854148" lon="17.973494918732">
        <ele>81.8</ele>
        <time>2018-04-09T18:18:38Z</time>
      </trkpt>
      <trkpt lat="62.633028750618" lon="17.973443453866">
        <ele>81.8</ele>
        <time>2018-04-09T18:18:39Z</time>
      </trkpt>
      <trkpt lat="62.633038054527" lon="17.973396766683">
        <ele>81.8</ele>
        <time>2018-04-09T18:18:40Z</time>
      </trkpt>
      <trkpt lat="62.633055153603" lon="17.97334421217">
        <ele>81.8</ele>
        <time>2018-04-09T18:18:41Z</time>
      </trkpt>
      <trkpt lat="62.633066888263" lon="17.973295764788">
        <ele>81.6</ele>
        <time>2018-04-09T18:18:42Z</time>
      </trkpt>
      <trkpt lat="62.63307887438" lon="17.973248071777">
        <ele>81.4</ele>
        <time>2018-04-09T18:18:43Z</time>
      </trkpt>
      <trkpt lat="62.633091531049" lon="17.973199708214">
        <ele>81.2</ele>
        <time>2018-04-09T18:18:44Z</time>
      </trkpt>
      <trkpt lat="62.633099912949" lon="17.973153775402">
        <ele>81.2</ele>
        <time>2018-04-09T18:18:45Z</time>
      </trkpt>
      <trkpt lat="62.633110474143" lon="17.973093677179">
        <ele>81.4</ele>
        <time>2018-04-09T18:18:46Z</time>
      </trkpt>
      <trkpt lat="62.633123130812" lon="17.973040619752">
        <ele>81.2</ele>
        <time>2018-04-09T18:18:47Z</time>
      </trkpt>
      <trkpt lat="62.633132686178" lon="17.972990998904">
        <ele>81</ele>
        <time>2018-04-09T18:18:48Z</time>
      </trkpt>
      <trkpt lat="62.6331442532" lon="17.97293769002">
        <ele>81</ele>
        <time>2018-04-09T18:18:49Z</time>
      </trkpt>
      <trkpt lat="62.633158167154" lon="17.972896367253">
        <ele>81</ele>
        <time>2018-04-09T18:18:50Z</time>
      </trkpt>
      <trkpt lat="62.633172164927" lon="17.972850350622">
        <ele>80.6</ele>
        <time>2018-04-09T18:18:51Z</time>
      </trkpt>
      <trkpt lat="62.633184905415" lon="17.972794862444">
        <ele>80.6</ele>
        <time>2018-04-09T18:18:52Z</time>
      </trkpt>
      <trkpt lat="62.633195215152" lon="17.972743900492">
        <ele>80.6</ele>
        <time>2018-04-09T18:18:53Z</time>
      </trkpt>
      <trkpt lat="62.633206865993" lon="17.972691848893">
        <ele>80.4</ele>
        <time>2018-04-09T18:18:54Z</time>
      </trkpt>
      <trkpt lat="62.633215583169" lon="17.972645329348">
        <ele>80.4</ele>
        <time>2018-04-09T18:18:55Z</time>
      </trkpt>
      <trkpt lat="62.633225892906" lon="17.972593864482">
        <ele>80.4</ele>
        <time>2018-04-09T18:18:56Z</time>
      </trkpt>
      <trkpt lat="62.633236705557" lon="17.972541812883">
        <ele>80.2</ele>
        <time>2018-04-09T18:18:57Z</time>
      </trkpt>
      <trkpt lat="62.633246428561" lon="17.972491186207">
        <ele>80.2</ele>
        <time>2018-04-09T18:18:58Z</time>
      </trkpt>
      <trkpt lat="62.633255481013" lon="17.972442152092">
        <ele>80.2</ele>
        <time>2018-04-09T18:18:59Z</time>
      </trkpt>
      <trkpt lat="62.63326495256" lon="17.972390687226">
        <ele>80.2</ele>
        <time>2018-04-09T18:19:00Z</time>
      </trkpt>
      <trkpt lat="62.633272663908" lon="17.972338132713">
        <ele>79.8</ele>
        <time>2018-04-09T18:19:01Z</time>
      </trkpt>
      <trkpt lat="62.633283225102" lon="17.972287925132">
        <ele>80</ele>
        <time>2018-04-09T18:19:02Z</time>
      </trkpt>
      <trkpt lat="62.633292277554" lon="17.972244590709">
        <ele>80</ele>
        <time>2018-04-09T18:19:03Z</time>
      </trkpt>
      <trkpt lat="62.63330015654" lon="17.972196813879">
        <ele>79.8</ele>
        <time>2018-04-09T18:19:04Z</time>
      </trkpt>
      <trkpt lat="62.633308119345" lon="17.972146019565">
        <ele>79.8</ele>
        <time>2018-04-09T18:19:05Z</time>
      </trkpt>
      <trkpt lat="62.633315411598" lon="17.972096566355">
        <ele>79.6</ele>
        <time>2018-04-09T18:19:06Z</time>
      </trkpt>
      <trkpt lat="62.63332278767" lon="17.972034456476">
        <ele>79.8</ele>
        <time>2018-04-09T18:19:07Z</time>
      </trkpt>
      <trkpt lat="62.633330499018" lon="17.971983243067">
        <ele>79.8</ele>
        <time>2018-04-09T18:19:08Z</time>
      </trkpt>
      <trkpt lat="62.633336282529" lon="17.971937394074">
        <ele>79.6</ele>
        <time>2018-04-09T18:19:09Z</time>
      </trkpt>
      <trkpt lat="62.633343239506" lon="17.971884169009">
        <ele>79.6</ele>
        <time>2018-04-09T18:19:10Z</time>
      </trkpt>
      <trkpt lat="62.633349023017" lon="17.971829854297">
        <ele>79.4</ele>
        <time>2018-04-09T18:19:11Z</time>
      </trkpt>
      <trkpt lat="62.63335631527" lon="17.971775288128">
        <ele>79.2</ele>
        <time>2018-04-09T18:19:12Z</time>
      </trkpt>
      <trkpt lat="62.633362601695" lon="17.971719213217">
        <ele>79.2</ele>
        <time>2018-04-09T18:19:13Z</time>
      </trkpt>
      <trkpt lat="62.63336721174" lon="17.971669257093">
        <ele>79.2</ele>
        <time>2018-04-09T18:19:14Z</time>
      </trkpt>
      <trkpt lat="62.633372576156" lon="17.971618714236">
        <ele>78.8</ele>
        <time>2018-04-09T18:19:15Z</time>
      </trkpt>
      <trkpt lat="62.633377605296" lon="17.971558616013">
        <ele>79</ele>
        <time>2018-04-09T18:19:16Z</time>
      </trkpt>
      <trkpt lat="62.633381209513" lon="17.971503463111">
        <ele>79</ele>
        <time>2018-04-09T18:19:17Z</time>
      </trkpt>
      <trkpt lat="62.633385149006" lon="17.971449148399">
        <ele>78.8</ele>
        <time>2018-04-09T18:19:18Z</time>
      </trkpt>
      <trkpt lat="62.63338565192" lon="17.971400533379">
        <ele>78.6</ele>
        <time>2018-04-09T18:19:19Z</time>
      </trkpt>
      <trkpt lat="62.633389339956" lon="17.971350744893">
        <ele>78.6</ele>
        <time>2018-04-09T18:19:20Z</time>
      </trkpt>
      <trkpt lat="62.633393363268" lon="17.971297771285">
        <ele>78.6</ele>
        <time>2018-04-09T18:19:21Z</time>
      </trkpt>
      <trkpt lat="62.633394704372" lon="17.971243372754">
        <ele>78.4</ele>
        <time>2018-04-09T18:19:22Z</time>
      </trkpt>
      <trkpt lat="62.633397218942" lon="17.97118671111">
        <ele>78.2</ele>
        <time>2018-04-09T18:19:23Z</time>
      </trkpt>
      <trkpt lat="62.633398140951" lon="17.971135916796">
        <ele>78.2</ele>
        <time>2018-04-09T18:19:24Z</time>
      </trkpt>
      <trkpt lat="62.633398979141" lon="17.971087637052">
        <ele>78.2</ele>
        <time>2018-04-09T18:19:25Z</time>
      </trkpt>
      <trkpt lat="62.633399649693" lon="17.971030137218">
        <ele>78.2</ele>
        <time>2018-04-09T18:19:26Z</time>
      </trkpt>
      <trkpt lat="62.633396296933" lon="17.970980767827">
        <ele>78</ele>
        <time>2018-04-09T18:19:27Z</time>
      </trkpt>
      <trkpt lat="62.633395458743" lon="17.970924106183">
        <ele>77.8</ele>
        <time>2018-04-09T18:19:28Z</time>
      </trkpt>
      <trkpt lat="62.633399565874" lon="17.970869120919">
        <ele>77.8</ele>
        <time>2018-04-09T18:19:29Z</time>
      </trkpt>
      <trkpt lat="62.633401828987" lon="17.970824445392">
        <ele>77.8</ele>
        <time>2018-04-09T18:19:30Z</time>
      </trkpt>
      <trkpt lat="62.633402164263" lon="17.970765604454">
        <ele>77.6</ele>
        <time>2018-04-09T18:19:31Z</time>
      </trkpt>
      <trkpt lat="62.633399482055" lon="17.970716067425">
        <ele>77.4</ele>
        <time>2018-04-09T18:19:32Z</time>
      </trkpt>
      <trkpt lat="62.633395961657" lon="17.970669631699">
        <ele>77.4</ele>
        <time>2018-04-09T18:19:33Z</time>
      </trkpt>
      <trkpt lat="62.633394285277" lon="17.97061422734">
        <ele>77.2</ele>
        <time>2018-04-09T18:19:34Z</time>
      </trkpt>
      <trkpt lat="62.633391603069" lon="17.970569719451">
        <ele>77</ele>
        <time>2018-04-09T18:19:35Z</time>
      </trkpt>
      <trkpt lat="62.633389256137" lon="17.970519428051">
        <ele>77</ele>
        <time>2018-04-09T18:19:36Z</time>
      </trkpt>
      <trkpt lat="62.633386741567" lon="17.970465700072">
        <ele>76.8</ele>
        <time>2018-04-09T18:19:37Z</time>
      </trkpt>
      <trkpt lat="62.633383891721" lon="17.970420521631">
        <ele>76.6</ele>
        <time>2018-04-09T18:19:38Z</time>
      </trkpt>
      <trkpt lat="62.633381544789" lon="17.970373582991">
        <ele>76.6</ele>
        <time>2018-04-09T18:19:39Z</time>
      </trkpt>
      <trkpt lat="62.63337978459" lon="17.970325722342">
        <ele>76.8</ele>
        <time>2018-04-09T18:19:40Z</time>
      </trkpt>
      <trkpt lat="62.633378024391" lon="17.970281968824">
        <ele>76.6</ele>
        <time>2018-04-09T18:19:41Z</time>
      </trkpt>
      <trkpt lat="62.633378443486" lon="17.970249782328">
        <ele>76.4</ele>
        <time>2018-04-09T18:19:42Z</time>
      </trkpt>
      <trkpt lat="62.633383053531" lon="17.970227486474">
        <ele>76.6</ele>
        <time>2018-04-09T18:19:43Z</time>
      </trkpt>
      <trkpt lat="62.633385987196" lon="17.970216254728">
        <ele>76.6</ele>
        <time>2018-04-09T18:19:44Z</time>
      </trkpt>
      <trkpt lat="62.63338313735" lon="17.970216673823">
        <ele>76.4</ele>
        <time>2018-04-09T18:19:45Z</time>
      </trkpt>
      <trkpt lat="62.633406187575" lon="17.970624537077">
        <ele>76</ele>
        <time>2018-04-09T18:22:50Z</time>
      </trkpt>
      <trkpt lat="62.633408618326" lon="17.97067541521">
        <ele>76.2</ele>
        <time>2018-04-09T18:22:51Z</time>
      </trkpt>
      <trkpt lat="62.633412557819" lon="17.970743643876">
        <ele>76.6</ele>
        <time>2018-04-09T18:22:52Z</time>
      </trkpt>
      <trkpt lat="62.633415156208" lon="17.970809860886">
        <ele>76.8</ele>
        <time>2018-04-09T18:22:53Z</time>
      </trkpt>
      <trkpt lat="62.633416162036" lon="17.970871300213">
        <ele>76.8</ele>
        <time>2018-04-09T18:22:54Z</time>
      </trkpt>
      <trkpt lat="62.633418928063" lon="17.970933661549">
        <ele>76.8</ele>
        <time>2018-04-09T18:22:55Z</time>
      </trkpt>
      <trkpt lat="62.633419850072" lon="17.970990658469">
        <ele>76.6</ele>
        <time>2018-04-09T18:22:56Z</time>
      </trkpt>
      <trkpt lat="62.633420101529" lon="17.971056372565">
        <ele>76.4</ele>
        <time>2018-04-09T18:22:57Z</time>
      </trkpt>
      <trkpt lat="62.633417922235" lon="17.97111546496">
        <ele>76.4</ele>
        <time>2018-04-09T18:22:58Z</time>
      </trkpt>
      <trkpt lat="62.63341834133" lon="17.97117497645">
        <ele>76.4</ele>
        <time>2018-04-09T18:22:59Z</time>
      </trkpt>
      <trkpt lat="62.633414904751" lon="17.97124370803">
        <ele>76.6</ele>
        <time>2018-04-09T18:23:00Z</time>
      </trkpt>
      <trkpt lat="62.633414820932" lon="17.971298525656">
        <ele>76.8</ele>
        <time>2018-04-09T18:23:01Z</time>
      </trkpt>
      <trkpt lat="62.633413731285" lon="17.971365413218">
        <ele>77</ele>
        <time>2018-04-09T18:23:02Z</time>
      </trkpt>
      <trkpt lat="62.633410629982" lon="17.971425511441">
        <ele>77.6</ele>
        <time>2018-04-09T18:23:03Z</time>
      </trkpt>
      <trkpt lat="62.633407863955" lon="17.971489465338">
        <ele>78</ele>
        <time>2018-04-09T18:23:04Z</time>
      </trkpt>
      <trkpt lat="62.633407528679" lon="17.971550150294">
        <ele>78</ele>
        <time>2018-04-09T18:23:05Z</time>
      </trkpt>
      <trkpt lat="62.63340493029" lon="17.971614607105">
        <ele>78</ele>
        <time>2018-04-09T18:23:06Z</time>
      </trkpt>
      <trkpt lat="62.633402667177" lon="17.971672274577">
        <ele>78</ele>
        <time>2018-04-09T18:23:07Z</time>
      </trkpt>
      <trkpt lat="62.633396380752" lon="17.971738323949">
        <ele>77.8</ele>
        <time>2018-04-09T18:23:08Z</time>
      </trkpt>
      <trkpt lat="62.633392944173" lon="17.971794315041">
        <ele>77.6</ele>
        <time>2018-04-09T18:23:09Z</time>
      </trkpt>
      <trkpt lat="62.633387998852" lon="17.971853994169">
        <ele>77.6</ele>
        <time>2018-04-09T18:23:10Z</time>
      </trkpt>
      <trkpt lat="62.633386406291" lon="17.971909817623">
        <ele>77.8</ele>
        <time>2018-04-09T18:23:11Z</time>
      </trkpt>
      <trkpt lat="62.63337727002" lon="17.971976621366">
        <ele>78</ele>
        <time>2018-04-09T18:23:12Z</time>
      </trkpt>
      <trkpt lat="62.633374084898" lon="17.972030852259">
        <ele>78.2</ele>
        <time>2018-04-09T18:23:13Z</time>
      </trkpt>
      <trkpt lat="62.633365451541" lon="17.97208944174">
        <ele>78.4</ele>
        <time>2018-04-09T18:23:14Z</time>
      </trkpt>
      <trkpt lat="62.633357907831" lon="17.972149875239">
        <ele>78.8</ele>
        <time>2018-04-09T18:23:15Z</time>
      </trkpt>
      <trkpt lat="62.633351369949" lon="17.972192036196">
        <ele>79</ele>
        <time>2018-04-09T18:23:16Z</time>
      </trkpt>
      <trkpt lat="62.633343490963" lon="17.972262192699">
        <ele>79.2</ele>
        <time>2018-04-09T18:23:17Z</time>
      </trkpt>
      <trkpt lat="62.633334354692" lon="17.972323464388">
        <ele>79.2</ele>
        <time>2018-04-09T18:23:18Z</time>
      </trkpt>
      <trkpt lat="62.633329074095" lon="17.972376773272">
        <ele>79.2</ele>
        <time>2018-04-09T18:23:19Z</time>
      </trkpt>
      <trkpt lat="62.633318680539" lon="17.972434524563">
        <ele>79</ele>
        <time>2018-04-09T18:23:20Z</time>
      </trkpt>
      <trkpt lat="62.633309544268" lon="17.972485821791">
        <ele>78.8</ele>
        <time>2018-04-09T18:23:21Z</time>
      </trkpt>
      <trkpt lat="62.633300240359" lon="17.972539465951">
        <ele>78.8</ele>
        <time>2018-04-09T18:23:22Z</time>
      </trkpt>
      <trkpt lat="62.633289511527" lon="17.972598809803">
        <ele>78.8</ele>
        <time>2018-04-09T18:23:23Z</time>
      </trkpt>
      <trkpt lat="62.633281129627" lon="17.972658069836">
        <ele>78.8</ele>
        <time>2018-04-09T18:23:24Z</time>
      </trkpt>
      <trkpt lat="62.633267048035" lon="17.972713809471">
        <ele>79</ele>
        <time>2018-04-09T18:23:25Z</time>
      </trkpt>
      <trkpt lat="62.63325740885" lon="17.972761586301">
        <ele>79.2</ele>
        <time>2018-04-09T18:23:26Z</time>
      </trkpt>
      <trkpt lat="62.633243746353" lon="17.97282118161">
        <ele>79.8</ele>
        <time>2018-04-09T18:23:27Z</time>
      </trkpt>
      <trkpt lat="62.633231844055" lon="17.972866779146">
        <ele>79.8</ele>
        <time>2018-04-09T18:23:28Z</time>
      </trkpt>
      <trkpt lat="62.633221618137" lon="17.972921345315">
        <ele>80</ele>
        <time>2018-04-09T18:23:29Z</time>
      </trkpt>
      <trkpt lat="62.63320795564" lon="17.972970127973">
        <ele>80</ele>
        <time>2018-04-09T18:23:30Z</time>
      </trkpt>
      <trkpt lat="62.633196137161" lon="17.973023772133">
        <ele>80</ele>
        <time>2018-04-09T18:23:31Z</time>
      </trkpt>
      <trkpt lat="62.633185659786" lon="17.973079595587">
        <ele>79.8</ele>
        <time>2018-04-09T18:23:32Z</time>
      </trkpt>
      <trkpt lat="62.633170488547" lon="17.973134999946">
        <ele>80</ele>
        <time>2018-04-09T18:23:33Z</time>
      </trkpt>
      <trkpt lat="62.63316017881" lon="17.973186129536">
        <ele>80.4</ele>
        <time>2018-04-09T18:23:34Z</time>
      </trkpt>
      <trkpt lat="62.633144923752" lon="17.973244048465">
        <ele>80.8</ele>
        <time>2018-04-09T18:23:35Z</time>
      </trkpt>
      <trkpt lat="62.633134865472" lon="17.97329643534">
        <ele>80.8</ele>
        <time>2018-04-09T18:23:36Z</time>
      </trkpt>
      <trkpt lat="62.633121286794" lon="17.973357120296">
        <ele>80.8</ele>
        <time>2018-04-09T18:23:37Z</time>
      </trkpt>
      <trkpt lat="62.633106031736" lon="17.973408836619">
        <ele>80.8</ele>
        <time>2018-04-09T18:23:38Z</time>
      </trkpt>
      <trkpt lat="62.633095973456" lon="17.973460972037">
        <ele>80.8</ele>
        <time>2018-04-09T18:23:39Z</time>
      </trkpt>
      <trkpt lat="62.633082981511" lon="17.973511766351">
        <ele>80.4</ele>
        <time>2018-04-09T18:23:40Z</time>
      </trkpt>
      <trkpt lat="62.633073677602" lon="17.973557028611">
        <ele>80.6</ele>
        <time>2018-04-09T18:23:41Z</time>
      </trkpt>
      <trkpt lat="62.633059428372" lon="17.973607739106">
        <ele>80.8</ele>
        <time>2018-04-09T18:23:42Z</time>
      </trkpt>
      <trkpt lat="62.633049789187" lon="17.973651911719">
        <ele>81</ele>
        <time>2018-04-09T18:23:43Z</time>
      </trkpt>
      <trkpt lat="62.633037970708" lon="17.973701029653">
        <ele>81</ele>
        <time>2018-04-09T18:23:44Z</time>
      </trkpt>
      <trkpt lat="62.633026655143" lon="17.973750399044">
        <ele>81.2</ele>
        <time>2018-04-09T18:23:45Z</time>
      </trkpt>
      <trkpt lat="62.633016932139" lon="17.973798594969">
        <ele>81.2</ele>
        <time>2018-04-09T18:23:46Z</time>
      </trkpt>
      <trkpt lat="62.633001928538" lon="17.973854166966">
        <ele>81.4</ele>
        <time>2018-04-09T18:23:47Z</time>
      </trkpt>
      <trkpt lat="62.632989439507" lon="17.973903201081">
        <ele>81.4</ele>
        <time>2018-04-09T18:23:48Z</time>
      </trkpt>
      <trkpt lat="62.632976112286" lon="17.973958856897">
        <ele>81.6</ele>
        <time>2018-04-09T18:23:49Z</time>
      </trkpt>
      <trkpt lat="62.63296571873" lon="17.974005376442">
        <ele>81.6</ele>
        <time>2018-04-09T18:23:50Z</time>
      </trkpt>
      <trkpt lat="62.632950715129" lon="17.974056422213">
        <ele>81.6</ele>
        <time>2018-04-09T18:23:51Z</time>
      </trkpt>
      <trkpt lat="62.63293889665" lon="17.974103779948">
        <ele>81.8</ele>
        <time>2018-04-09T18:23:52Z</time>
      </trkpt>
      <trkpt lat="62.632924898877" lon="17.974158346117">
        <ele>81.8</ele>
        <time>2018-04-09T18:23:53Z</time>
      </trkpt>
      <trkpt lat="62.632912493665" lon="17.974212325553">
        <ele>82</ele>
        <time>2018-04-09T18:23:54Z</time>
      </trkpt>
      <trkpt lat="62.632901429557" lon="17.974268232826">
        <ele>82</ele>
        <time>2018-04-09T18:23:55Z</time>
      </trkpt>
      <trkpt lat="62.632885084852" lon="17.974318691864">
        <ele>82</ele>
        <time>2018-04-09T18:23:56Z</time>
      </trkpt>
      <trkpt lat="62.632869829794" lon="17.974371246377">
        <ele>81.8</ele>
        <time>2018-04-09T18:23:57Z</time>
      </trkpt>
      <trkpt lat="62.63285507765" lon="17.974430925505">
        <ele>81.8</ele>
        <time>2018-04-09T18:23:58Z</time>
      </trkpt>
      <trkpt lat="62.632844851732" lon="17.974482893285">
        <ele>81.8</ele>
        <time>2018-04-09T18:23:59Z</time>
      </trkpt>
      <trkpt lat="62.632828087932" lon="17.974544835526">
        <ele>82</ele>
        <time>2018-04-09T18:24:00Z</time>
      </trkpt>
      <trkpt lat="62.632818281109" lon="17.974594204917">
        <ele>82.2</ele>
        <time>2018-04-09T18:24:01Z</time>
      </trkpt>
      <trkpt lat="62.632805205345" lon="17.974656398615">
        <ele>82.2</ele>
        <time>2018-04-09T18:24:02Z</time>
      </trkpt>
      <trkpt lat="62.632791626667" lon="17.974705265092">
        <ele>82.2</ele>
        <time>2018-04-09T18:24:03Z</time>
      </trkpt>
      <trkpt lat="62.632780562559" lon="17.974755053578">
        <ele>82.2</ele>
        <time>2018-04-09T18:24:04Z</time>
      </trkpt>
      <trkpt lat="62.632766480967" lon="17.974809787385">
        <ele>82.2</ele>
        <time>2018-04-09T18:24:05Z</time>
      </trkpt>
      <trkpt lat="62.63275617123" lon="17.974853876179">
        <ele>82.2</ele>
        <time>2018-04-09T18:24:06Z</time>
      </trkpt>
      <trkpt lat="62.632743766018" lon="17.97491246566">
        <ele>82.2</ele>
        <time>2018-04-09T18:24:07Z</time>
      </trkpt>
      <trkpt lat="62.632733623919" lon="17.974958398472">
        <ele>82.2</ele>
        <time>2018-04-09T18:24:08Z</time>
      </trkpt>
      <trkpt lat="62.632722308354" lon="17.975012964641">
        <ele>82.4</ele>
        <time>2018-04-09T18:24:09Z</time>
      </trkpt>
      <trkpt lat="62.632709064952" lon="17.97506753081">
        <ele>82.4</ele>
        <time>2018-04-09T18:24:10Z</time>
      </trkpt>
      <trkpt lat="62.632701521242" lon="17.975121091151">
        <ele>82.4</ele>
        <time>2018-04-09T18:24:11Z</time>
      </trkpt>
      <trkpt lat="62.632682326691" lon="17.975179261537">
        <ele>82.4</ele>
        <time>2018-04-09T18:24:12Z</time>
      </trkpt>
      <trkpt lat="62.632671262583" lon="17.97523013967">
        <ele>82.4</ele>
        <time>2018-04-09T18:24:13Z</time>
      </trkpt>
      <trkpt lat="62.632664473244" lon="17.975286466038">
        <ele>82.4</ele>
        <time>2018-04-09T18:24:14Z</time>
      </trkpt>
      <trkpt lat="62.632658019181" lon="17.97534832446">
        <ele>82.4</ele>
        <time>2018-04-09T18:24:15Z</time>
      </trkpt>
      <trkpt lat="62.632646619797" lon="17.975396436566">
        <ele>82.4</ele>
        <time>2018-04-09T18:24:16Z</time>
      </trkpt>
      <trkpt lat="62.632633544033" lon="17.975454439314">
        <ele>82.4</ele>
        <time>2018-04-09T18:24:17Z</time>
      </trkpt>
      <trkpt lat="62.632623569572" lon="17.975507245284">
        <ele>82.4</ele>
        <time>2018-04-09T18:24:18Z</time>
      </trkpt>
      <trkpt lat="62.632609823256" lon="17.975560135073">
        <ele>82.6</ele>
        <time>2018-04-09T18:24:19Z</time>
      </trkpt>
      <trkpt lat="62.632600603166" lon="17.97561151612">
        <ele>82.6</ele>
        <time>2018-04-09T18:24:20Z</time>
      </trkpt>
      <trkpt lat="62.632587611221" lon="17.975662394253">
        <ele>82.6</ele>
        <time>2018-04-09T18:24:21Z</time>
      </trkpt>
      <trkpt lat="62.632578391131" lon="17.975707572694">
        <ele>82.6</ele>
        <time>2018-04-09T18:24:22Z</time>
      </trkpt>
      <trkpt lat="62.632566069738" lon="17.975765156347">
        <ele>82.8</ele>
        <time>2018-04-09T18:24:23Z</time>
      </trkpt>
      <trkpt lat="62.632553077793" lon="17.975820560706">
        <ele>83</ele>
        <time>2018-04-09T18:24:24Z</time>
      </trkpt>
      <trkpt lat="62.632542935694" lon="17.975870768287">
        <ele>83</ele>
        <time>2018-04-09T18:24:25Z</time>
      </trkpt>
      <trkpt lat="62.632527932093" lon="17.975920137678">
        <ele>83</ele>
        <time>2018-04-09T18:24:26Z</time>
      </trkpt>
      <trkpt lat="62.632516029795" lon="17.975971434906">
        <ele>83</ele>
        <time>2018-04-09T18:24:27Z</time>
      </trkpt>
      <trkpt lat="62.63250303785" lon="17.97601720008">
        <ele>83</ele>
        <time>2018-04-09T18:24:28Z</time>
      </trkpt>
      <trkpt lat="62.632490884095" lon="17.976069922231">
        <ele>83.2</ele>
        <time>2018-04-09T18:24:29Z</time>
      </trkpt>
      <trkpt lat="62.632477640693" lon="17.976123817848">
        <ele>83.2</ele>
        <time>2018-04-09T18:24:30Z</time>
      </trkpt>
      <trkpt lat="62.632464900205" lon="17.976175366533">
        <ele>83.2</ele>
        <time>2018-04-09T18:24:31Z</time>
      </trkpt>
      <trkpt lat="62.632453836097" lon="17.976225825571">
        <ele>83.2</ele>
        <time>2018-04-09T18:24:32Z</time>
      </trkpt>
      <trkpt lat="62.632440927971" lon="17.976281481387">
        <ele>83.4</ele>
        <time>2018-04-09T18:24:33Z</time>
      </trkpt>
      <trkpt lat="62.632431707881" lon="17.976333449167">
        <ele>83.4</ele>
        <time>2018-04-09T18:24:34Z</time>
      </trkpt>
      <trkpt lat="62.632417458651" lon="17.976389859354">
        <ele>83.4</ele>
        <time>2018-04-09T18:24:35Z</time>
      </trkpt>
      <trkpt lat="62.632405388715" lon="17.976440234573">
        <ele>83.4</ele>
        <time>2018-04-09T18:24:36Z</time>
      </trkpt>
      <trkpt lat="62.632392061494" lon="17.976496393303">
        <ele>83.4</ele>
        <time>2018-04-09T18:24:37Z</time>
      </trkpt>
      <trkpt lat="62.632378231359" lon="17.976550121282">
        <ele>83.4</ele>
        <time>2018-04-09T18:24:38Z</time>
      </trkpt>
      <trkpt lat="62.632367670165" lon="17.976596221732">
        <ele>83.4</ele>
        <time>2018-04-09T18:24:39Z</time>
      </trkpt>
      <trkpt lat="62.632354091487" lon="17.97664751896">
        <ele>83.4</ele>
        <time>2018-04-09T18:24:40Z</time>
      </trkpt>
      <trkpt lat="62.632341853913" lon="17.976698397093">
        <ele>83.4</ele>
        <time>2018-04-09T18:24:41Z</time>
      </trkpt>
      <trkpt lat="62.632327688502" lon="17.976752963262">
        <ele>83.6</ele>
        <time>2018-04-09T18:24:42Z</time>
      </trkpt>
      <trkpt lat="62.632313858367" lon="17.976807864707">
        <ele>83.6</ele>
        <time>2018-04-09T18:24:43Z</time>
      </trkpt>
      <trkpt lat="62.632303380992" lon="17.976852624053">
        <ele>83.6</ele>
        <time>2018-04-09T18:24:44Z</time>
      </trkpt>
      <trkpt lat="62.632288042115" lon="17.976909620973">
        <ele>83.6</ele>
        <time>2018-04-09T18:24:45Z</time>
      </trkpt>
      <trkpt lat="62.632278570568" lon="17.976951614292">
        <ele>83.6</ele>
        <time>2018-04-09T18:24:46Z</time>
      </trkpt>
      <trkpt lat="62.632263147872" lon="17.977010371411">
        <ele>83.8</ele>
        <time>2018-04-09T18:24:47Z</time>
      </trkpt>
      <trkpt lat="62.63224990447" lon="17.977059489345">
        <ele>83.8</ele>
        <time>2018-04-09T18:24:48Z</time>
      </trkpt>
      <trkpt lat="62.632237080163" lon="17.977110283659">
        <ele>84</ele>
        <time>2018-04-09T18:24:49Z</time>
      </trkpt>
      <trkpt lat="62.632221489829" lon="17.977162083801">
        <ele>84</ele>
        <time>2018-04-09T18:24:50Z</time>
      </trkpt>
      <trkpt lat="62.632213694662" lon="17.977203071292">
        <ele>84</ele>
        <time>2018-04-09T18:24:51Z</time>
      </trkpt>
      <trkpt lat="62.632206989142" lon="17.977262247506">
        <ele>84</ele>
        <time>2018-04-09T18:24:52Z</time>
      </trkpt>
      <trkpt lat="62.632195505939" lon="17.977325111756">
        <ele>84</ele>
        <time>2018-04-09T18:24:53Z</time>
      </trkpt>
      <trkpt lat="62.632175640836" lon="17.977375235518">
        <ele>84.2</ele>
        <time>2018-04-09T18:24:54Z</time>
      </trkpt>
      <trkpt lat="62.632159547588" lon="17.977413876077">
        <ele>84.2</ele>
        <time>2018-04-09T18:24:55Z</time>
      </trkpt>
      <trkpt lat="62.632145382177" lon="17.977462658735">
        <ele>84.2</ele>
        <time>2018-04-09T18:24:56Z</time>
      </trkpt>
      <trkpt lat="62.632131132947" lon="17.977520661483">
        <ele>84.2</ele>
        <time>2018-04-09T18:24:57Z</time>
      </trkpt>
      <trkpt lat="62.632121493762" lon="17.977566510476">
        <ele>84.2</ele>
        <time>2018-04-09T18:24:58Z</time>
      </trkpt>
      <trkpt lat="62.632107579808" lon="17.977620825188">
        <ele>84.2</ele>
        <time>2018-04-09T18:24:59Z</time>
      </trkpt>
      <trkpt lat="62.632096683338" lon="17.977670446036">
        <ele>84.4</ele>
        <time>2018-04-09T18:25:00Z</time>
      </trkpt>
      <trkpt lat="62.632083356117" lon="17.977719731608">
        <ele>84.4</ele>
        <time>2018-04-09T18:25:01Z</time>
      </trkpt>
      <trkpt lat="62.632071118543" lon="17.977772202302">
        <ele>84.6</ele>
        <time>2018-04-09T18:25:02Z</time>
      </trkpt>
      <trkpt lat="62.632061060263" lon="17.977822074607">
        <ele>84.8</ele>
        <time>2018-04-09T18:25:03Z</time>
      </trkpt>
      <trkpt lat="62.632047816861" lon="17.977873707111">
        <ele>84.6</ele>
        <time>2018-04-09T18:25:04Z</time>
      </trkpt>
      <trkpt lat="62.632038093857" lon="17.977926345443">
        <ele>84.6</ele>
        <time>2018-04-09T18:25:05Z</time>
      </trkpt>
      <trkpt lat="62.632025018093" lon="17.977975966291">
        <ele>84.6</ele>
        <time>2018-04-09T18:25:06Z</time>
      </trkpt>
      <trkpt lat="62.632014205442" lon="17.978027598795">
        <ele>84.8</ele>
        <time>2018-04-09T18:25:07Z</time>
      </trkpt>
      <trkpt lat="62.63200180023" lon="17.978078141652">
        <ele>84.8</ele>
        <time>2018-04-09T18:25:08Z</time>
      </trkpt>
      <trkpt lat="62.631988975923" lon="17.978126589034">
        <ele>85</ele>
        <time>2018-04-09T18:25:09Z</time>
      </trkpt>
      <trkpt lat="62.631977408901" lon="17.978169420543">
        <ele>85</ele>
        <time>2018-04-09T18:25:10Z</time>
      </trkpt>
      <trkpt lat="62.631963327309" lon="17.978225495454">
        <ele>85</ele>
        <time>2018-04-09T18:25:11Z</time>
      </trkpt>
      <trkpt lat="62.631952179382" lon="17.97827444575">
        <ele>85</ele>
        <time>2018-04-09T18:25:12Z</time>
      </trkpt>
      <trkpt lat="62.631937175781" lon="17.978329011919">
        <ele>85.2</ele>
        <time>2018-04-09T18:25:13Z</time>
      </trkpt>
      <trkpt lat="62.631929296795" lon="17.978375112369">
        <ele>85.2</ele>
        <time>2018-04-09T18:25:14Z</time>
      </trkpt>
      <trkpt lat="62.631915382841" lon="17.978430516728">
        <ele>85.2</ele>
        <time>2018-04-09T18:25:15Z</time>
      </trkpt>
      <trkpt lat="62.631903564362" lon="17.978478377377">
        <ele>85.2</ele>
        <time>2018-04-09T18:25:16Z</time>
      </trkpt>
      <trkpt lat="62.631889985684" lon="17.978530764252">
        <ele>85.4</ele>
        <time>2018-04-09T18:25:17Z</time>
      </trkpt>
      <trkpt lat="62.631874898264" lon="17.978583570222">
        <ele>85.4</ele>
        <time>2018-04-09T18:25:18Z</time>
      </trkpt>
      <trkpt lat="62.631863247423" lon="17.978629335396">
        <ele>85.4</ele>
        <time>2018-04-09T18:25:19Z</time>
      </trkpt>
      <trkpt lat="62.63185260241" lon="17.978684572117">
        <ele>85.4</ele>
        <time>2018-04-09T18:25:20Z</time>
      </trkpt>
      <trkpt lat="62.631843298501" lon="17.978729750558">
        <ele>85.4</ele>
        <time>2018-04-09T18:25:21Z</time>
      </trkpt>
      <trkpt lat="62.63183248585" lon="17.978782891804">
        <ele>85.8</ele>
        <time>2018-04-09T18:25:22Z</time>
      </trkpt>
      <trkpt lat="62.631820248276" lon="17.978836200688">
        <ele>85.8</ele>
        <time>2018-04-09T18:25:23Z</time>
      </trkpt>
      <trkpt lat="62.631810357634" lon="17.978886240631">
        <ele>85.6</ele>
        <time>2018-04-09T18:25:24Z</time>
      </trkpt>
      <trkpt lat="62.631799209707" lon="17.97893493947">
        <ele>85.6</ele>
        <time>2018-04-09T18:25:25Z</time>
      </trkpt>
      <trkpt lat="62.631790827807" lon="17.978983805947">
        <ele>85.8</ele>
        <time>2018-04-09T18:25:26Z</time>
      </trkpt>
      <trkpt lat="62.6317780035" lon="17.979041557238">
        <ele>85.6</ele>
        <time>2018-04-09T18:25:27Z</time>
      </trkpt>
      <trkpt lat="62.631768029039" lon="17.979093189742">
        <ele>85.8</ele>
        <time>2018-04-09T18:25:28Z</time>
      </trkpt>
      <trkpt lat="62.6317612397" lon="17.979154209974">
        <ele>86</ele>
        <time>2018-04-09T18:25:29Z</time>
      </trkpt>
      <trkpt lat="62.631747744841" lon="17.979207854134">
        <ele>86</ele>
        <time>2018-04-09T18:25:30Z</time>
      </trkpt>
      <trkpt lat="62.63173944676" lon="17.979252026747">
        <ele>86</ele>
        <time>2018-04-09T18:25:31Z</time>
      </trkpt>
      <trkpt lat="62.631723185874" lon="17.979306760554">
        <ele>86</ele>
        <time>2018-04-09T18:25:32Z</time>
      </trkpt>
      <trkpt lat="62.631713881965" lon="17.979348586235">
        <ele>86.2</ele>
        <time>2018-04-09T18:25:33Z</time>
      </trkpt>
      <trkpt lat="62.631704997151" lon="17.979397955626">
        <ele>86.2</ele>
        <time>2018-04-09T18:25:34Z</time>
      </trkpt>
      <trkpt lat="62.631691083197" lon="17.979447744112">
        <ele>86.2</ele>
        <time>2018-04-09T18:25:35Z</time>
      </trkpt>
      <trkpt lat="62.63168161165" lon="17.979490827078">
        <ele>86.4</ele>
        <time>2018-04-09T18:25:36Z</time>
      </trkpt>
      <trkpt lat="62.631667613877" lon="17.979547404903">
        <ele>86.2</ele>
        <time>2018-04-09T18:25:37Z</time>
      </trkpt>
      <trkpt lat="62.631661746547" lon="17.979601384339">
        <ele>86.4</ele>
        <time>2018-04-09T18:25:38Z</time>
      </trkpt>
      <trkpt lat="62.631646156213" lon="17.979657207793">
        <ele>86.4</ele>
        <time>2018-04-09T18:25:39Z</time>
      </trkpt>
      <trkpt lat="62.631635678838" lon="17.979702889148">
        <ele>86.2</ele>
        <time>2018-04-09T18:25:40Z</time>
      </trkpt>
      <trkpt lat="62.631619501771" lon="17.97975133653">
        <ele>86.4</ele>
        <time>2018-04-09T18:25:41Z</time>
      </trkpt>
      <trkpt lat="62.631599720487" lon="17.979790228546">
        <ele>86.6</ele>
        <time>2018-04-09T18:25:42Z</time>
      </trkpt>
      <trkpt lat="62.631581280307" lon="17.979826605992">
        <ele>86.6</ele>
        <time>2018-04-09T18:25:43Z</time>
      </trkpt>
      <trkpt lat="62.63156426505" lon="17.979870024234">
        <ele>86.6</ele>
        <time>2018-04-09T18:25:44Z</time>
      </trkpt>
      <trkpt lat="62.63155001582" lon="17.979913526295">
        <ele>86.6</ele>
        <time>2018-04-09T18:25:45Z</time>
      </trkpt>
      <trkpt lat="62.63153409021" lon="17.979953256501">
        <ele>86.6</ele>
        <time>2018-04-09T18:25:46Z</time>
      </trkpt>
      <trkpt lat="62.631519505704" lon="17.980004050815">
        <ele>86.8</ele>
        <time>2018-04-09T18:25:47Z</time>
      </trkpt>
      <trkpt lat="62.631508860691" lon="17.980054258396">
        <ele>86.6</ele>
        <time>2018-04-09T18:25:48Z</time>
      </trkpt>
      <trkpt lat="62.631499053868" lon="17.980109578936">
        <ele>86.8</ele>
        <time>2018-04-09T18:25:49Z</time>
      </trkpt>
      <trkpt lat="62.631485978104" lon="17.980164480381">
        <ele>86.8</ele>
        <time>2018-04-09T18:25:51Z</time>
      </trkpt>
      <trkpt lat="62.631481870973" lon="17.980179567801">
        <ele>86.6</ele>
        <time>2018-04-09T18:25:52Z</time>
      </trkpt>
      <trkpt lat="62.631477847661" lon="17.980182333828">
        <ele>86.6</ele>
        <time>2018-04-09T18:25:53Z</time>
      </trkpt>
      <trkpt lat="62.631484385543" lon="17.980173868109">
        <ele>86.6</ele>
        <time>2018-04-09T18:25:54Z</time>
      </trkpt>
      <trkpt lat="62.631583291963" lon="17.979874215184">
        <ele>86.2</ele>
        <time>2018-04-09T18:27:25Z</time>
      </trkpt>
      <trkpt lat="62.631596786822" lon="17.979824091422">
        <ele>86.2</ele>
        <time>2018-04-09T18:27:26Z</time>
      </trkpt>
      <trkpt lat="62.631613382984" lon="17.979754354014">
        <ele>86.2</ele>
        <time>2018-04-09T18:27:27Z</time>
      </trkpt>
      <trkpt lat="62.631629811508" lon="17.979696351266">
        <ele>86.2</ele>
        <time>2018-04-09T18:27:28Z</time>
      </trkpt>
      <trkpt lat="62.631643390186" lon="17.979646730418">
        <ele>86.4</ele>
        <time>2018-04-09T18:27:29Z</time>
      </trkpt>
      <trkpt lat="62.631658729063" lon="17.979580010494">
        <ele>86.8</ele>
        <time>2018-04-09T18:27:30Z</time>
      </trkpt>
      <trkpt lat="62.631669122619" lon="17.979532317483">
        <ele>86.8</ele>
        <time>2018-04-09T18:27:31Z</time>
      </trkpt>
      <trkpt lat="62.631686892247" lon="17.979450258682">
        <ele>86.8</ele>
        <time>2018-04-09T18:27:32Z</time>
      </trkpt>
      <trkpt lat="62.631696363794" lon="17.979386472423">
        <ele>86.8</ele>
        <time>2018-04-09T18:27:33Z</time>
      </trkpt>
      <trkpt lat="62.631712037947" lon="17.979333582634">
        <ele>86.6</ele>
        <time>2018-04-09T18:27:34Z</time>
      </trkpt>
      <trkpt lat="62.631722934417" lon="17.979272227126">
        <ele>86.4</ele>
        <time>2018-04-09T18:27:35Z</time>
      </trkpt>
      <trkpt lat="62.631741458416" lon="17.979218750604">
        <ele>86.2</ele>
        <time>2018-04-09T18:27:36Z</time>
      </trkpt>
      <trkpt lat="62.631755791465" lon="17.979152952689">
        <ele>86.2</ele>
        <time>2018-04-09T18:27:37Z</time>
      </trkpt>
      <trkpt lat="62.631770627428" lon="17.979091513362">
        <ele>85.8</ele>
        <time>2018-04-09T18:27:38Z</time>
      </trkpt>
      <trkpt lat="62.631782781183" lon="17.979037282469">
        <ele>85.6</ele>
        <time>2018-04-09T18:27:39Z</time>
      </trkpt>
      <trkpt lat="62.631794432024" lon="17.978977016608">
        <ele>85.6</ele>
        <time>2018-04-09T18:27:40Z</time>
      </trkpt>
      <trkpt lat="62.631807843064" lon="17.978921025516">
        <ele>85.8</ele>
        <time>2018-04-09T18:27:41Z</time>
      </trkpt>
      <trkpt lat="62.631821421742" lon="17.978857490714">
        <ele>85.8</ele>
        <time>2018-04-09T18:27:42Z</time>
      </trkpt>
      <trkpt lat="62.631832821126" lon="17.978802421631">
        <ele>85.8</ele>
        <time>2018-04-09T18:27:43Z</time>
      </trkpt>
      <trkpt lat="62.631842711768" lon="17.978736120802">
        <ele>85.6</ele>
        <time>2018-04-09T18:27:44Z</time>
      </trkpt>
      <trkpt lat="62.631853692057" lon="17.978668897964">
        <ele>85.4</ele>
        <time>2018-04-09T18:27:45Z</time>
      </trkpt>
      <trkpt lat="62.63186349888" lon="17.978616930184">
        <ele>85.2</ele>
        <time>2018-04-09T18:27:46Z</time>
      </trkpt>
      <trkpt lat="62.631876993739" lon="17.978549791165">
        <ele>85</ele>
        <time>2018-04-09T18:27:47Z</time>
      </trkpt>
      <trkpt lat="62.631889901865" lon="17.978492542788">
        <ele>85.2</ele>
        <time>2018-04-09T18:27:48Z</time>
      </trkpt>
      <trkpt lat="62.631904821647" lon="17.978429007986">
        <ele>85.4</ele>
        <time>2018-04-09T18:27:49Z</time>
      </trkpt>
      <trkpt lat="62.631916723945" lon="17.978365305546">
        <ele>85.2</ele>
        <time>2018-04-09T18:27:50Z</time>
      </trkpt>
      <trkpt lat="62.631925860216" lon="17.978309901187">
        <ele>85.2</ele>
        <time>2018-04-09T18:27:51Z</time>
      </trkpt>
      <trkpt lat="62.63194061236" lon="17.978249216231">
        <ele>85</ele>
        <time>2018-04-09T18:27:52Z</time>
      </trkpt>
      <trkpt lat="62.631952263201" lon="17.978193057501">
        <ele>85</ele>
        <time>2018-04-09T18:27:53Z</time>
      </trkpt>
      <trkpt lat="62.631970871019" lon="17.978139832436">
        <ele>84.8</ele>
        <time>2018-04-09T18:27:54Z</time>
      </trkpt>
      <trkpt lat="62.631981599851" lon="17.978078476928">
        <ele>84.8</ele>
        <time>2018-04-09T18:27:55Z</time>
      </trkpt>
      <trkpt lat="62.631994759434" lon="17.978012343737">
        <ele>84.8</ele>
        <time>2018-04-09T18:27:56Z</time>
      </trkpt>
      <trkpt lat="62.632006997008" lon="17.977951994057">
        <ele>84.8</ele>
        <time>2018-04-09T18:27:57Z</time>
      </trkpt>
      <trkpt lat="62.632018228754" lon="17.977894913318">
        <ele>84.8</ele>
        <time>2018-04-09T18:27:58Z</time>
      </trkpt>
      <trkpt lat="62.632032729441" lon="17.977832384344">
        <ele>84.8</ele>
        <time>2018-04-09T18:27:59Z</time>
      </trkpt>
      <trkpt lat="62.632042955359" lon="17.977777147623">
        <ele>84.6</ele>
        <time>2018-04-09T18:28:00Z</time>
      </trkpt>
      <trkpt lat="62.632059048607" lon="17.977724174015">
        <ele>84.4</ele>
        <time>2018-04-09T18:28:01Z</time>
      </trkpt>
      <trkpt lat="62.632070699448" lon="17.977666087448">
        <ele>84.4</ele>
        <time>2018-04-09T18:28:02Z</time>
      </trkpt>
      <trkpt lat="62.632084194307" lon="17.977597858782">
        <ele>84.2</ele>
        <time>2018-04-09T18:28:03Z</time>
      </trkpt>
      <trkpt lat="62.6320965157" lon="17.977548908486">
        <ele>84</ele>
        <time>2018-04-09T18:28:04Z</time>
      </trkpt>
      <trkpt lat="62.632112022215" lon="17.977487301521">
        <ele>84</ele>
        <time>2018-04-09T18:28:05Z</time>
      </trkpt>
      <trkpt lat="62.632124678884" lon="17.977434747008">
        <ele>84</ele>
        <time>2018-04-09T18:28:06Z</time>
      </trkpt>
      <trkpt lat="62.632138173743" lon="17.977380516115">
        <ele>83.8</ele>
        <time>2018-04-09T18:28:07Z</time>
      </trkpt>
      <trkpt lat="62.632151920059" lon="17.977325363213">
        <ele>84</ele>
        <time>2018-04-09T18:28:08Z</time>
      </trkpt>
      <trkpt lat="62.632161810701" lon="17.977272054329">
        <ele>83.8</ele>
        <time>2018-04-09T18:28:09Z</time>
      </trkpt>
      <trkpt lat="62.632176227569" lon="17.977211285554">
        <ele>83.6</ele>
        <time>2018-04-09T18:28:10Z</time>
      </trkpt>
      <trkpt lat="62.632186956401" lon="17.977164346914">
        <ele>83.6</ele>
        <time>2018-04-09T18:28:11Z</time>
      </trkpt>
      <trkpt lat="62.632203049649" lon="17.977105925071">
        <ele>83.8</ele>
        <time>2018-04-09T18:28:12Z</time>
      </trkpt>
      <trkpt lat="62.632215035766" lon="17.97705990844">
        <ele>83.6</ele>
        <time>2018-04-09T18:28:13Z</time>
      </trkpt>
      <trkpt lat="62.632227943892" lon="17.977001151321">
        <ele>83.6</ele>
        <time>2018-04-09T18:28:14Z</time>
      </trkpt>
      <trkpt lat="62.632239930009" lon="17.976945746962">
        <ele>83.6</ele>
        <time>2018-04-09T18:28:15Z</time>
      </trkpt>
      <trkpt lat="62.632247725176" lon="17.976895790838">
        <ele>83.4</ele>
        <time>2018-04-09T18:28:16Z</time>
      </trkpt>
      <trkpt lat="62.632260381845" lon="17.976825718154">
        <ele>83.2</ele>
        <time>2018-04-09T18:28:17Z</time>
      </trkpt>
      <trkpt lat="62.632271865048" lon="17.976768637415">
        <ele>83.2</ele>
        <time>2018-04-09T18:28:18Z</time>
      </trkpt>
      <trkpt lat="62.632283096794" lon="17.976706359898">
        <ele>83</ele>
        <time>2018-04-09T18:28:19Z</time>
      </trkpt>
      <trkpt lat="62.632294747635" lon="17.976654727394">
        <ele>83</ele>
        <time>2018-04-09T18:28:20Z</time>
      </trkpt>
      <trkpt lat="62.632306733752" lon="17.976598820121">
        <ele>83</ele>
        <time>2018-04-09T18:28:21Z</time>
      </trkpt>
      <trkpt lat="62.632319893335" lon="17.976542074658">
        <ele>83.2</ele>
        <time>2018-04-09T18:28:22Z</time>
      </trkpt>
      <trkpt lat="62.632331125081" lon="17.976478456037">
        <ele>83.2</ele>
        <time>2018-04-09T18:28:23Z</time>
      </trkpt>
      <trkpt lat="62.632343362655" lon="17.976417268167">
        <ele>83.2</ele>
        <time>2018-04-09T18:28:24Z</time>
      </trkpt>
      <trkpt lat="62.632354259125" lon="17.976364881292">
        <ele>83</ele>
        <time>2018-04-09T18:28:25Z</time>
      </trkpt>
      <trkpt lat="62.632365742328" lon="17.976304196336">
        <ele>82.8</ele>
        <time>2018-04-09T18:28:26Z</time>
      </trkpt>
      <trkpt lat="62.632376303522" lon="17.976249881624">
        <ele>82.6</ele>
        <time>2018-04-09T18:28:27Z</time>
      </trkpt>
      <trkpt lat="62.632384936879" lon="17.976192717066">
        <ele>82.8</ele>
        <time>2018-04-09T18:28:28Z</time>
      </trkpt>
      <trkpt lat="62.632398431738" lon="17.976132115929">
        <ele>82.8</ele>
        <time>2018-04-09T18:28:29Z</time>
      </trkpt>
      <trkpt lat="62.632409495846" lon="17.976073945543">
        <ele>82.8</ele>
        <time>2018-04-09T18:28:30Z</time>
      </trkpt>
      <trkpt lat="62.632420224678" lon="17.976009824008">
        <ele>82.8</ele>
        <time>2018-04-09T18:28:31Z</time>
      </trkpt>
      <trkpt lat="62.632433216623" lon="17.975950731613">
        <ele>82.8</ele>
        <time>2018-04-09T18:28:32Z</time>
      </trkpt>
      <trkpt lat="62.632448387862" lon="17.975887867363">
        <ele>82.8</ele>
        <time>2018-04-09T18:28:33Z</time>
      </trkpt>
      <trkpt lat="62.632458697599" lon="17.975833385013">
        <ele>82.6</ele>
        <time>2018-04-09T18:28:34Z</time>
      </trkpt>
      <trkpt lat="62.632479987625" lon="17.975784434717">
        <ele>82.6</ele>
        <time>2018-04-09T18:28:35Z</time>
      </trkpt>
      <trkpt lat="62.632494153036" lon="17.975738334267">
        <ele>82.6</ele>
        <time>2018-04-09T18:28:36Z</time>
      </trkpt>
      <trkpt lat="62.632508988999" lon="17.975674883284">
        <ele>82.6</ele>
        <time>2018-04-09T18:28:37Z</time>
      </trkpt>
      <trkpt lat="62.632521813306" lon="17.975615287975">
        <ele>82.6</ele>
        <time>2018-04-09T18:28:38Z</time>
      </trkpt>
      <trkpt lat="62.632535224346" lon="17.975562230548">
        <ele>82.6</ele>
        <time>2018-04-09T18:28:39Z</time>
      </trkpt>
      <trkpt lat="62.6325491383" lon="17.975497019366">
        <ele>82.6</ele>
        <time>2018-04-09T18:28:40Z</time>
      </trkpt>
      <trkpt lat="62.632558777485" lon="17.975451170373">
        <ele>82.4</ele>
        <time>2018-04-09T18:28:41Z</time>
      </trkpt>
      <trkpt lat="62.632571350335" lon="17.975382774069">
        <ele>82.4</ele>
        <time>2018-04-09T18:28:42Z</time>
      </trkpt>
      <trkpt lat="62.632583671728" lon="17.975331644479">
        <ele>82.4</ele>
        <time>2018-04-09T18:28:43Z</time>
      </trkpt>
      <trkpt lat="62.632596831311" lon="17.975270456609">
        <ele>82.4</ele>
        <time>2018-04-09T18:28:44Z</time>
      </trkpt>
      <trkpt lat="62.632608314514" lon="17.975211615671">
        <ele>82.2</ele>
        <time>2018-04-09T18:28:45Z</time>
      </trkpt>
      <trkpt lat="62.632618288975" lon="17.975158306787">
        <ele>82.2</ele>
        <time>2018-04-09T18:28:46Z</time>
      </trkpt>
      <trkpt lat="62.632632454386" lon="17.975094436709">
        <ele>82.2</ele>
        <time>2018-04-09T18:28:47Z</time>
      </trkpt>
      <trkpt lat="62.632642009752" lon="17.975035009038">
        <ele>82</ele>
        <time>2018-04-09T18:28:48Z</time>
      </trkpt>
      <trkpt lat="62.632657180991" lon="17.974977676842">
        <ele>82</ele>
        <time>2018-04-09T18:28:49Z</time>
      </trkpt>
      <trkpt lat="62.632666317262" lon="17.974923278311">
        <ele>82</ele>
        <time>2018-04-09T18:28:50Z</time>
      </trkpt>
      <trkpt lat="62.63267905775" lon="17.974869382694">
        <ele>82</ele>
        <time>2018-04-09T18:28:51Z</time>
      </trkpt>
      <trkpt lat="62.632693474618" lon="17.974808362462">
        <ele>82</ele>
        <time>2018-04-09T18:28:52Z</time>
      </trkpt>
      <trkpt lat="62.632707137115" lon="17.974745330574">
        <ele>82</ele>
        <time>2018-04-09T18:28:53Z</time>
      </trkpt>
      <trkpt lat="62.632722224535" lon="17.974689590939">
        <ele>82</ele>
        <time>2018-04-09T18:28:54Z</time>
      </trkpt>
      <trkpt lat="62.632733791557" lon="17.974638126073">
        <ele>82</ele>
        <time>2018-04-09T18:28:55Z</time>
      </trkpt>
      <trkpt lat="62.632749130434" lon="17.974582051162">
        <ele>81.8</ele>
        <time>2018-04-09T18:28:56Z</time>
      </trkpt>
      <trkpt lat="62.632764636949" lon="17.974522372034">
        <ele>81.8</ele>
        <time>2018-04-09T18:28:57Z</time>
      </trkpt>
      <trkpt lat="62.63277712598" lon="17.974471158625">
        <ele>81.8</ele>
        <time>2018-04-09T18:28:58Z</time>
      </trkpt>
      <trkpt lat="62.632794392694" lon="17.974421118682">
        <ele>81.8</ele>
        <time>2018-04-09T18:28:59Z</time>
      </trkpt>
      <trkpt lat="62.632812665236" lon="17.974365295228">
        <ele>81.8</ele>
        <time>2018-04-09T18:29:00Z</time>
      </trkpt>
      <trkpt lat="62.632827501199" lon="17.974320368244">
        <ele>81.8</ele>
        <time>2018-04-09T18:29:01Z</time>
      </trkpt>
      <trkpt lat="62.632839822592" lon="17.974261778763">
        <ele>81.8</ele>
        <time>2018-04-09T18:29:02Z</time>
      </trkpt>
      <trkpt lat="62.632857843677" lon="17.974200171798">
        <ele>81.8</ele>
        <time>2018-04-09T18:29:03Z</time>
      </trkpt>
      <trkpt lat="62.632870332708" lon="17.974149042208">
        <ele>81.8</ele>
        <time>2018-04-09T18:29:04Z</time>
      </trkpt>
      <trkpt lat="62.632885336309" lon="17.974091458555">
        <ele>81.6</ele>
        <time>2018-04-09T18:29:05Z</time>
      </trkpt>
      <trkpt lat="62.632897573883" lon="17.974039742232">
        <ele>81.6</ele>
        <time>2018-04-09T18:29:06Z</time>
      </trkpt>
      <trkpt lat="62.632908386534" lon="17.973983080588">
        <ele>81.6</ele>
        <time>2018-04-09T18:29:07Z</time>
      </trkpt>
      <trkpt lat="62.632925234153" lon="17.973932118636">
        <ele>81.4</ele>
        <time>2018-04-09T18:29:08Z</time>
      </trkpt>
      <trkpt lat="62.632938226098" lon="17.97388484472">
        <ele>81.4</ele>
        <time>2018-04-09T18:29:09Z</time>
      </trkpt>
      <trkpt lat="62.632953564975" lon="17.97383203875">
        <ele>81.4</ele>
        <time>2018-04-09T18:29:10Z</time>
      </trkpt>
      <trkpt lat="62.632963707074" lon="17.973781160617">
        <ele>81.4</ele>
        <time>2018-04-09T18:29:11Z</time>
      </trkpt>
      <trkpt lat="62.632980051779" lon="17.973724498973">
        <ele>81.4</ele>
        <time>2018-04-09T18:29:12Z</time>
      </trkpt>
      <trkpt lat="62.632990277697" lon="17.97366775351">
        <ele>81.4</ele>
        <time>2018-04-09T18:29:13Z</time>
      </trkpt>
      <trkpt lat="62.633003604918" lon="17.973611678599">
        <ele>81.4</ele>
        <time>2018-04-09T18:29:14Z</time>
      </trkpt>
      <trkpt lat="62.633018692338" lon="17.973555268412">
        <ele>81.4</ele>
        <time>2018-04-09T18:29:15Z</time>
      </trkpt>
      <trkpt lat="62.633026822781" lon="17.973515538206">
        <ele>81.2</ele>
        <time>2018-04-09T18:29:16Z</time>
      </trkpt>
      <trkpt lat="62.633041072011" lon="17.973443286228">
        <ele>81</ele>
        <time>2018-04-09T18:29:17Z</time>
      </trkpt>
      <trkpt lat="62.63305289049" lon="17.973380170521">
        <ele>81</ele>
        <time>2018-04-09T18:29:18Z</time>
      </trkpt>
      <trkpt lat="62.633062864951" lon="17.973323760334">
        <ele>81</ele>
        <time>2018-04-09T18:29:19Z</time>
      </trkpt>
      <trkpt lat="62.63307887438" lon="17.973272630744">
        <ele>80.6</ele>
        <time>2018-04-09T18:29:20Z</time>
      </trkpt>
      <trkpt lat="62.633088848841" lon="17.973230637425">
        <ele>80.6</ele>
        <time>2018-04-09T18:29:21Z</time>
      </trkpt>
      <trkpt lat="62.633102511338" lon="17.973165510062">
        <ele>80.4</ele>
        <time>2018-04-09T18:29:22Z</time>
      </trkpt>
      <trkpt lat="62.633115503283" lon="17.973112536454">
        <ele>80.4</ele>
        <time>2018-04-09T18:29:23Z</time>
      </trkpt>
      <trkpt lat="62.633125058649" lon="17.973054533706">
        <ele>80.2</ele>
        <time>2018-04-09T18:29:24Z</time>
      </trkpt>
      <trkpt lat="62.633133943463" lon="17.972989071067">
        <ele>80.2</ele>
        <time>2018-04-09T18:29:25Z</time>
      </trkpt>
      <trkpt lat="62.633143582648" lon="17.972938863486">
        <ele>80.2</ele>
        <time>2018-04-09T18:29:26Z</time>
      </trkpt>
      <trkpt lat="62.633160597905" lon="17.972879771091">
        <ele>80.2</ele>
        <time>2018-04-09T18:29:27Z</time>
      </trkpt>
      <trkpt lat="62.633168979805" lon="17.972825791655">
        <ele>80.2</ele>
        <time>2018-04-09T18:29:28Z</time>
      </trkpt>
      <trkpt lat="62.63318280994" lon="17.972757646808">
        <ele>80</ele>
        <time>2018-04-09T18:29:29Z</time>
      </trkpt>
      <trkpt lat="62.633197142989" lon="17.972698722051">
        <ele>80</ele>
        <time>2018-04-09T18:29:30Z</time>
      </trkpt>
      <trkpt lat="62.633203680871" lon="17.972637869457">
        <ele>79.8</ele>
        <time>2018-04-09T18:29:31Z</time>
      </trkpt>
      <trkpt lat="62.633221785775" lon="17.972579447614">
        <ele>79.8</ele>
        <time>2018-04-09T18:29:32Z</time>
      </trkpt>
      <trkpt lat="62.633229664761" lon="17.972520019943">
        <ele>79.8</ele>
        <time>2018-04-09T18:29:33Z</time>
      </trkpt>
      <trkpt lat="62.633243578715" lon="17.97246411267">
        <ele>79.6</ele>
        <time>2018-04-09T18:29:34Z</time>
      </trkpt>
      <trkpt lat="62.633253134081" lon="17.972405774646">
        <ele>79.6</ele>
        <time>2018-04-09T18:29:35Z</time>
      </trkpt>
      <trkpt lat="62.633268221501" lon="17.972352130486">
        <ele>79.4</ele>
        <time>2018-04-09T18:29:36Z</time>
      </trkpt>
      <trkpt lat="62.633285739672" lon="17.972290942616">
        <ele>79.6</ele>
        <time>2018-04-09T18:29:37Z</time>
      </trkpt>
      <trkpt lat="62.633297809608" lon="17.97224283051">
        <ele>79.2</ele>
        <time>2018-04-09T18:29:38Z</time>
      </trkpt>
      <trkpt lat="62.633308203164" lon="17.972177703147">
        <ele>79</ele>
        <time>2018-04-09T18:29:39Z</time>
      </trkpt>
      <trkpt lat="62.633315579236" lon="17.972123388435">
        <ele>79</ele>
        <time>2018-04-09T18:29:40Z</time>
      </trkpt>
      <trkpt lat="62.633325386059" lon="17.97206848699">
        <ele>79</ele>
        <time>2018-04-09T18:29:41Z</time>
      </trkpt>
      <trkpt lat="62.633335695796" lon="17.97200562274">
        <ele>79</ele>
        <time>2018-04-09T18:29:42Z</time>
      </trkpt>
      <trkpt lat="62.633340473479" lon="17.971955079883">
        <ele>78.8</ele>
        <time>2018-04-09T18:29:43Z</time>
      </trkpt>
      <trkpt lat="62.633349274474" lon="17.971889281968">
        <ele>78.8</ele>
        <time>2018-04-09T18:29:44Z</time>
      </trkpt>
      <trkpt lat="62.633356566727" lon="17.971835302532">
        <ele>78.8</ele>
        <time>2018-04-09T18:29:45Z</time>
      </trkpt>
      <trkpt lat="62.633363607523" lon="17.97177595868">
        <ele>78.6</ele>
        <time>2018-04-09T18:29:46Z</time>
      </trkpt>
      <trkpt lat="62.633368636663" lon="17.971709238756">
        <ele>78.6</ele>
        <time>2018-04-09T18:29:47Z</time>
      </trkpt>
      <trkpt lat="62.633376767106" lon="17.971653163845">
        <ele>78.4</ele>
        <time>2018-04-09T18:29:48Z</time>
      </trkpt>
      <trkpt lat="62.633380958056" lon="17.971591473061">
        <ele>78.4</ele>
        <time>2018-04-09T18:29:49Z</time>
      </trkpt>
      <trkpt lat="62.633383304988" lon="17.971537828901">
        <ele>78.4</ele>
        <time>2018-04-09T18:29:50Z</time>
      </trkpt>
      <trkpt lat="62.633387412119" lon="17.9714809158">
        <ele>78.4</ele>
        <time>2018-04-09T18:29:51Z</time>
      </trkpt>
      <trkpt lat="62.63338984287" lon="17.971422913052">
        <ele>78.2</ele>
        <time>2018-04-09T18:29:52Z</time>
      </trkpt>
      <trkpt lat="62.63339235744" lon="17.97136524558">
        <ele>78</ele>
        <time>2018-04-09T18:29:53Z</time>
      </trkpt>
      <trkpt lat="62.633396967485" lon="17.971304812081">
        <ele>78</ele>
        <time>2018-04-09T18:29:54Z</time>
      </trkpt>
      <trkpt lat="62.633397638037" lon="17.971251922292">
        <ele>78</ele>
        <time>2018-04-09T18:29:55Z</time>
      </trkpt>
      <trkpt lat="62.633398727684" lon="17.971191069698">
        <ele>77.8</ele>
        <time>2018-04-09T18:29:56Z</time>
      </trkpt>
      <trkpt lat="62.633399314417" lon="17.971135078606">
        <ele>77.6</ele>
        <time>2018-04-09T18:29:57Z</time>
      </trkpt>
      <trkpt lat="62.633400655521" lon="17.971079171333">
        <ele>77.4</ele>
        <time>2018-04-09T18:29:58Z</time>
      </trkpt>
      <trkpt lat="62.633401242254" lon="17.971014463065">
        <ele>77.4</ele>
        <time>2018-04-09T18:29:59Z</time>
      </trkpt>
      <trkpt lat="62.633401242254" lon="17.970957717602">
        <ele>77.2</ele>
        <time>2018-04-09T18:30:00Z</time>
      </trkpt>
      <trkpt lat="62.633400487883" lon="17.970896362094">
        <ele>77</ele>
        <time>2018-04-09T18:30:01Z</time>
      </trkpt>
      <trkpt lat="62.633399146779" lon="17.970836599147">
        <ele>77</ele>
        <time>2018-04-09T18:30:02Z</time>
      </trkpt>
      <trkpt lat="62.633401326073" lon="17.970766526463">
        <ele>77</ele>
        <time>2018-04-09T18:30:03Z</time>
      </trkpt>
      <trkpt lat="62.633395794019" lon="17.970715480692">
        <ele>77</ele>
        <time>2018-04-09T18:30:04Z</time>
      </trkpt>
      <trkpt lat="62.633389591413" lon="17.97064775494">
        <ele>77</ele>
        <time>2018-04-09T18:30:05Z</time>
      </trkpt>
      <trkpt lat="62.633387747395" lon="17.970590003649">
        <ele>77</ele>
        <time>2018-04-09T18:30:06Z</time>
      </trkpt>
      <trkpt lat="62.633383221169" lon="17.970527390856">
        <ele>76.8</ele>
        <time>2018-04-09T18:30:07Z</time>
      </trkpt>
      <trkpt lat="62.633380790418" lon="17.97046586771">
        <ele>76.6</ele>
        <time>2018-04-09T18:30:08Z</time>
      </trkpt>
      <trkpt lat="62.633377772934" lon="17.97041306174">
        <ele>76.6</ele>
        <time>2018-04-09T18:30:09Z</time>
      </trkpt>
      <trkpt lat="62.633375845097" lon="17.970352879698">
        <ele>76.4</ele>
        <time>2018-04-09T18:30:10Z</time>
      </trkpt>
      <trkpt lat="62.633373749622" lon="17.970302085384">
        <ele>76.2</ele>
        <time>2018-04-09T18:30:11Z</time>
      </trkpt>
      <trkpt lat="62.633371905604" lon="17.970253051269">
        <ele>76.2</ele>
        <time>2018-04-09T18:30:12Z</time>
      </trkpt>
      <trkpt lat="62.633372073242" lon="17.970216673823">
        <ele>76.2</ele>
        <time>2018-04-09T18:30:13Z</time>
      </trkpt>
      <trkpt lat="62.633369977767" lon="17.97018926501">
        <ele>76</ele>
        <time>2018-04-09T18:30:14Z</time>
      </trkpt>
      <trkpt lat="62.633364613351" lon="17.970192450132">
        <ele>75.6</ele>
        <time>2018-04-09T18:30:15Z</time>
      </trkpt>
      <trkpt lat="62.633355393261" lon="17.970187253354">
        <ele>75.4</ele>
        <time>2018-04-09T18:30:16Z</time>
      </trkpt>
      <trkpt lat="62.633348939198" lon="17.970192701589">
        <ele>75.4</ele>
        <time>2018-04-09T18:30:17Z</time>
      </trkpt>
      <trkpt lat="62.633334606149" lon="17.970210638855">
        <ele>75</ele>
        <time>2018-04-09T18:30:19Z</time>
      </trkpt>
      <trkpt lat="62.633331421027" lon="17.970221283868">
        <ele>75</ele>
        <time>2018-04-09T18:30:20Z</time>
      </trkpt>
      <trkpt lat="62.633332259217" lon="17.970236287469">
        <ele>75.2</ele>
        <time>2018-04-09T18:30:21Z</time>
      </trkpt>
      <trkpt lat="62.633332762131" lon="17.970240226962">
        <ele>75.2</ele>
        <time>2018-04-09T18:30:22Z</time>
      </trkpt>
      <trkpt lat="62.633329577009" lon="17.970237377116">
        <ele>75.4</ele>
        <time>2018-04-09T18:30:23Z</time>
      </trkpt>
      <trkpt lat="62.633409456516" lon="17.970581705568">
        <ele>74.8</ele>
        <time>2018-04-09T18:33:08Z</time>
      </trkpt>
      <trkpt lat="62.633411384353" lon="17.970644234542">
        <ele>74.8</ele>
        <time>2018-04-09T18:33:09Z</time>
      </trkpt>
      <trkpt lat="62.633413563647" lon="17.970704332765">
        <ele>74.8</ele>
        <time>2018-04-09T18:33:10Z</time>
      </trkpt>
      <trkpt lat="62.633417419321" lon="17.970775411277">
        <ele>74.8</ele>
        <time>2018-04-09T18:33:11Z</time>
      </trkpt>
      <trkpt lat="62.633419850072" lon="17.970840119545">
        <ele>74.8</ele>
        <time>2018-04-09T18:33:12Z</time>
      </trkpt>
      <trkpt lat="62.633422197004" lon="17.970906588012">
        <ele>75</ele>
        <time>2018-04-09T18:33:13Z</time>
      </trkpt>
      <trkpt lat="62.633425214488" lon="17.97097297266">
        <ele>75.2</ele>
        <time>2018-04-09T18:33:14Z</time>
      </trkpt>
      <trkpt lat="62.633428148153" lon="17.971031562141">
        <ele>75.4</ele>
        <time>2018-04-09T18:33:15Z</time>
      </trkpt>
      <trkpt lat="62.633429656895" lon="17.971100293721">
        <ele>75.8</ele>
        <time>2018-04-09T18:33:16Z</time>
      </trkpt>
      <trkpt lat="62.633430830361" lon="17.971167600378">
        <ele>76.2</ele>
        <time>2018-04-09T18:33:17Z</time>
      </trkpt>
      <trkpt lat="62.633431836189" lon="17.971228955886">
        <ele>76.6</ele>
        <time>2018-04-09T18:33:18Z</time>
      </trkpt>
      <trkpt lat="62.633431920008" lon="17.971291820136">
        <ele>77</ele>
        <time>2018-04-09T18:33:19Z</time>
      </trkpt>
      <trkpt lat="62.633431417094" lon="17.971350912531">
        <ele>77.2</ele>
        <time>2018-04-09T18:33:20Z</time>
      </trkpt>
      <trkpt lat="62.633428734886" lon="17.971414866428">
        <ele>77.2</ele>
        <time>2018-04-09T18:33:21Z</time>
      </trkpt>
      <trkpt lat="62.633426555592" lon="17.971474294099">
        <ele>77</ele>
        <time>2018-04-09T18:33:22Z</time>
      </trkpt>
      <trkpt lat="62.633424376298" lon="17.971540511109">
        <ele>76.8</ele>
        <time>2018-04-09T18:33:23Z</time>
      </trkpt>
      <trkpt lat="62.63342253228" lon="17.971601866617">
        <ele>76.4</ele>
        <time>2018-04-09T18:33:24Z</time>
      </trkpt>
      <trkpt lat="62.633419011882" lon="17.97166028846">
        <ele>76.2</ele>
        <time>2018-04-09T18:33:25Z</time>
      </trkpt>
      <trkpt lat="62.633414318018" lon="17.971725834918">
        <ele>76.2</ele>
        <time>2018-04-09T18:33:26Z</time>
      </trkpt>
      <trkpt lat="62.633410378525" lon="17.971787609521">
        <ele>76.2</ele>
        <time>2018-04-09T18:33:27Z</time>
      </trkpt>
      <trkpt lat="62.633405349385" lon="17.971853994169">
        <ele>76.4</ele>
        <time>2018-04-09T18:33:28Z</time>
      </trkpt>
      <trkpt lat="62.63340073934" lon="17.971917109876">
        <ele>76.4</ele>
        <time>2018-04-09T18:33:29Z</time>
      </trkpt>
      <trkpt lat="62.633394704372" lon="17.971976537547">
        <ele>76.6</ele>
        <time>2018-04-09T18:33:30Z</time>
      </trkpt>
      <trkpt lat="62.633389256137" lon="17.972040239987">
        <ele>76.8</ele>
        <time>2018-04-09T18:33:31Z</time>
      </trkpt>
      <trkpt lat="62.633379281676" lon="17.972101679314">
        <ele>77.2</ele>
        <time>2018-04-09T18:33:32Z</time>
      </trkpt>
      <trkpt lat="62.633370815957" lon="17.972157838044">
        <ele>77.4</ele>
        <time>2018-04-09T18:33:33Z</time>
      </trkpt>
      <trkpt lat="62.633364194256" lon="17.972219025914">
        <ele>77.6</ele>
        <time>2018-04-09T18:33:34Z</time>
      </trkpt>
      <trkpt lat="62.633357404917" lon="17.972273172988">
        <ele>77.6</ele>
        <time>2018-04-09T18:33:35Z</time>
      </trkpt>
      <trkpt lat="62.633349945026" lon="17.972337462161">
        <ele>77.6</ele>
        <time>2018-04-09T18:33:36Z</time>
      </trkpt>
      <trkpt lat="62.633343574782" lon="17.972395884004">
        <ele>77.6</ele>
        <time>2018-04-09T18:33:37Z</time>
      </trkpt>
      <trkpt lat="62.633333600321" lon="17.972454473485">
        <ele>77.4</ele>
        <time>2018-04-09T18:33:38Z</time>
      </trkpt>
      <trkpt lat="62.633326810982" lon="17.972508788197">
        <ele>77.6</ele>
        <time>2018-04-09T18:33:39Z</time>
      </trkpt>
      <trkpt lat="62.63331775853" lon="17.972564527832">
        <ele>77.8</ele>
        <time>2018-04-09T18:33:40Z</time>
      </trkpt>
      <trkpt lat="62.633306694422" lon="17.972626302435">
        <ele>78</ele>
        <time>2018-04-09T18:33:41Z</time>
      </trkpt>
      <trkpt lat="62.633294875943" lon="17.972686735934">
        <ele>78.2</ele>
        <time>2018-04-09T18:33:42Z</time>
      </trkpt>
      <trkpt lat="62.633282135455" lon="17.972741637379">
        <ele>78.4</ele>
        <time>2018-04-09T18:33:43Z</time>
      </trkpt>
      <trkpt lat="62.633268892053" lon="17.972794778625">
        <ele>78.6</ele>
        <time>2018-04-09T18:33:44Z</time>
      </trkpt>
      <trkpt lat="62.63325573247" lon="17.972849177156">
        <ele>78.8</ele>
        <time>2018-04-09T18:33:45Z</time>
      </trkpt>
      <trkpt lat="62.633242991982" lon="17.972909526836">
        <ele>79</ele>
        <time>2018-04-09T18:33:46Z</time>
      </trkpt>
      <trkpt lat="62.633230167675" lon="17.972963254815">
        <ele>79.2</ele>
        <time>2018-04-09T18:33:47Z</time>
      </trkpt>
      <trkpt lat="62.633218516834" lon="17.97302067083">
        <ele>79.2</ele>
        <time>2018-04-09T18:33:48Z</time>
      </trkpt>
      <trkpt lat="62.633205776346" lon="17.973076075189">
        <ele>79</ele>
        <time>2018-04-09T18:33:49Z</time>
      </trkpt>
      <trkpt lat="62.633193957867" lon="17.973131898643">
        <ele>79</ele>
        <time>2018-04-09T18:33:50Z</time>
      </trkpt>
      <trkpt lat="62.633180798284" lon="17.973189482296">
        <ele>79</ele>
        <time>2018-04-09T18:33:51Z</time>
      </trkpt>
      <trkpt lat="62.633168979805" lon="17.973244719017">
        <ele>79</ele>
        <time>2018-04-09T18:33:52Z</time>
      </trkpt>
      <trkpt lat="62.633157831878" lon="17.973303895231">
        <ele>79.4</ele>
        <time>2018-04-09T18:33:53Z</time>
      </trkpt>
      <trkpt lat="62.633146683951" lon="17.973359215771">
        <ele>79.6</ele>
        <time>2018-04-09T18:33:54Z</time>
      </trkpt>
      <trkpt lat="62.633134278739" lon="17.973412608474">
        <ele>79.6</ele>
        <time>2018-04-09T18:33:55Z</time>
      </trkpt>
      <trkpt lat="62.63312078388" lon="17.97346994067">
        <ele>79.6</ele>
        <time>2018-04-09T18:33:56Z</time>
      </trkpt>
      <trkpt lat="62.633106953745" lon="17.973523417192">
        <ele>79.6</ele>
        <time>2018-04-09T18:33:57Z</time>
      </trkpt>
      <trkpt lat="62.633095470542" lon="17.973574965877">
        <ele>79.4</ele>
        <time>2018-04-09T18:33:58Z</time>
      </trkpt>
      <trkpt lat="62.633084238796" lon="17.973623580897">
        <ele>79.4</ele>
        <time>2018-04-09T18:33:59Z</time>
      </trkpt>
      <trkpt lat="62.633074348154" lon="17.973673956116">
        <ele>79.4</ele>
        <time>2018-04-09T18:34:00Z</time>
      </trkpt>
      <trkpt lat="62.63306211058" lon="17.973732126502">
        <ele>79.8</ele>
        <time>2018-04-09T18:34:01Z</time>
      </trkpt>
      <trkpt lat="62.633050292101" lon="17.973786860309">
        <ele>79.8</ele>
        <time>2018-04-09T18:34:02Z</time>
      </trkpt>
      <trkpt lat="62.63303947945" lon="17.973839833917">
        <ele>80</ele>
        <time>2018-04-09T18:34:03Z</time>
      </trkpt>
      <trkpt lat="62.633025984591" lon="17.973895657371">
        <ele>80</ele>
        <time>2018-04-09T18:34:04Z</time>
      </trkpt>
      <trkpt lat="62.633015423397" lon="17.973947625151">
        <ele>80</ele>
        <time>2018-04-09T18:34:05Z</time>
      </trkpt>
      <trkpt lat="62.63300092271" lon="17.974007304279">
        <ele>80</ele>
        <time>2018-04-09T18:34:06Z</time>
      </trkpt>
      <trkpt lat="62.632988266041" lon="17.974061199896">
        <ele>80.2</ele>
        <time>2018-04-09T18:34:07Z</time>
      </trkpt>
      <trkpt lat="62.632973681535" lon="17.974117610083">
        <ele>80.4</ele>
        <time>2018-04-09T18:34:08Z</time>
      </trkpt>
      <trkpt lat="62.632960102857" lon="17.974170248415">
        <ele>80.4</ele>
        <time>2018-04-09T18:34:09Z</time>
      </trkpt>
      <trkpt lat="62.632947362369" lon="17.97422514986">
        <ele>80.6</ele>
        <time>2018-04-09T18:34:10Z</time>
      </trkpt>
      <trkpt lat="62.63293386751" lon="17.974285918635">
        <ele>80.6</ele>
        <time>2018-04-09T18:34:11Z</time>
      </trkpt>
      <trkpt lat="62.632921629936" lon="17.974343586107">
        <ele>80.4</ele>
        <time>2018-04-09T18:34:12Z</time>
      </trkpt>
      <trkpt lat="62.632909476181" lon="17.974398990466">
        <ele>80.4</ele>
        <time>2018-04-09T18:34:13Z</time>
      </trkpt>
      <trkpt lat="62.632898160616" lon="17.974449617142">
        <ele>80.6</ele>
        <time>2018-04-09T18:34:14Z</time>
      </trkpt>
      <trkpt lat="62.632885084852" lon="17.974505524415">
        <ele>80.8</ele>
        <time>2018-04-09T18:34:15Z</time>
      </trkpt>
      <trkpt lat="62.63287435602" lon="17.974568221027">
        <ele>81</ele>
        <time>2018-04-09T18:34:16Z</time>
      </trkpt>
      <trkpt lat="62.632862118446" lon="17.974628486888">
        <ele>80.8</ele>
        <time>2018-04-09T18:34:17Z</time>
      </trkpt>
      <trkpt lat="62.632850719062" lon="17.974685232351">
        <ele>80.8</ele>
        <time>2018-04-09T18:34:18Z</time>
      </trkpt>
      <trkpt lat="62.632837894755" lon="17.974743067461">
        <ele>80.6</ele>
        <time>2018-04-09T18:34:19Z</time>
      </trkpt>
      <trkpt lat="62.632826495371" lon="17.974793945594">
        <ele>80.6</ele>
        <time>2018-04-09T18:34:20Z</time>
      </trkpt>
      <trkpt lat="62.63281316815" lon="17.97484960141">
        <ele>80.8</ele>
        <time>2018-04-09T18:34:21Z</time>
      </trkpt>
      <trkpt lat="62.632800343843" lon="17.974903664665">
        <ele>81</ele>
        <time>2018-04-09T18:34:22Z</time>
      </trkpt>
      <trkpt lat="62.63278886064" lon="17.97495856611">
        <ele>81</ele>
        <time>2018-04-09T18:34:23Z</time>
      </trkpt>
      <trkpt lat="62.632775030505" lon="17.975012964641">
        <ele>81</ele>
        <time>2018-04-09T18:34:24Z</time>
      </trkpt>
      <trkpt lat="62.632763547302" lon="17.975060070919">
        <ele>81</ele>
        <time>2018-04-09T18:34:25Z</time>
      </trkpt>
      <trkpt lat="62.632749130434" lon="17.975115223821">
        <ele>80.8</ele>
        <time>2018-04-09T18:34:26Z</time>
      </trkpt>
      <trkpt lat="62.632736557584" lon="17.975165934316">
        <ele>80.8</ele>
        <time>2018-04-09T18:34:27Z</time>
      </trkpt>
      <trkpt lat="62.632724739105" lon="17.975219159381">
        <ele>81</ele>
        <time>2018-04-09T18:34:28Z</time>
      </trkpt>
      <trkpt lat="62.632710825151" lon="17.975270037514">
        <ele>81</ele>
        <time>2018-04-09T18:34:29Z</time>
      </trkpt>
      <trkpt lat="62.63269917431" lon="17.975320831828">
        <ele>81.2</ele>
        <time>2018-04-09T18:34:30Z</time>
      </trkpt>
      <trkpt lat="62.632685427994" lon="17.975376403825">
        <ele>81.2</ele>
        <time>2018-04-09T18:34:31Z</time>
      </trkpt>
      <trkpt lat="62.632673441877" lon="17.975427784872">
        <ele>81</ele>
        <time>2018-04-09T18:34:32Z</time>
      </trkpt>
      <trkpt lat="62.632661288122" lon="17.975479501195">
        <ele>81.2</ele>
        <time>2018-04-09T18:34:33Z</time>
      </trkpt>
      <trkpt lat="62.632649888738" lon="17.975526356016">
        <ele>81.2</ele>
        <time>2018-04-09T18:34:34Z</time>
      </trkpt>
      <trkpt lat="62.632635890965" lon="17.975589639361">
        <ele>81.4</ele>
        <time>2018-04-09T18:34:35Z</time>
      </trkpt>
      <trkpt lat="62.632620887364" lon="17.975647055376">
        <ele>81.2</ele>
        <time>2018-04-09T18:34:36Z</time>
      </trkpt>
      <trkpt lat="62.632609655618" lon="17.975699693708">
        <ele>81.4</ele>
        <time>2018-04-09T18:34:37Z</time>
      </trkpt>
      <trkpt lat="62.63259859151" lon="17.975755181886">
        <ele>81.4</ele>
        <time>2018-04-09T18:34:38Z</time>
      </trkpt>
      <trkpt lat="62.632586102479" lon="17.975809999512">
        <ele>81.4</ele>
        <time>2018-04-09T18:34:39Z</time>
      </trkpt>
      <trkpt lat="62.632574535457" lon="17.975856602876">
        <ele>81.2</ele>
        <time>2018-04-09T18:34:40Z</time>
      </trkpt>
      <trkpt lat="62.632559783313" lon="17.975914270348">
        <ele>81.2</ele>
        <time>2018-04-09T18:34:41Z</time>
      </trkpt>
      <trkpt lat="62.632547210463" lon="17.975964561748">
        <ele>81.4</ele>
        <time>2018-04-09T18:34:42Z</time>
      </trkpt>
      <trkpt lat="62.632534302337" lon="17.976014182596">
        <ele>81.4</ele>
        <time>2018-04-09T18:34:43Z</time>
      </trkpt>
      <trkpt lat="62.632521394211" lon="17.976061540331">
        <ele>81.2</ele>
        <time>2018-04-09T18:34:44Z</time>
      </trkpt>
      <trkpt lat="62.632508737542" lon="17.976110742084">
        <ele>81.2</ele>
        <time>2018-04-09T18:34:45Z</time>
      </trkpt>
      <trkpt lat="62.63249465595" lon="17.976170924126">
        <ele>81.4</ele>
        <time>2018-04-09T18:34:46Z</time>
      </trkpt>
      <trkpt lat="62.632483424204" lon="17.976220628793">
        <ele>81.4</ele>
        <time>2018-04-09T18:34:47Z</time>
      </trkpt>
      <trkpt lat="62.632472192458" lon="17.976275194962">
        <ele>81.6</ele>
        <time>2018-04-09T18:34:48Z</time>
      </trkpt>
      <trkpt lat="62.632459787246" lon="17.976330012588">
        <ele>81.6</ele>
        <time>2018-04-09T18:34:49Z</time>
      </trkpt>
      <trkpt lat="62.632448974595" lon="17.976380052531">
        <ele>81.6</ele>
        <time>2018-04-09T18:34:50Z</time>
      </trkpt>
      <trkpt lat="62.632434809184" lon="17.976438139098">
        <ele>81.8</ele>
        <time>2018-04-09T18:34:51Z</time>
      </trkpt>
      <trkpt lat="62.632422990705" lon="17.976492034715">
        <ele>82</ele>
        <time>2018-04-09T18:34:52Z</time>
      </trkpt>
      <trkpt lat="62.632413267701" lon="17.976549283092">
        <ele>81.8</ele>
        <time>2018-04-09T18:34:53Z</time>
      </trkpt>
      <trkpt lat="62.632401784498" lon="17.976604855089">
        <ele>81.8</ele>
        <time>2018-04-09T18:34:54Z</time>
      </trkpt>
      <trkpt lat="62.632391474761" lon="17.97665506267">
        <ele>81.8</ele>
        <time>2018-04-09T18:34:55Z</time>
      </trkpt>
      <trkpt lat="62.632378398997" lon="17.976713652151">
        <ele>81.8</ele>
        <time>2018-04-09T18:34:56Z</time>
      </trkpt>
      <trkpt lat="62.632367837803" lon="17.976765452293">
        <ele>81.8</ele>
        <time>2018-04-09T18:34:57Z</time>
      </trkpt>
      <trkpt lat="62.632355767867" lon="17.97682186248">
        <ele>82</ele>
        <time>2018-04-09T18:34:58Z</time>
      </trkpt>
      <trkpt lat="62.632344536121" lon="17.97687215388">
        <ele>82.2</ele>
        <time>2018-04-09T18:34:59Z</time>
      </trkpt>
      <trkpt lat="62.63233288528" lon="17.97692495985">
        <ele>82</ele>
        <time>2018-04-09T18:35:00Z</time>
      </trkpt>
      <trkpt lat="62.632318133136" lon="17.976981705313">
        <ele>82</ele>
        <time>2018-04-09T18:35:01Z</time>
      </trkpt>
      <trkpt lat="62.632306398476" lon="17.977033589274">
        <ele>82.2</ele>
        <time>2018-04-09T18:35:02Z</time>
      </trkpt>
      <trkpt lat="62.63229349035" lon="17.977088993633">
        <ele>82.2</ele>
        <time>2018-04-09T18:35:03Z</time>
      </trkpt>
      <trkpt lat="62.632280749862" lon="17.977144146535">
        <ele>82.2</ele>
        <time>2018-04-09T18:35:04Z</time>
      </trkpt>
      <trkpt lat="62.632269266659" lon="17.977195862858">
        <ele>82.2</ele>
        <time>2018-04-09T18:35:05Z</time>
      </trkpt>
      <trkpt lat="62.632255855619" lon="17.977254284701">
        <ele>82.2</ele>
        <time>2018-04-09T18:35:06Z</time>
      </trkpt>
      <trkpt lat="62.632244707692" lon="17.977306252481">
        <ele>82.2</ele>
        <time>2018-04-09T18:35:07Z</time>
      </trkpt>
      <trkpt lat="62.63223230248" lon="17.977362662668">
        <ele>82.2</ele>
        <time>2018-04-09T18:35:08Z</time>
      </trkpt>
      <trkpt lat="62.632220484001" lon="17.977413792258">
        <ele>82.2</ele>
        <time>2018-04-09T18:35:09Z</time>
      </trkpt>
      <trkpt lat="62.632208330246" lon="17.977464921848">
        <ele>82.2</ele>
        <time>2018-04-09T18:35:10Z</time>
      </trkpt>
      <trkpt lat="62.632194164835" lon="17.977521164397">
        <ele>82.4</ele>
        <time>2018-04-09T18:35:11Z</time>
      </trkpt>
      <trkpt lat="62.63218117289" lon="17.977572964539">
        <ele>82.6</ele>
        <time>2018-04-09T18:35:12Z</time>
      </trkpt>
      <trkpt lat="62.632168851497" lon="17.977627614527">
        <ele>82.6</ele>
        <time>2018-04-09T18:35:13Z</time>
      </trkpt>
      <trkpt lat="62.632157535932" lon="17.977674804624">
        <ele>82.8</ele>
        <time>2018-04-09T18:35:14Z</time>
      </trkpt>
      <trkpt lat="62.632144460168" lon="17.977727610594">
        <ele>82.8</ele>
        <time>2018-04-09T18:35:15Z</time>
      </trkpt>
      <trkpt lat="62.632131049128" lon="17.977785194247">
        <ele>83</ele>
        <time>2018-04-09T18:35:16Z</time>
      </trkpt>
      <trkpt lat="62.632117554269" lon="17.977840850063">
        <ele>82.8</ele>
        <time>2018-04-09T18:35:17Z</time>
      </trkpt>
      <trkpt lat="62.632105149057" lon="17.977893823671">
        <ele>83</ele>
        <time>2018-04-09T18:35:18Z</time>
      </trkpt>
      <trkpt lat="62.632092827664" lon="17.977947132555">
        <ele>83</ele>
        <time>2018-04-09T18:35:19Z</time>
      </trkpt>
      <trkpt lat="62.632079500443" lon="17.977999100335">
        <ele>83</ele>
        <time>2018-04-09T18:35:20Z</time>
      </trkpt>
      <trkpt lat="62.632066592317" lon="17.978050816658">
        <ele>83</ele>
        <time>2018-04-09T18:35:21Z</time>
      </trkpt>
      <trkpt lat="62.632053600372" lon="17.978103790266">
        <ele>83</ele>
        <time>2018-04-09T18:35:22Z</time>
      </trkpt>
      <trkpt lat="62.632041362798" lon="17.978155506589">
        <ele>83.2</ele>
        <time>2018-04-09T18:35:23Z</time>
      </trkpt>
      <trkpt lat="62.632028203215" lon="17.978206049446">
        <ele>83.2</ele>
        <time>2018-04-09T18:35:24Z</time>
      </trkpt>
      <trkpt lat="62.632015295089" lon="17.978252736629">
        <ele>83.4</ele>
        <time>2018-04-09T18:35:25Z</time>
      </trkpt>
      <trkpt lat="62.632002973696" lon="17.978306129332">
        <ele>83.4</ele>
        <time>2018-04-09T18:35:26Z</time>
      </trkpt>
      <trkpt lat="62.63199006557" lon="17.978358432388">
        <ele>83.4</ele>
        <time>2018-04-09T18:35:27Z</time>
      </trkpt>
      <trkpt lat="62.631977660358" lon="17.978410148711">
        <ele>83.4</ele>
        <time>2018-04-09T18:35:28Z</time>
      </trkpt>
      <trkpt lat="62.631966177155" lon="17.978461948853">
        <ele>83.2</ele>
        <time>2018-04-09T18:35:29Z</time>
      </trkpt>
      <trkpt lat="62.631955867418" lon="17.978516179746">
        <ele>83.4</ele>
        <time>2018-04-09T18:35:30Z</time>
      </trkpt>
      <trkpt lat="62.63194312693" lon="17.978573511942">
        <ele>83.4</ele>
        <time>2018-04-09T18:35:31Z</time>
      </trkpt>
      <trkpt lat="62.631930637899" lon="17.978626988464">
        <ele>83.6</ele>
        <time>2018-04-09T18:35:32Z</time>
      </trkpt>
      <trkpt lat="62.631919909067" lon="17.978675519665">
        <ele>83.6</ele>
        <time>2018-04-09T18:35:33Z</time>
      </trkpt>
      <trkpt lat="62.631908509683" lon="17.978730253472">
        <ele>83.6</ele>
        <time>2018-04-09T18:35:34Z</time>
      </trkpt>
      <trkpt lat="62.631899373412" lon="17.97877735975">
        <ele>83.6</ele>
        <time>2018-04-09T18:35:35Z</time>
      </trkpt>
      <trkpt lat="62.631885710915" lon="17.978832428833">
        <ele>83.6</ele>
        <time>2018-04-09T18:35:36Z</time>
      </trkpt>
      <trkpt lat="62.631873892436" lon="17.9788821335">
        <ele>83.8</ele>
        <time>2018-04-09T18:35:37Z</time>
      </trkpt>
      <trkpt lat="62.631864504708" lon="17.978934604194">
        <ele>83.8</ele>
        <time>2018-04-09T18:35:38Z</time>
      </trkpt>
      <trkpt lat="62.631853775876" lon="17.978989589458">
        <ele>83.8</ele>
        <time>2018-04-09T18:35:39Z</time>
      </trkpt>
      <trkpt lat="62.631844723424" lon="17.979040048496">
        <ele>83.8</ele>
        <time>2018-04-09T18:35:40Z</time>
      </trkpt>
      <trkpt lat="62.631832737307" lon="17.979099476167">
        <ele>84</ele>
        <time>2018-04-09T18:35:41Z</time>
      </trkpt>
      <trkpt lat="62.631822595208" lon="17.979149935205">
        <ele>84</ele>
        <time>2018-04-09T18:35:42Z</time>
      </trkpt>
      <trkpt lat="62.631812117833" lon="17.979202657356">
        <ele>84</ele>
        <time>2018-04-09T18:35:43Z</time>
      </trkpt>
      <trkpt lat="62.631801891915" lon="17.979252864937">
        <ele>84</ele>
        <time>2018-04-09T18:35:44Z</time>
      </trkpt>
      <trkpt lat="62.631792001273" lon="17.979304162165">
        <ele>84.2</ele>
        <time>2018-04-09T18:35:45Z</time>
      </trkpt>
      <trkpt lat="62.631778338776" lon="17.979361075266">
        <ele>84.2</ele>
        <time>2018-04-09T18:35:46Z</time>
      </trkpt>
      <trkpt lat="62.631765011555" lon="17.979411534304">
        <ele>84.4</ele>
        <time>2018-04-09T18:35:47Z</time>
      </trkpt>
      <trkpt lat="62.631749924135" lon="17.979462580075">
        <ele>84.2</ele>
        <time>2018-04-09T18:35:48Z</time>
      </trkpt>
      <trkpt lat="62.631736680733" lon="17.97951329057">
        <ele>84.4</ele>
        <time>2018-04-09T18:35:49Z</time>
      </trkpt>
      <trkpt lat="62.631723102055" lon="17.979559810115">
        <ele>84.4</ele>
        <time>2018-04-09T18:35:50Z</time>
      </trkpt>
      <trkpt lat="62.631708769006" lon="17.979615633569">
        <ele>84.4</ele>
        <time>2018-04-09T18:35:51Z</time>
      </trkpt>
      <trkpt lat="62.631694268319" lon="17.97966919391">
        <ele>84.6</ele>
        <time>2018-04-09T18:35:52Z</time>
      </trkpt>
      <trkpt lat="62.631679432356" lon="17.979722083699">
        <ele>84.8</ele>
        <time>2018-04-09T18:35:53Z</time>
      </trkpt>
      <trkpt lat="62.631665518402" lon="17.979770447262">
        <ele>84.8</ele>
        <time>2018-04-09T18:35:54Z</time>
      </trkpt>
      <trkpt lat="62.631649676611" lon="17.979816799169">
        <ele>84.8</ele>
        <time>2018-04-09T18:35:55Z</time>
      </trkpt>
      <trkpt lat="62.631632912811" lon="17.979860971782">
        <ele>84.8</ele>
        <time>2018-04-09T18:35:56Z</time>
      </trkpt>
      <trkpt lat="62.631617657753" lon="17.979904809119">
        <ele>84.8</ele>
        <time>2018-04-09T18:35:57Z</time>
      </trkpt>
      <trkpt lat="62.631603827618" lon="17.979953759415">
        <ele>85</ele>
        <time>2018-04-09T18:35:58Z</time>
      </trkpt>
      <trkpt lat="62.631590332759" lon="17.979996255648">
        <ele>85</ele>
        <time>2018-04-09T18:35:59Z</time>
      </trkpt>
      <trkpt lat="62.631575496796" lon="17.980043361926">
        <ele>85</ele>
        <time>2018-04-09T18:36:00Z</time>
      </trkpt>
      <trkpt lat="62.63155923591" lon="17.98009415624">
        <ele>85</ele>
        <time>2018-04-09T18:36:01Z</time>
      </trkpt>
      <trkpt lat="62.631542723567" lon="17.980136736292">
        <ele>85</ele>
        <time>2018-04-09T18:36:02Z</time>
      </trkpt>
      <trkpt lat="62.6315181646" lon="17.98020060637">
        <ele>85</ele>
        <time>2018-04-09T18:36:04Z</time>
      </trkpt>
      <trkpt lat="62.63151229727" lon="17.980223153681">
        <ele>84.8</ele>
        <time>2018-04-09T18:36:05Z</time>
      </trkpt>
      <trkpt lat="62.631506513759" lon="17.980243856974">
        <ele>85</ele>
        <time>2018-04-09T18:36:06Z</time>
      </trkpt>
      <trkpt lat="62.631502490447" lon="17.980258022385">
        <ele>85</ele>
        <time>2018-04-09T18:36:07Z</time>
      </trkpt>
      <trkpt lat="62.631503663913" lon="17.980256513643">
        <ele>85</ele>
        <time>2018-04-09T18:36:08Z</time>
      </trkpt>
      <trkpt lat="62.63159527808" lon="17.979882848541">
        <ele>80</ele>
        <time>2018-04-09T18:38:02Z</time>
      </trkpt>
      <trkpt lat="62.631610533138" lon="17.97983599372">
        <ele>80</ele>
        <time>2018-04-09T18:38:03Z</time>
      </trkpt>
      <trkpt lat="62.631628135128" lon="17.979772542737">
        <ele>80.2</ele>
        <time>2018-04-09T18:38:04Z</time>
      </trkpt>
      <trkpt lat="62.631643641643" lon="17.979721832242">
        <ele>80</ele>
        <time>2018-04-09T18:38:05Z</time>
      </trkpt>
      <trkpt lat="62.631660405443" lon="17.979664751503">
        <ele>80</ele>
        <time>2018-04-09T18:38:06Z</time>
      </trkpt>
      <trkpt lat="62.631673900302" lon="17.979614376284">
        <ele>79.8</ele>
        <time>2018-04-09T18:38:07Z</time>
      </trkpt>
      <trkpt lat="62.631688652446" lon="17.979558049916">
        <ele>80</ele>
        <time>2018-04-09T18:38:08Z</time>
      </trkpt>
      <trkpt lat="62.631699548916" lon="17.979502897014">
        <ele>80.2</ele>
        <time>2018-04-09T18:38:09Z</time>
      </trkpt>
      <trkpt lat="62.631713127594" lon="17.979445061904">
        <ele>80.4</ele>
        <time>2018-04-09T18:38:10Z</time>
      </trkpt>
      <trkpt lat="62.631725868082" lon="17.979380605093">
        <ele>80.6</ele>
        <time>2018-04-09T18:38:11Z</time>
      </trkpt>
      <trkpt lat="62.631740871683" lon="17.979318579033">
        <ele>80.6</ele>
        <time>2018-04-09T18:38:12Z</time>
      </trkpt>
      <trkpt lat="62.631753444533" lon="17.979259235181">
        <ele>80.6</ele>
        <time>2018-04-09T18:38:13Z</time>
      </trkpt>
      <trkpt lat="62.631768029039" lon="17.979200142786">
        <ele>80.4</ele>
        <time>2018-04-09T18:38:14Z</time>
      </trkpt>
      <trkpt lat="62.631781104803" lon="17.979145492798">
        <ele>80.6</ele>
        <time>2018-04-09T18:38:15Z</time>
      </trkpt>
      <trkpt lat="62.631793510015" lon="17.979083047643">
        <ele>80.8</ele>
        <time>2018-04-09T18:38:16Z</time>
      </trkpt>
      <trkpt lat="62.631805999046" lon="17.979023536153">
        <ele>81</ele>
        <time>2018-04-09T18:38:17Z</time>
      </trkpt>
      <trkpt lat="62.631816895516" lon="17.978961007179">
        <ele>81.2</ele>
        <time>2018-04-09T18:38:18Z</time>
      </trkpt>
      <trkpt lat="62.631829216909" lon="17.978897640015">
        <ele>81.2</ele>
        <time>2018-04-09T18:38:19Z</time>
      </trkpt>
      <trkpt lat="62.631838269361" lon="17.978841146009">
        <ele>81.4</ele>
        <time>2018-04-09T18:38:20Z</time>
      </trkpt>
      <trkpt lat="62.631851261306" lon="17.978777527388">
        <ele>81.6</ele>
        <time>2018-04-09T18:38:21Z</time>
      </trkpt>
      <trkpt lat="62.631860816672" lon="17.978713824948">
        <ele>81.6</ele>
        <time>2018-04-09T18:38:22Z</time>
      </trkpt>
      <trkpt lat="62.631875401178" lon="17.978648027033">
        <ele>81.8</ele>
        <time>2018-04-09T18:38:23Z</time>
      </trkpt>
      <trkpt lat="62.631888896037" lon="17.978588850819">
        <ele>81.8</ele>
        <time>2018-04-09T18:38:24Z</time>
      </trkpt>
      <trkpt lat="62.631900630697" lon="17.978532524451">
        <ele>81.8</ele>
        <time>2018-04-09T18:38:25Z</time>
      </trkpt>
      <trkpt lat="62.631916556307" lon="17.978469408744">
        <ele>81.8</ele>
        <time>2018-04-09T18:38:26Z</time>
      </trkpt>
      <trkpt lat="62.631928458605" lon="17.978410819263">
        <ele>81.8</ele>
        <time>2018-04-09T18:38:27Z</time>
      </trkpt>
      <trkpt lat="62.631942624016" lon="17.978341417131">
        <ele>81.8</ele>
        <time>2018-04-09T18:38:28Z</time>
      </trkpt>
      <trkpt lat="62.631953101391" lon="17.978285174582">
        <ele>82</ele>
        <time>2018-04-09T18:38:29Z</time>
      </trkpt>
      <trkpt lat="62.631967350621" lon="17.978225076359">
        <ele>82</ele>
        <time>2018-04-09T18:38:30Z</time>
      </trkpt>
      <trkpt lat="62.631980594023" lon="17.978165816326">
        <ele>82</ele>
        <time>2018-04-09T18:38:31Z</time>
      </trkpt>
      <trkpt lat="62.631993753606" lon="17.978104963732">
        <ele>82</ele>
        <time>2018-04-09T18:38:32Z</time>
      </trkpt>
      <trkpt lat="62.632005236809" lon="17.978048050631">
        <ele>82.2</ele>
        <time>2018-04-09T18:38:33Z</time>
      </trkpt>
      <trkpt lat="62.632018312573" lon="17.977994238833">
        <ele>82.6</ele>
        <time>2018-04-09T18:38:34Z</time>
      </trkpt>
      <trkpt lat="62.632032310346" lon="17.977935900809">
        <ele>82.6</ele>
        <time>2018-04-09T18:38:35Z</time>
      </trkpt>
      <trkpt lat="62.63204538611" lon="17.977880412631">
        <ele>82.8</ele>
        <time>2018-04-09T18:38:36Z</time>
      </trkpt>
      <trkpt lat="62.632059300064" lon="17.977821487874">
        <ele>82.8</ele>
        <time>2018-04-09T18:38:37Z</time>
      </trkpt>
      <trkpt lat="62.632073130199" lon="17.977769184818">
        <ele>82.8</ele>
        <time>2018-04-09T18:38:38Z</time>
      </trkpt>
      <trkpt lat="62.632085200135" lon="17.977714702468">
        <ele>82.8</ele>
        <time>2018-04-09T18:38:39Z</time>
      </trkpt>
      <trkpt lat="62.632098946451" lon="17.977661812679">
        <ele>82.6</ele>
        <time>2018-04-09T18:38:40Z</time>
      </trkpt>
      <trkpt lat="62.632110429654" lon="17.977604480483">
        <ele>82.6</ele>
        <time>2018-04-09T18:38:41Z</time>
      </trkpt>
      <trkpt lat="62.63212501416" lon="17.977548908486">
        <ele>82.6</ele>
        <time>2018-04-09T18:38:42Z</time>
      </trkpt>
      <trkpt lat="62.632136497363" lon="17.977493671765">
        <ele>82.6</ele>
        <time>2018-04-09T18:38:43Z</time>
      </trkpt>
      <trkpt lat="62.632148651118" lon="17.977439524691">
        <ele>82.6</ele>
        <time>2018-04-09T18:38:44Z</time>
      </trkpt>
      <trkpt lat="62.632160637235" lon="17.977386467264">
        <ele>82.6</ele>
        <time>2018-04-09T18:38:45Z</time>
      </trkpt>
      <trkpt lat="62.63217446737" lon="17.977325027937">
        <ele>82.6</ele>
        <time>2018-04-09T18:38:46Z</time>
      </trkpt>
      <trkpt lat="62.632188465143" lon="17.977266522275">
        <ele>82.6</ele>
        <time>2018-04-09T18:38:47Z</time>
      </trkpt>
      <trkpt lat="62.632200870355" lon="17.977212375201">
        <ele>82.6</ele>
        <time>2018-04-09T18:38:48Z</time>
      </trkpt>
      <trkpt lat="62.632214532852" lon="17.97715043296">
        <ele>82.4</ele>
        <time>2018-04-09T18:38:49Z</time>
      </trkpt>
      <trkpt lat="62.63222643515" lon="17.977100225379">
        <ele>82</ele>
        <time>2018-04-09T18:38:50Z</time>
      </trkpt>
      <trkpt lat="62.632239930009" lon="17.977036690577">
        <ele>82</ele>
        <time>2018-04-09T18:38:51Z</time>
      </trkpt>
      <trkpt lat="62.632252335221" lon="17.976980196571">
        <ele>82</ele>
        <time>2018-04-09T18:38:52Z</time>
      </trkpt>
      <trkpt lat="62.632263986062" lon="17.976923451108">
        <ele>82</ele>
        <time>2018-04-09T18:38:53Z</time>
      </trkpt>
      <trkpt lat="62.632276894188" lon="17.976863017609">
        <ele>81.8</ele>
        <time>2018-04-09T18:38:54Z</time>
      </trkpt>
      <trkpt lat="62.632286365735" lon="17.976806942698">
        <ele>81.8</ele>
        <time>2018-04-09T18:38:55Z</time>
      </trkpt>
      <trkpt lat="62.632302542802" lon="17.976745838647">
        <ele>81.6</ele>
        <time>2018-04-09T18:38:56Z</time>
      </trkpt>
      <trkpt lat="62.632313355453" lon="17.976692445944">
        <ele>81.6</ele>
        <time>2018-04-09T18:38:57Z</time>
      </trkpt>
      <trkpt lat="62.632323497552" lon="17.976633018273">
        <ele>81.4</ele>
        <time>2018-04-09T18:38:58Z</time>
      </trkpt>
      <trkpt lat="62.632335651307" lon="17.976580547579">
        <ele>81.4</ele>
        <time>2018-04-09T18:38:59Z</time>
      </trkpt>
      <trkpt lat="62.632347469786" lon="17.97652598141">
        <ele>81.4</ele>
        <time>2018-04-09T18:39:00Z</time>
      </trkpt>
      <trkpt lat="62.632362138111" lon="17.976467391929">
        <ele>81.4</ele>
        <time>2018-04-09T18:39:01Z</time>
      </trkpt>
      <trkpt lat="62.632375046237" lon="17.97641701671">
        <ele>81.4</ele>
        <time>2018-04-09T18:39:02Z</time>
      </trkpt>
      <trkpt lat="62.632387870544" lon="17.976366390034">
        <ele>81.6</ele>
        <time>2018-04-09T18:39:03Z</time>
      </trkpt>
      <trkpt lat="62.632400359575" lon="17.976312159141">
        <ele>81.4</ele>
        <time>2018-04-09T18:39:04Z</time>
      </trkpt>
      <trkpt lat="62.632412764787" lon="17.976259772266">
        <ele>81.2</ele>
        <time>2018-04-09T18:39:05Z</time>
      </trkpt>
      <trkpt lat="62.632429193311" lon="17.976201853337">
        <ele>81.2</ele>
        <time>2018-04-09T18:39:06Z</time>
      </trkpt>
      <trkpt lat="62.632442185256" lon="17.976142760942">
        <ele>81.2</ele>
        <time>2018-04-09T18:39:07Z</time>
      </trkpt>
      <trkpt lat="62.63245358464" lon="17.976078555588">
        <ele>81.2</ele>
        <time>2018-04-09T18:39:08Z</time>
      </trkpt>
      <trkpt lat="62.632464984024" lon="17.976022648315">
        <ele>80.8</ele>
        <time>2018-04-09T18:39:09Z</time>
      </trkpt>
      <trkpt lat="62.632474120295" lon="17.97596690868">
        <ele>80.8</ele>
        <time>2018-04-09T18:39:10Z</time>
      </trkpt>
      <trkpt lat="62.632488872439" lon="17.975903876792">
        <ele>81</ele>
        <time>2018-04-09T18:39:11Z</time>
      </trkpt>
      <trkpt lat="62.632501026194" lon="17.975849059166">
        <ele>80.8</ele>
        <time>2018-04-09T18:39:12Z</time>
      </trkpt>
      <trkpt lat="62.632516616528" lon="17.975787284563">
        <ele>80.8</ele>
        <time>2018-04-09T18:39:13Z</time>
      </trkpt>
      <trkpt lat="62.632528518826" lon="17.975738418086">
        <ele>80.8</ele>
        <time>2018-04-09T18:39:14Z</time>
      </trkpt>
      <trkpt lat="62.632541510771" lon="17.975685779754">
        <ele>80.8</ele>
        <time>2018-04-09T18:39:15Z</time>
      </trkpt>
      <trkpt lat="62.63255835839" lon="17.975621909676">
        <ele>80.8</ele>
        <time>2018-04-09T18:39:16Z</time>
      </trkpt>
      <trkpt lat="62.63256841667" lon="17.975560805625">
        <ele>80.8</ele>
        <time>2018-04-09T18:39:17Z</time>
      </trkpt>
      <trkpt lat="62.632583336452" lon="17.975501210316">
        <ele>80.6</ele>
        <time>2018-04-09T18:39:18Z</time>
      </trkpt>
      <trkpt lat="62.632595574026" lon="17.975444967767">
        <ele>80.6</ele>
        <time>2018-04-09T18:39:19Z</time>
      </trkpt>
      <trkpt lat="62.632607727781" lon="17.975388976675">
        <ele>80.6</ele>
        <time>2018-04-09T18:39:20Z</time>
      </trkpt>
      <trkpt lat="62.632620635907" lon="17.975334661963">
        <ele>80.4</ele>
        <time>2018-04-09T18:39:21Z</time>
      </trkpt>
      <trkpt lat="62.63263463368" lon="17.97527372555">
        <ele>80.4</ele>
        <time>2018-04-09T18:39:22Z</time>
      </trkpt>
      <trkpt lat="62.632649134367" lon="17.975211615671">
        <ele>80.4</ele>
        <time>2018-04-09T18:39:23Z</time>
      </trkpt>
      <trkpt lat="62.63266145576" lon="17.975152607095">
        <ele>80.4</ele>
        <time>2018-04-09T18:39:24Z</time>
      </trkpt>
      <trkpt lat="62.632675118257" lon="17.975096783641">
        <ele>80.4</ele>
        <time>2018-04-09T18:39:25Z</time>
      </trkpt>
      <trkpt lat="62.632687272012" lon="17.975031321002">
        <ele>80.2</ele>
        <time>2018-04-09T18:39:26Z</time>
      </trkpt>
      <trkpt lat="62.632696827378" lon="17.974973821168">
        <ele>80.2</ele>
        <time>2018-04-09T18:39:27Z</time>
      </trkpt>
      <trkpt lat="62.632709567866" lon="17.974910454004">
        <ele>80.4</ele>
        <time>2018-04-09T18:39:28Z</time>
      </trkpt>
      <trkpt lat="62.632721302526" lon="17.974864940287">
        <ele>80.4</ele>
        <time>2018-04-09T18:39:29Z</time>
      </trkpt>
      <trkpt lat="62.632734462109" lon="17.974805428797">
        <ele>80.2</ele>
        <time>2018-04-09T18:39:30Z</time>
      </trkpt>
      <trkpt lat="62.632748376063" lon="17.974748012782">
        <ele>80.2</ele>
        <time>2018-04-09T18:39:31Z</time>
      </trkpt>
      <trkpt lat="62.632763295845" lon="17.974695122993">
        <ele>80.2</ele>
        <time>2018-04-09T18:39:32Z</time>
      </trkpt>
      <trkpt lat="62.632776790704" lon="17.974641478833">
        <ele>80</ele>
        <time>2018-04-09T18:39:33Z</time>
      </trkpt>
      <trkpt lat="62.632789866468" lon="17.974587834673">
        <ele>80</ele>
        <time>2018-04-09T18:39:34Z</time>
      </trkpt>
      <trkpt lat="62.632806881725" lon="17.974536537445">
        <ele>80</ele>
        <time>2018-04-09T18:39:35Z</time>
      </trkpt>
      <trkpt lat="62.632825489543" lon="17.974484318208">
        <ele>80</ele>
        <time>2018-04-09T18:39:36Z</time>
      </trkpt>
      <trkpt lat="62.632840912239" lon="17.974429500582">
        <ele>80</ele>
        <time>2018-04-09T18:39:37Z</time>
      </trkpt>
      <trkpt lat="62.632856586392" lon="17.974373593309">
        <ele>79.8</ele>
        <time>2018-04-09T18:39:38Z</time>
      </trkpt>
      <trkpt lat="62.632869410699" lon="17.974323721004">
        <ele>79.8</ele>
        <time>2018-04-09T18:39:39Z</time>
      </trkpt>
      <trkpt lat="62.632884498119" lon="17.974273261966">
        <ele>79.8</ele>
        <time>2018-04-09T18:39:40Z</time>
      </trkpt>
      <trkpt lat="62.632897741521" lon="17.974216600322">
        <ele>80</ele>
        <time>2018-04-09T18:39:41Z</time>
      </trkpt>
      <trkpt lat="62.632910817285" lon="17.974161950334">
        <ele>80</ele>
        <time>2018-04-09T18:39:42Z</time>
      </trkpt>
      <trkpt lat="62.632924395963" lon="17.974105456328">
        <ele>79.8</ele>
        <time>2018-04-09T18:39:43Z</time>
      </trkpt>
      <trkpt lat="62.632937052632" lon="17.974058769145">
        <ele>79.8</ele>
        <time>2018-04-09T18:39:44Z</time>
      </trkpt>
      <trkpt lat="62.632952140052" lon="17.974007555736">
        <ele>79.8</ele>
        <time>2018-04-09T18:39:45Z</time>
      </trkpt>
      <trkpt lat="62.632967143653" lon="17.973954917404">
        <ele>79.8</ele>
        <time>2018-04-09T18:39:46Z</time>
      </trkpt>
      <trkpt lat="62.632980889969" lon="17.97389825576">
        <ele>79.6</ele>
        <time>2018-04-09T18:39:47Z</time>
      </trkpt>
      <trkpt lat="62.632992624629" lon="17.973844108686">
        <ele>79.4</ele>
        <time>2018-04-09T18:39:48Z</time>
      </trkpt>
      <trkpt lat="62.633004694565" lon="17.973789961612">
        <ele>79.4</ele>
        <time>2018-04-09T18:39:49Z</time>
      </trkpt>
      <trkpt lat="62.633019865804" lon="17.973741346592">
        <ele>79.4</ele>
        <time>2018-04-09T18:39:50Z</time>
      </trkpt>
      <trkpt lat="62.633030594636" lon="17.973688037708">
        <ele>79.4</ele>
        <time>2018-04-09T18:39:51Z</time>
      </trkpt>
      <trkpt lat="62.633044005676" lon="17.973622407431">
        <ele>79.4</ele>
        <time>2018-04-09T18:39:52Z</time>
      </trkpt>
      <trkpt lat="62.633056997621" lon="17.973559459362">
        <ele>79.4</ele>
        <time>2018-04-09T18:39:53Z</time>
      </trkpt>
      <trkpt lat="62.633070827756" lon="17.97350346827">
        <ele>79.2</ele>
        <time>2018-04-09T18:39:54Z</time>
      </trkpt>
      <trkpt lat="62.633088429746" lon="17.973445884617">
        <ele>79</ele>
        <time>2018-04-09T18:39:55Z</time>
      </trkpt>
      <trkpt lat="62.633104103899" lon="17.973385367299">
        <ele>78.8</ele>
        <time>2018-04-09T18:39:56Z</time>
      </trkpt>
      <trkpt lat="62.633118436948" lon="17.973327280732">
        <ele>78.8</ele>
        <time>2018-04-09T18:39:57Z</time>
      </trkpt>
      <trkpt lat="62.63313084216" lon="17.973269277984">
        <ele>78.6</ele>
        <time>2018-04-09T18:39:58Z</time>
      </trkpt>
      <trkpt lat="62.633144001743" lon="17.973212113426">
        <ele>78.4</ele>
        <time>2018-04-09T18:39:59Z</time>
      </trkpt>
      <trkpt lat="62.633157077507" lon="17.973158469266">
        <ele>78.4</ele>
        <time>2018-04-09T18:40:00Z</time>
      </trkpt>
      <trkpt lat="62.633169147443" lon="17.973100215061">
        <ele>78.4</ele>
        <time>2018-04-09T18:40:01Z</time>
      </trkpt>
      <trkpt lat="62.633181636474" lon="17.973043134322">
        <ele>78.4</ele>
        <time>2018-04-09T18:40:02Z</time>
      </trkpt>
      <trkpt lat="62.633193622591" lon="17.972986640316">
        <ele>78.2</ele>
        <time>2018-04-09T18:40:03Z</time>
      </trkpt>
      <trkpt lat="62.633206865993" lon="17.972927715559">
        <ele>78</ele>
        <time>2018-04-09T18:40:04Z</time>
      </trkpt>
      <trkpt lat="62.633219522662" lon="17.972868623164">
        <ele>78</ele>
        <time>2018-04-09T18:40:05Z</time>
      </trkpt>
      <trkpt lat="62.633230754408" lon="17.972812548253">
        <ele>78.2</ele>
        <time>2018-04-09T18:40:06Z</time>
      </trkpt>
      <trkpt lat="62.633243830172" lon="17.972750522193">
        <ele>78</ele>
        <time>2018-04-09T18:40:07Z</time>
      </trkpt>
      <trkpt lat="62.633256067746" lon="17.972693944368">
        <ele>77.8</ele>
        <time>2018-04-09T18:40:08Z</time>
      </trkpt>
      <trkpt lat="62.633266377483" lon="17.972641725131">
        <ele>78</ele>
        <time>2018-04-09T18:40:09Z</time>
      </trkpt>
      <trkpt lat="62.633276938677" lon="17.972587075143">
        <ele>77.8</ele>
        <time>2018-04-09T18:40:10Z</time>
      </trkpt>
      <trkpt lat="62.633286326405" lon="17.972529826766">
        <ele>77.6</ele>
        <time>2018-04-09T18:40:11Z</time>
      </trkpt>
      <trkpt lat="62.633298563979" lon="17.972476853158">
        <ele>77.8</ele>
        <time>2018-04-09T18:40:12Z</time>
      </trkpt>
      <trkpt lat="62.633307951707" lon="17.97241801222">
        <ele>77.8</ele>
        <time>2018-04-09T18:40:13Z</time>
      </trkpt>
      <trkpt lat="62.633316249788" lon="17.972363026956">
        <ele>77.4</ele>
        <time>2018-04-09T18:40:14Z</time>
      </trkpt>
      <trkpt lat="62.633325134602" lon="17.972304940389">
        <ele>77.2</ele>
        <time>2018-04-09T18:40:15Z</time>
      </trkpt>
      <trkpt lat="62.633332762131" lon="17.972241237949">
        <ele>77.2</ele>
        <time>2018-04-09T18:40:16Z</time>
      </trkpt>
      <trkpt lat="62.633339719108" lon="17.972177200233">
        <ele>77.4</ele>
        <time>2018-04-09T18:40:17Z</time>
      </trkpt>
      <trkpt lat="62.633347430456" lon="17.972116180001">
        <ele>77</ele>
        <time>2018-04-09T18:40:18Z</time>
      </trkpt>
      <trkpt lat="62.633353716881" lon="17.972058093434">
        <ele>76.8</ele>
        <time>2018-04-09T18:40:19Z</time>
      </trkpt>
      <trkpt lat="62.633360003306" lon="17.971999420134">
        <ele>76.8</ele>
        <time>2018-04-09T18:40:20Z</time>
      </trkpt>
      <trkpt lat="62.633367966111" lon="17.971944686327">
        <ele>76.8</ele>
        <time>2018-04-09T18:40:21Z</time>
      </trkpt>
      <trkpt lat="62.633377521477" lon="17.971882324991">
        <ele>76.6</ele>
        <time>2018-04-09T18:40:22Z</time>
      </trkpt>
      <trkpt lat="62.633384059359" lon="17.971820131293">
        <ele>76.4</ele>
        <time>2018-04-09T18:40:23Z</time>
      </trkpt>
      <trkpt lat="62.633387998852" lon="17.971760703622">
        <ele>76.4</ele>
        <time>2018-04-09T18:40:24Z</time>
      </trkpt>
      <trkpt lat="62.633390764879" lon="17.971698258467">
        <ele>76.6</ele>
        <time>2018-04-09T18:40:25Z</time>
      </trkpt>
      <trkpt lat="62.633393530906" lon="17.971634472208">
        <ele>76.2</ele>
        <time>2018-04-09T18:40:26Z</time>
      </trkpt>
      <trkpt lat="62.6333957102" lon="17.971572194691">
        <ele>76.2</ele>
        <time>2018-04-09T18:40:27Z</time>
      </trkpt>
      <trkpt lat="62.633399565874" lon="17.971513521391">
        <ele>76.2</ele>
        <time>2018-04-09T18:40:28Z</time>
      </trkpt>
      <trkpt lat="62.633401074616" lon="17.971456775928">
        <ele>76</ele>
        <time>2018-04-09T18:40:29Z</time>
      </trkpt>
      <trkpt lat="62.633403589186" lon="17.971396426248">
        <ele>75.8</ele>
        <time>2018-04-09T18:40:30Z</time>
      </trkpt>
      <trkpt lat="62.633407277222" lon="17.971337082396">
        <ele>75.8</ele>
        <time>2018-04-09T18:40:31Z</time>
      </trkpt>
      <trkpt lat="62.63340995943" lon="17.97127472106">
        <ele>75.8</ele>
        <time>2018-04-09T18:40:32Z</time>
      </trkpt>
      <trkpt lat="62.633411468172" lon="17.971213700828">
        <ele>75.8</ele>
        <time>2018-04-09T18:40:33Z</time>
      </trkpt>
      <trkpt lat="62.633412222543" lon="17.971167516559">
        <ele>75.6</ele>
        <time>2018-04-09T18:40:34Z</time>
      </trkpt>
      <trkpt lat="62.633412809276" lon="17.971093085287">
        <ele>75.6</ele>
        <time>2018-04-09T18:40:35Z</time>
      </trkpt>
      <trkpt lat="62.633412474" lon="17.971037345652">
        <ele>75.6</ele>
        <time>2018-04-09T18:40:36Z</time>
      </trkpt>
      <trkpt lat="62.633410294706" lon="17.970971799194">
        <ele>75.6</ele>
        <time>2018-04-09T18:40:37Z</time>
      </trkpt>
      <trkpt lat="62.633409205059" lon="17.970911449514">
        <ele>75.2</ele>
        <time>2018-04-09T18:40:38Z</time>
      </trkpt>
      <trkpt lat="62.633407109584" lon="17.970856212793">
        <ele>75</ele>
        <time>2018-04-09T18:40:39Z</time>
      </trkpt>
      <trkpt lat="62.633404511195" lon="17.970798461502">
        <ele>75</ele>
        <time>2018-04-09T18:40:40Z</time>
      </trkpt>
      <trkpt lat="62.63340241572" lon="17.970735513433">
        <ele>75</ele>
        <time>2018-04-09T18:40:41Z</time>
      </trkpt>
      <trkpt lat="62.633399733512" lon="17.970676169581">
        <ele>74.6</ele>
        <time>2018-04-09T18:40:42Z</time>
      </trkpt>
      <trkpt lat="62.633397218942" lon="17.970614981711">
        <ele>74.8</ele>
        <time>2018-04-09T18:40:43Z</time>
      </trkpt>
      <trkpt lat="62.63339487201" lon="17.970559493533">
        <ele>74.6</ele>
        <time>2018-04-09T18:40:44Z</time>
      </trkpt>
      <trkpt lat="62.633391016336" lon="17.970504256812">
        <ele>74.4</ele>
        <time>2018-04-09T18:40:45Z</time>
      </trkpt>
      <trkpt lat="62.633386406291" lon="17.970439800001">
        <ele>74.4</ele>
        <time>2018-04-09T18:40:46Z</time>
      </trkpt>
      <trkpt lat="62.63338313735" lon="17.970384228004">
        <ele>74.4</ele>
        <time>2018-04-09T18:40:47Z</time>
      </trkpt>
      <trkpt lat="62.633380119866" lon="17.970326141437">
        <ele>74</ele>
        <time>2018-04-09T18:40:48Z</time>
      </trkpt>
      <trkpt lat="62.633377856753" lon="17.970277610236">
        <ele>74</ele>
        <time>2018-04-09T18:40:49Z</time>
      </trkpt>
      <trkpt lat="62.633374671631" lon="17.970227067379">
        <ele>74</ele>
        <time>2018-04-09T18:40:51Z</time>
      </trkpt>
      <trkpt lat="62.633369474853" lon="17.970217260556">
        <ele>73.8</ele>
        <time>2018-04-09T18:40:52Z</time>
      </trkpt>
      <trkpt lat="62.633359919487" lon="17.970208711018">
        <ele>72.6</ele>
        <time>2018-04-09T18:40:53Z</time>
      </trkpt>
      <trkpt lat="62.633355644718" lon="17.970214578348">
        <ele>72.6</ele>
        <time>2018-04-09T18:40:54Z</time>
      </trkpt>
      <trkpt lat="62.633349190655" lon="17.970211393226">
        <ele>72.4</ele>
        <time>2018-04-09T18:40:55Z</time>
      </trkpt>
      <trkpt lat="62.633344245334" lon="17.970212399054">
        <ele>72.4</ele>
        <time>2018-04-09T18:40:56Z</time>
      </trkpt>
      <trkpt lat="62.633344664429" lon="17.970215165081">
        <ele>72.2</ele>
        <time>2018-04-09T18:40:57Z</time>
      </trkpt>
      <trkpt lat="62.633382969712" lon="17.969827250749">
        <ele>72.8</ele>
        <time>2018-04-09T18:41:29Z</time>
      </trkpt>
      <trkpt lat="62.633382131522" lon="17.969784167783">
        <ele>72.8</ele>
        <time>2018-04-09T18:41:30Z</time>
      </trkpt>
      <trkpt lat="62.633384897549" lon="17.969722476999">
        <ele>72.8</ele>
        <time>2018-04-09T18:41:31Z</time>
      </trkpt>
      <trkpt lat="62.6333873283" lon="17.969670341581">
        <ele>72.8</ele>
        <time>2018-04-09T18:41:32Z</time>
      </trkpt>
      <trkpt lat="62.633388250309" lon="17.969621139828">
        <ele>72.6</ele>
        <time>2018-04-09T18:41:33Z</time>
      </trkpt>
      <trkpt lat="62.633388082671" lon="17.969563556175">
        <ele>72.6</ele>
        <time>2018-04-09T18:41:34Z</time>
      </trkpt>
      <trkpt lat="62.633388585585" lon="17.969508570911">
        <ele>72.6</ele>
        <time>2018-04-09T18:41:35Z</time>
      </trkpt>
      <trkpt lat="62.633389256137" lon="17.969451825448">
        <ele>72.4</ele>
        <time>2018-04-09T18:41:36Z</time>
      </trkpt>
      <trkpt lat="62.63339151925" lon="17.969389883207">
        <ele>72.2</ele>
        <time>2018-04-09T18:41:37Z</time>
      </trkpt>
      <trkpt lat="62.63339487201" lon="17.96933850216">
        <ele>72.2</ele>
        <time>2018-04-09T18:41:38Z</time>
      </trkpt>
      <trkpt lat="62.63339822477" lon="17.969287121113">
        <ele>72.2</ele>
        <time>2018-04-09T18:41:39Z</time>
      </trkpt>
      <trkpt lat="62.633404008281" lon="17.969233644591">
        <ele>72</ele>
        <time>2018-04-09T18:41:40Z</time>
      </trkpt>
      <trkpt lat="62.63341163581" lon="17.969177653499">
        <ele>71.8</ele>
        <time>2018-04-09T18:41:41Z</time>
      </trkpt>
      <trkpt lat="62.633417922235" lon="17.969119399294">
        <ele>71.6</ele>
        <time>2018-04-09T18:41:42Z</time>
      </trkpt>
      <trkpt lat="62.633424124841" lon="17.969068521161">
        <ele>71.4</ele>
        <time>2018-04-09T18:41:43Z</time>
      </trkpt>
      <trkpt lat="62.633430243628" lon="17.969006998015">
        <ele>71.2</ele>
        <time>2018-04-09T18:41:44Z</time>
      </trkpt>
      <trkpt lat="62.633436949148" lon="17.968957628624">
        <ele>70.8</ele>
        <time>2018-04-09T18:41:45Z</time>
      </trkpt>
      <trkpt lat="62.633444409039" lon="17.968896105478">
        <ele>70.8</ele>
        <time>2018-04-09T18:41:46Z</time>
      </trkpt>
      <trkpt lat="62.633450527826" lon="17.968838857101">
        <ele>70.6</ele>
        <time>2018-04-09T18:41:47Z</time>
      </trkpt>
      <trkpt lat="62.633457484803" lon="17.968779597068">
        <ele>70.4</ele>
        <time>2018-04-09T18:41:48Z</time>
      </trkpt>
      <trkpt lat="62.633463100676" lon="17.968724611804">
        <ele>70.4</ele>
        <time>2018-04-09T18:41:49Z</time>
      </trkpt>
      <trkpt lat="62.63346947092" lon="17.968675912965">
        <ele>70.2</ele>
        <time>2018-04-09T18:41:50Z</time>
      </trkpt>
      <trkpt lat="62.633478355734" lon="17.968620592425">
        <ele>69.8</ele>
        <time>2018-04-09T18:41:51Z</time>
      </trkpt>
      <trkpt lat="62.633485731806" lon="17.96857072012">
        <ele>69.8</ele>
        <time>2018-04-09T18:41:52Z</time>
      </trkpt>
      <trkpt lat="62.633493359335" lon="17.968511376268">
        <ele>69.6</ele>
        <time>2018-04-09T18:41:53Z</time>
      </trkpt>
      <trkpt lat="62.633500735407" lon="17.96845588809">
        <ele>69.4</ele>
        <time>2018-04-09T18:41:54Z</time>
      </trkpt>
      <trkpt lat="62.633506602737" lon="17.96840643488">
        <ele>69.2</ele>
        <time>2018-04-09T18:41:55Z</time>
      </trkpt>
      <trkpt lat="62.63351557137" lon="17.968346755752">
        <ele>69.2</ele>
        <time>2018-04-09T18:41:56Z</time>
      </trkpt>
      <trkpt lat="62.63352311508" lon="17.968297805456">
        <ele>69.2</ele>
        <time>2018-04-09T18:41:57Z</time>
      </trkpt>
      <trkpt lat="62.633529233867" lon="17.968247514056">
        <ele>69</ele>
        <time>2018-04-09T18:41:58Z</time>
      </trkpt>
      <trkpt lat="62.633537615767" lon="17.968181967598">
        <ele>68.8</ele>
        <time>2018-04-09T18:41:59Z</time>
      </trkpt>
      <trkpt lat="62.633543064002" lon="17.968132598207">
        <ele>68.8</ele>
        <time>2018-04-09T18:42:00Z</time>
      </trkpt>
      <trkpt lat="62.633550691531" lon="17.968066632654">
        <ele>68.6</ele>
        <time>2018-04-09T18:42:01Z</time>
      </trkpt>
      <trkpt lat="62.633559408707" lon="17.968010976838">
        <ele>68.4</ele>
        <time>2018-04-09T18:42:02Z</time>
      </trkpt>
      <trkpt lat="62.633565443675" lon="17.967964624931">
        <ele>67.8</ele>
        <time>2018-04-09T18:42:03Z</time>
      </trkpt>
      <trkpt lat="62.633573238842" lon="17.967910896952">
        <ele>67.6</ele>
        <time>2018-04-09T18:42:04Z</time>
      </trkpt>
      <trkpt lat="62.633581872199" lon="17.967855995507">
        <ele>67.2</ele>
        <time>2018-04-09T18:42:05Z</time>
      </trkpt>
      <trkpt lat="62.633590086461" lon="17.967794137085">
        <ele>67</ele>
        <time>2018-04-09T18:42:06Z</time>
      </trkpt>
      <trkpt lat="62.633595702334" lon="17.96773923564">
        <ele>66.8</ele>
        <time>2018-04-09T18:42:07Z</time>
      </trkpt>
      <trkpt lat="62.63360441951" lon="17.96768223872">
        <ele>66.8</ele>
        <time>2018-04-09T18:42:08Z</time>
      </trkpt>
      <trkpt lat="62.633610957392" lon="17.967633875157">
        <ele>66.4</ele>
        <time>2018-04-09T18:42:09Z</time>
      </trkpt>
      <trkpt lat="62.633617327636" lon="17.967578638436">
        <ele>66.2</ele>
        <time>2018-04-09T18:42:10Z</time>
      </trkpt>
      <trkpt lat="62.633624619889" lon="17.967509906856">
        <ele>66.2</ele>
        <time>2018-04-09T18:42:11Z</time>
      </trkpt>
      <trkpt lat="62.633629146115" lon="17.96745425104">
        <ele>66</ele>
        <time>2018-04-09T18:42:12Z</time>
      </trkpt>
      <trkpt lat="62.633636019273" lon="17.967397337939">
        <ele>65.8</ele>
        <time>2018-04-09T18:42:13Z</time>
      </trkpt>
      <trkpt lat="62.633644904087" lon="17.967337239716">
        <ele>65.6</ele>
        <time>2018-04-09T18:42:14Z</time>
      </trkpt>
      <trkpt lat="62.633648340666" lon="17.967290133438">
        <ele>65.4</ele>
        <time>2018-04-09T18:42:15Z</time>
      </trkpt>
      <trkpt lat="62.633656638747" lon="17.96722961612">
        <ele>65.2</ele>
        <time>2018-04-09T18:42:16Z</time>
      </trkpt>
      <trkpt lat="62.633665355923" lon="17.967173205933">
        <ele>65</ele>
        <time>2018-04-09T18:42:17Z</time>
      </trkpt>
      <trkpt lat="62.633671809986" lon="17.967122830714">
        <ele>65</ele>
        <time>2018-04-09T18:42:18Z</time>
      </trkpt>
      <trkpt lat="62.633680527162" lon="17.967071449667">
        <ele>64.8</ele>
        <time>2018-04-09T18:42:19Z</time>
      </trkpt>
      <trkpt lat="62.633685556302" lon="17.967022667009">
        <ele>64.6</ele>
        <time>2018-04-09T18:42:20Z</time>
      </trkpt>
      <trkpt lat="62.633692680917" lon="17.966966675917">
        <ele>64.2</ele>
        <time>2018-04-09T18:42:21Z</time>
      </trkpt>
      <trkpt lat="62.633701901007" lon="17.966907667341">
        <ele>64</ele>
        <time>2018-04-09T18:42:22Z</time>
      </trkpt>
      <trkpt lat="62.633705672862" lon="17.966846814747">
        <ele>63.6</ele>
        <time>2018-04-09T18:42:23Z</time>
      </trkpt>
      <trkpt lat="62.63371170783" lon="17.96679040456">
        <ele>63.4</ele>
        <time>2018-04-09T18:42:24Z</time>
      </trkpt>
      <trkpt lat="62.633719335359" lon="17.966740280798">
        <ele>63.2</ele>
        <time>2018-04-09T18:42:25Z</time>
      </trkpt>
      <trkpt lat="62.633724783594" lon="17.966679428204">
        <ele>62.8</ele>
        <time>2018-04-09T18:42:26Z</time>
      </trkpt>
      <trkpt lat="62.633731070019" lon="17.966627628062">
        <ele>62.6</ele>
        <time>2018-04-09T18:42:27Z</time>
      </trkpt>
      <trkpt lat="62.633738613729" lon="17.966578091033">
        <ele>62.6</ele>
        <time>2018-04-09T18:42:28Z</time>
      </trkpt>
      <trkpt lat="62.633745738344" lon="17.966521261751">
        <ele>62.4</ele>
        <time>2018-04-09T18:42:29Z</time>
      </trkpt>
      <trkpt lat="62.633753198235" lon="17.966467366134">
        <ele>62.2</ele>
        <time>2018-04-09T18:42:30Z</time>
      </trkpt>
      <trkpt lat="62.633761580135" lon="17.966409195748">
        <ele>62</ele>
        <time>2018-04-09T18:42:31Z</time>
      </trkpt>
      <trkpt lat="62.633768788569" lon="17.966354378122">
        <ele>62</ele>
        <time>2018-04-09T18:42:32Z</time>
      </trkpt>
      <trkpt lat="62.633776164641" lon="17.966303499989">
        <ele>61.8</ele>
        <time>2018-04-09T18:42:33Z</time>
      </trkpt>
      <trkpt lat="62.633783037799" lon="17.966246838345">
        <ele>61.6</ele>
        <time>2018-04-09T18:42:34Z</time>
      </trkpt>
      <trkpt lat="62.633789491862" lon="17.966192020719">
        <ele>61.6</ele>
        <time>2018-04-09T18:42:35Z</time>
      </trkpt>
      <trkpt lat="62.633798209038" lon="17.966132844505">
        <ele>61.4</ele>
        <time>2018-04-09T18:42:36Z</time>
      </trkpt>
      <trkpt lat="62.633804998377" lon="17.966084313304">
        <ele>61.2</ele>
        <time>2018-04-09T18:42:37Z</time>
      </trkpt>
      <trkpt lat="62.633811117164" lon="17.966032177886">
        <ele>61</ele>
        <time>2018-04-09T18:42:38Z</time>
      </trkpt>
      <trkpt lat="62.633816146304" lon="17.96597987483">
        <ele>60.6</ele>
        <time>2018-04-09T18:42:39Z</time>
      </trkpt>
      <trkpt lat="62.633819331426" lon="17.965932852371">
        <ele>60.4</ele>
        <time>2018-04-09T18:42:40Z</time>
      </trkpt>
      <trkpt lat="62.633821426901" lon="17.965868730836">
        <ele>60</ele>
        <time>2018-04-09T18:42:41Z</time>
      </trkpt>
      <trkpt lat="62.63382402529" lon="17.965808800251">
        <ele>59.8</ele>
        <time>2018-04-09T18:42:42Z</time>
      </trkpt>
      <trkpt lat="62.63382570167" lon="17.965762364525">
        <ele>59.6</ele>
        <time>2018-04-09T18:42:43Z</time>
      </trkpt>
      <trkpt lat="62.633827294231" lon="17.965699332637">
        <ele>59.6</ele>
        <time>2018-04-09T18:42:44Z</time>
      </trkpt>
      <trkpt lat="62.633828467697" lon="17.965654992386">
        <ele>59.2</ele>
        <time>2018-04-09T18:42:45Z</time>
      </trkpt>
      <trkpt lat="62.633827713326" lon="17.965595480896">
        <ele>59.2</ele>
        <time>2018-04-09T18:42:46Z</time>
      </trkpt>
      <trkpt lat="62.633826288403" lon="17.965534712121">
        <ele>59</ele>
        <time>2018-04-09T18:42:47Z</time>
      </trkpt>
      <trkpt lat="62.633823941471" lon="17.965483750169">
        <ele>58.6</ele>
        <time>2018-04-09T18:42:48Z</time>
      </trkpt>
      <trkpt lat="62.633821007806" lon="17.965430608923">
        <ele>58.6</ele>
        <time>2018-04-09T18:42:49Z</time>
      </trkpt>
      <trkpt lat="62.633819750521" lon="17.965374785469">
        <ele>58.4</ele>
        <time>2018-04-09T18:42:50Z</time>
      </trkpt>
      <trkpt lat="62.633816397761" lon="17.965320806033">
        <ele>58.2</ele>
        <time>2018-04-09T18:42:51Z</time>
      </trkpt>
      <trkpt lat="62.633812039173" lon="17.965267664787">
        <ele>58</ele>
        <time>2018-04-09T18:42:52Z</time>
      </trkpt>
      <trkpt lat="62.633808267318" lon="17.965213685351">
        <ele>58</ele>
        <time>2018-04-09T18:42:53Z</time>
      </trkpt>
      <trkpt lat="62.633806088024" lon="17.965166243797">
        <ele>58</ele>
        <time>2018-04-09T18:42:54Z</time>
      </trkpt>
      <trkpt lat="62.633806590938" lon="17.965117964053">
        <ele>57.8</ele>
        <time>2018-04-09T18:42:55Z</time>
      </trkpt>
      <trkpt lat="62.633808434956" lon="17.96506540954">
        <ele>57.6</ele>
        <time>2018-04-09T18:42:56Z</time>
      </trkpt>
      <trkpt lat="62.633809105508" lon="17.965022158936">
        <ele>57.4</ele>
        <time>2018-04-09T18:42:57Z</time>
      </trkpt>
      <trkpt lat="62.633811620078" lon="17.964973795373">
        <ele>57.2</ele>
        <time>2018-04-09T18:42:58Z</time>
      </trkpt>
      <trkpt lat="62.633820001978" lon="17.964929036027">
        <ele>56.6</ele>
        <time>2018-04-09T18:42:59Z</time>
      </trkpt>
      <trkpt lat="62.633831066086" lon="17.964894586418">
        <ele>56.4</ele>
        <time>2018-04-09T18:43:00Z</time>
      </trkpt>
      <trkpt lat="62.633851182646" lon="17.96486005299">
        <ele>56.2</ele>
        <time>2018-04-09T18:43:01Z</time>
      </trkpt>
      <trkpt lat="62.633871718301" lon="17.964849324158">
        <ele>56</ele>
        <time>2018-04-09T18:43:02Z</time>
      </trkpt>
      <trkpt lat="62.633891751042" lon="17.964823843182">
        <ele>55.8</ele>
        <time>2018-04-09T18:43:03Z</time>
      </trkpt>
      <trkpt lat="62.633911616145" lon="17.964785621718">
        <ele>55.8</ele>
        <time>2018-04-09T18:43:04Z</time>
      </trkpt>
      <trkpt lat="62.633926871203" lon="17.964743879856">
        <ele>55.6</ele>
        <time>2018-04-09T18:43:05Z</time>
      </trkpt>
      <trkpt lat="62.633951011075" lon="17.964706077487">
        <ele>55.4</ele>
        <time>2018-04-09T18:43:06Z</time>
      </trkpt>
      <trkpt lat="62.633974564214" lon="17.964691660619">
        <ele>55.4</ele>
        <time>2018-04-09T18:43:07Z</time>
      </trkpt>
      <trkpt lat="62.633995686602" lon="17.964685793289">
        <ele>55.2</ele>
        <time>2018-04-09T18:43:08Z</time>
      </trkpt>
      <trkpt lat="62.634018653008" lon="17.964687134393">
        <ele>55</ele>
        <time>2018-04-09T18:43:09Z</time>
      </trkpt>
      <trkpt lat="62.63404027831" lon="17.964686380022">
        <ele>55.2</ele>
        <time>2018-04-09T18:43:10Z</time>
      </trkpt>
      <trkpt lat="62.6340662622" lon="17.964685458013">
        <ele>55.2</ele>
        <time>2018-04-09T18:43:11Z</time>
      </trkpt>
      <trkpt lat="62.634092665185" lon="17.964690403334">
        <ele>55.2</ele>
        <time>2018-04-09T18:43:12Z</time>
      </trkpt>
      <trkpt lat="62.634115212496" lon="17.964690319515">
        <ele>55</ele>
        <time>2018-04-09T18:43:13Z</time>
      </trkpt>
      <trkpt lat="62.634143794775" lon="17.964690906248">
        <ele>55</ele>
        <time>2018-04-09T18:43:14Z</time>
      </trkpt>
      <trkpt lat="62.634165839172" lon="17.964687637307">
        <ele>55</ele>
        <time>2018-04-09T18:43:15Z</time>
      </trkpt>
      <trkpt lat="62.634194086175" lon="17.964684955099">
        <ele>55</ele>
        <time>2018-04-09T18:43:16Z</time>
      </trkpt>
      <trkpt lat="62.634221159712" lon="17.964683278719">
        <ele>54.8</ele>
        <time>2018-04-09T18:43:17Z</time>
      </trkpt>
      <trkpt lat="62.634247059783" lon="17.964685625651">
        <ele>54.6</ele>
        <time>2018-04-09T18:43:18Z</time>
      </trkpt>
      <trkpt lat="62.634272289302" lon="17.964684619823">
        <ele>54.6</ele>
        <time>2018-04-09T18:43:19Z</time>
      </trkpt>
      <trkpt lat="62.634296177717" lon="17.964685877108">
        <ele>54.6</ele>
        <time>2018-04-09T18:43:20Z</time>
      </trkpt>
      <trkpt lat="62.634321742512" lon="17.964689229868">
        <ele>54.4</ele>
        <time>2018-04-09T18:43:21Z</time>
      </trkpt>
      <trkpt lat="62.634351582076" lon="17.9646915768">
        <ele>54.6</ele>
        <time>2018-04-09T18:43:22Z</time>
      </trkpt>
      <trkpt lat="62.634379912898" lon="17.96469828232">
        <ele>54.6</ele>
        <time>2018-04-09T18:43:23Z</time>
      </trkpt>
      <trkpt lat="62.634406734978" lon="17.964696689759">
        <ele>54.4</ele>
        <time>2018-04-09T18:43:24Z</time>
      </trkpt>
      <trkpt lat="62.634432215954" lon="17.964693085542">
        <ele>54.4</ele>
        <time>2018-04-09T18:43:25Z</time>
      </trkpt>
      <trkpt lat="62.634462055518" lon="17.964695935388">
        <ele>54.4</ele>
        <time>2018-04-09T18:43:26Z</time>
      </trkpt>
      <trkpt lat="62.63448368082" lon="17.964696773578">
        <ele>54.2</ele>
        <time>2018-04-09T18:43:27Z</time>
      </trkpt>
      <trkpt lat="62.634510586719" lon="17.964697527949">
        <ele>54.2</ele>
        <time>2018-04-09T18:43:28Z</time>
      </trkpt>
      <trkpt lat="62.63453816317" lon="17.964697360311">
        <ele>54</ele>
        <time>2018-04-09T18:43:29Z</time>
      </trkpt>
      <trkpt lat="62.634560710481" lon="17.964691995895">
        <ele>54</ele>
        <time>2018-04-09T18:43:30Z</time>
      </trkpt>
      <trkpt lat="62.634590717683" lon="17.964690822429">
        <ele>53.8</ele>
        <time>2018-04-09T18:43:31Z</time>
      </trkpt>
      <trkpt lat="62.634614522279" lon="17.964685877108">
        <ele>53.8</ele>
        <time>2018-04-09T18:43:32Z</time>
      </trkpt>
      <trkpt lat="62.634637237228" lon="17.964683781633">
        <ele>54</ele>
        <time>2018-04-09T18:43:33Z</time>
      </trkpt>
      <trkpt lat="62.634658191978" lon="17.964682105253">
        <ele>53.8</ele>
        <time>2018-04-09T18:43:34Z</time>
      </trkpt>
      <trkpt lat="62.634687025714" lon="17.964677914303">
        <ele>53.8</ele>
        <time>2018-04-09T18:43:35Z</time>
      </trkpt>
      <trkpt lat="62.634717116735" lon="17.964678333398">
        <ele>53.8</ele>
        <time>2018-04-09T18:43:36Z</time>
      </trkpt>
      <trkpt lat="62.634742178616" lon="17.964675818828">
        <ele>53.8</ele>
        <time>2018-04-09T18:43:37Z</time>
      </trkpt>
      <trkpt lat="62.634768246325" lon="17.964673304258">
        <ele>53.6</ele>
        <time>2018-04-09T18:43:38Z</time>
      </trkpt>
      <trkpt lat="62.634791631826" lon="17.964670538231">
        <ele>53.6</ele>
        <time>2018-04-09T18:43:39Z</time>
      </trkpt>
      <trkpt lat="62.634815687879" lon="17.96466894567">
        <ele>53.4</ele>
        <time>2018-04-09T18:43:40Z</time>
      </trkpt>
      <trkpt lat="62.63484494071" lon="17.964664419444">
        <ele>53.4</ele>
        <time>2018-04-09T18:43:41Z</time>
      </trkpt>
      <trkpt lat="62.634872768618" lon="17.964660228494">
        <ele>53.4</ele>
        <time>2018-04-09T18:43:42Z</time>
      </trkpt>
      <trkpt lat="62.634893891006" lon="17.964655115535">
        <ele>53.2</ele>
        <time>2018-04-09T18:43:43Z</time>
      </trkpt>
      <trkpt lat="62.634925155493" lon="17.964650170214">
        <ele>53.2</ele>
        <time>2018-04-09T18:43:44Z</time>
      </trkpt>
      <trkpt lat="62.63494971446" lon="17.96464379997">
        <ele>53.4</ele>
        <time>2018-04-09T18:43:45Z</time>
      </trkpt>
      <trkpt lat="62.634979302567" lon="17.964634915156">
        <ele>53.4</ele>
        <time>2018-04-09T18:43:46Z</time>
      </trkpt>
      <trkpt lat="62.635006376104" lon="17.964628796369">
        <ele>53.2</ele>
        <time>2018-04-09T18:43:47Z</time>
      </trkpt>
      <trkpt lat="62.635029258691" lon="17.964619408641">
        <ele>53.4</ele>
        <time>2018-04-09T18:43:48Z</time>
      </trkpt>
      <trkpt lat="62.635055494038" lon="17.964612703121">
        <ele>53.2</ele>
        <time>2018-04-09T18:43:49Z</time>
      </trkpt>
      <trkpt lat="62.635079047177" lon="17.964607506343">
        <ele>53.2</ele>
        <time>2018-04-09T18:43:50Z</time>
      </trkpt>
      <trkpt lat="62.635104192877" lon="17.964601387556">
        <ele>53</ele>
        <time>2018-04-09T18:43:51Z</time>
      </trkpt>
      <trkpt lat="62.635134283898" lon="17.964595017312">
        <ele>53</ele>
        <time>2018-04-09T18:43:52Z</time>
      </trkpt>
      <trkpt lat="62.635160770702" lon="17.964585713403">
        <ele>53</ele>
        <time>2018-04-09T18:43:53Z</time>
      </trkpt>
      <trkpt lat="62.635183820927" lon="17.964574146381">
        <ele>53</ele>
        <time>2018-04-09T18:43:54Z</time>
      </trkpt>
      <trkpt lat="62.635206871152" lon="17.96456417192">
        <ele>52.8</ele>
        <time>2018-04-09T18:43:55Z</time>
      </trkpt>
      <trkpt lat="62.635236123983" lon="17.964550677061">
        <ele>52.8</ele>
        <time>2018-04-09T18:43:56Z</time>
      </trkpt>
      <trkpt lat="62.635260012398" lon="17.964537098383">
        <ele>52.8</ele>
        <time>2018-04-09T18:43:57Z</time>
      </trkpt>
      <trkpt lat="62.635285744831" lon="17.964525447542">
        <ele>52.8</ele>
        <time>2018-04-09T18:43:58Z</time>
      </trkpt>
      <trkpt lat="62.635314746205" lon="17.96451388052">
        <ele>52.8</ele>
        <time>2018-04-09T18:43:59Z</time>
      </trkpt>
      <trkpt lat="62.635336036231" lon="17.964505666258">
        <ele>53</ele>
        <time>2018-04-09T18:44:00Z</time>
      </trkpt>
      <trkpt lat="62.635366797804" lon="17.964494434512">
        <ele>52.8</ele>
        <time>2018-04-09T18:44:01Z</time>
      </trkpt>
      <trkpt lat="62.635391943504" lon="17.964479179454">
        <ele>52.6</ele>
        <time>2018-04-09T18:44:02Z</time>
      </trkpt>
      <trkpt lat="62.635414742272" lon="17.964464511129">
        <ele>52.8</ele>
        <time>2018-04-09T18:44:03Z</time>
      </trkpt>
      <trkpt lat="62.635445420026" lon="17.96445185446">
        <ele>52.6</ele>
        <time>2018-04-09T18:44:04Z</time>
      </trkpt>
      <trkpt lat="62.635464949853" lon="17.964441209447">
        <ele>52.4</ele>
        <time>2018-04-09T18:44:05Z</time>
      </trkpt>
      <trkpt lat="62.635494789417" lon="17.964424864742">
        <ele>52.4</ele>
        <time>2018-04-09T18:44:06Z</time>
      </trkpt>
      <trkpt lat="62.635520605669" lon="17.964412291892">
        <ele>52.4</ele>
        <time>2018-04-09T18:44:07Z</time>
      </trkpt>
      <trkpt lat="62.635544996998" lon="17.964400557232">
        <ele>52.4</ele>
        <time>2018-04-09T18:44:08Z</time>
      </trkpt>
      <trkpt lat="62.635568047223" lon="17.964389241667">
        <ele>52.2</ele>
        <time>2018-04-09T18:44:09Z</time>
      </trkpt>
      <trkpt lat="62.635591768" lon="17.964376249722">
        <ele>52.4</ele>
        <time>2018-04-09T18:44:10Z</time>
      </trkpt>
      <trkpt lat="62.635619679727" lon="17.964358312456">
        <ele>52.2</ele>
        <time>2018-04-09T18:44:11Z</time>
      </trkpt>
      <trkpt lat="62.635646669445" lon="17.964343811769">
        <ele>52.2</ele>
        <time>2018-04-09T18:44:12Z</time>
      </trkpt>
      <trkpt lat="62.635666450729" lon="17.96432612596">
        <ele>52</ele>
        <time>2018-04-09T18:44:13Z</time>
      </trkpt>
      <trkpt lat="62.635695116827" lon="17.964308607789">
        <ele>52.2</ele>
        <time>2018-04-09T18:44:14Z</time>
      </trkpt>
      <trkpt lat="62.635717245043" lon="17.964296454034">
        <ele>52</ele>
        <time>2018-04-09T18:44:15Z</time>
      </trkpt>
      <trkpt lat="62.635742306924" lon="17.96427499637">
        <ele>52</ele>
        <time>2018-04-09T18:44:16Z</time>
      </trkpt>
      <trkpt lat="62.635770637746" lon="17.964255885638">
        <ele>52</ele>
        <time>2018-04-09T18:44:17Z</time>
      </trkpt>
      <trkpt lat="62.635794945256" lon="17.964237613096">
        <ele>51.8</ele>
        <time>2018-04-09T18:44:18Z</time>
      </trkpt>
      <trkpt lat="62.635820342413" lon="17.964216825984">
        <ele>51.8</ele>
        <time>2018-04-09T18:44:19Z</time>
      </trkpt>
      <trkpt lat="62.635840878068" lon="17.964201319469">
        <ele>52</ele>
        <time>2018-04-09T18:44:20Z</time>
      </trkpt>
      <trkpt lat="62.635865688492" lon="17.964179610348">
        <ele>51.8</ele>
        <time>2018-04-09T18:44:21Z</time>
      </trkpt>
      <trkpt lat="62.635891085649" lon="17.964163265643">
        <ele>51.6</ele>
        <time>2018-04-09T18:44:22Z</time>
      </trkpt>
      <trkpt lat="62.635917488634" lon="17.964144406368">
        <ele>51.6</ele>
        <time>2018-04-09T18:44:23Z</time>
      </trkpt>
      <trkpt lat="62.635939113936" lon="17.964124457446">
        <ele>51.4</ele>
        <time>2018-04-09T18:44:24Z</time>
      </trkpt>
      <trkpt lat="62.635960487781" lon="17.96410652018">
        <ele>51.2</ele>
        <time>2018-04-09T18:44:25Z</time>
      </trkpt>
      <trkpt lat="62.635981442531" lon="17.964087074172">
        <ele>51.2</ele>
        <time>2018-04-09T18:44:26Z</time>
      </trkpt>
      <trkpt lat="62.636003906023" lon="17.964068214897">
        <ele>51.2</ele>
        <time>2018-04-09T18:44:27Z</time>
      </trkpt>
      <trkpt lat="62.636026201877" lon="17.964049020346">
        <ele>51.4</ele>
        <time>2018-04-09T18:44:28Z</time>
      </trkpt>
      <trkpt lat="62.636049335921" lon="17.96402521575">
        <ele>51.2</ele>
        <time>2018-04-09T18:44:29Z</time>
      </trkpt>
      <trkpt lat="62.636068027558" lon="17.964003506629">
        <ele>51.2</ele>
        <time>2018-04-09T18:44:30Z</time>
      </trkpt>
      <trkpt lat="62.636092921801" lon="17.963976349273">
        <ele>51.2</ele>
        <time>2018-04-09T18:44:31Z</time>
      </trkpt>
      <trkpt lat="62.636114547103" lon="17.963950113926">
        <ele>51.2</ele>
        <time>2018-04-09T18:44:32Z</time>
      </trkpt>
      <trkpt lat="62.636135585672" lon="17.963926728425">
        <ele>51.2</ele>
        <time>2018-04-09T18:44:33Z</time>
      </trkpt>
      <trkpt lat="62.636158635897" lon="17.963901247449">
        <ele>51</ele>
        <time>2018-04-09T18:44:34Z</time>
      </trkpt>
      <trkpt lat="62.636179087733" lon="17.963879454509">
        <ele>51</ele>
        <time>2018-04-09T18:44:35Z</time>
      </trkpt>
      <trkpt lat="62.636206412727" lon="17.963848944393">
        <ele>51</ele>
        <time>2018-04-09T18:44:36Z</time>
      </trkpt>
      <trkpt lat="62.636226110192" lon="17.963825642711">
        <ele>50.8</ele>
        <time>2018-04-09T18:44:37Z</time>
      </trkpt>
      <trkpt lat="62.636247484037" lon="17.963798569174">
        <ele>50.8</ele>
        <time>2018-04-09T18:44:38Z</time>
      </trkpt>
      <trkpt lat="62.636267265321" lon="17.963774094026">
        <ele>50.8</ele>
        <time>2018-04-09T18:44:39Z</time>
      </trkpt>
      <trkpt lat="62.636286376053" lon="17.963747104308">
        <ele>50.8</ele>
        <time>2018-04-09T18:44:40Z</time>
      </trkpt>
      <trkpt lat="62.63631009683" lon="17.963718857305">
        <ele>50.6</ele>
        <time>2018-04-09T18:44:41Z</time>
      </trkpt>
      <trkpt lat="62.63633021339" lon="17.963694214519">
        <ele>50.6</ele>
        <time>2018-04-09T18:44:42Z</time>
      </trkpt>
      <trkpt lat="62.636346809552" lon="17.963669907009">
        <ele>50.8</ele>
        <time>2018-04-09T18:44:43Z</time>
      </trkpt>
      <trkpt lat="62.636367764302" lon="17.963641911463">
        <ele>50.6</ele>
        <time>2018-04-09T18:44:44Z</time>
      </trkpt>
      <trkpt lat="62.636381929713" lon="17.963626991681">
        <ele>50.4</ele>
        <time>2018-04-09T18:44:45Z</time>
      </trkpt>
      <trkpt lat="62.636404979938" lon="17.963621627265">
        <ele>50.6</ele>
        <time>2018-04-09T18:44:46Z</time>
      </trkpt>
      <trkpt lat="62.636432724027" lon="17.96362959007">
        <ele>50.4</ele>
        <time>2018-04-09T18:44:47Z</time>
      </trkpt>
      <trkpt lat="62.636452840587" lon="17.963638893979">
        <ele>50.4</ele>
        <time>2018-04-09T18:44:48Z</time>
      </trkpt>
      <trkpt lat="62.636477399554" lon="17.963649622811">
        <ele>50.2</ele>
        <time>2018-04-09T18:44:49Z</time>
      </trkpt>
      <trkpt lat="62.636496342648" lon="17.963658423806">
        <ele>50</ele>
        <time>2018-04-09T18:44:50Z</time>
      </trkpt>
      <trkpt lat="62.636518554683" lon="17.963675271425">
        <ele>50</ele>
        <time>2018-04-09T18:44:51Z</time>
      </trkpt>
      <trkpt lat="62.636538587424" lon="17.963706116817">
        <ele>50</ele>
        <time>2018-04-09T18:44:52Z</time>
      </trkpt>
      <trkpt lat="62.636554093939" lon="17.963743667729">
        <ele>50</ele>
        <time>2018-04-09T18:44:53Z</time>
      </trkpt>
      <trkpt lat="62.636565828599" lon="17.963786163962">
        <ele>50.2</ele>
        <time>2018-04-09T18:44:54Z</time>
      </trkpt>
      <trkpt lat="62.636574545775" lon="17.963829330747">
        <ele>50.2</ele>
        <time>2018-04-09T18:44:55Z</time>
      </trkpt>
      <trkpt lat="62.636589297919" lon="17.963878029586">
        <ele>50.2</ele>
        <time>2018-04-09T18:44:56Z</time>
      </trkpt>
      <trkpt lat="62.636604050063" lon="17.963923208027">
        <ele>50.2</ele>
        <time>2018-04-09T18:44:57Z</time>
      </trkpt>
      <trkpt lat="62.63661938894" lon="17.963965201346">
        <ele>50.2</ele>
        <time>2018-04-09T18:44:58Z</time>
      </trkpt>
      <trkpt lat="62.636637912939" lon="17.964001914068">
        <ele>50</ele>
        <time>2018-04-09T18:44:59Z</time>
      </trkpt>
      <trkpt lat="62.636657861861" lon="17.964031669813">
        <ele>50</ele>
        <time>2018-04-09T18:45:00Z</time>
      </trkpt>
      <trkpt lat="62.636679319525" lon="17.964066538517">
        <ele>50.2</ele>
        <time>2018-04-09T18:45:01Z</time>
      </trkpt>
      <trkpt lat="62.636699268447" lon="17.964094617882">
        <ele>50.2</ele>
        <time>2018-04-09T18:45:02Z</time>
      </trkpt>
      <trkpt lat="62.636719301188" lon="17.964122948704">
        <ele>50</ele>
        <time>2018-04-09T18:45:03Z</time>
      </trkpt>
      <trkpt lat="62.636739585386" lon="17.964151111888">
        <ele>50.2</ele>
        <time>2018-04-09T18:45:04Z</time>
      </trkpt>
      <trkpt lat="62.63675852848" lon="17.964175084122">
        <ele>50.2</ele>
        <time>2018-04-09T18:45:05Z</time>
      </trkpt>
      <trkpt lat="62.636781411067" lon="17.96421297031">
        <ele>50.2</ele>
        <time>2018-04-09T18:45:06Z</time>
      </trkpt>
      <trkpt lat="62.636796749944" lon="17.964248425747">
        <ele>50</ele>
        <time>2018-04-09T18:45:07Z</time>
      </trkpt>
      <trkpt lat="62.636812591735" lon="17.964287988315">
        <ele>50</ele>
        <time>2018-04-09T18:45:08Z</time>
      </trkpt>
      <trkpt lat="62.636829942268" lon="17.964311792911">
        <ele>50</ele>
        <time>2018-04-09T18:45:09Z</time>
      </trkpt>
      <trkpt lat="62.636851232294" lon="17.964329646358">
        <ele>50</ele>
        <time>2018-04-09T18:45:10Z</time>
      </trkpt>
      <trkpt lat="62.636879646935" lon="17.964353702411">
        <ele>50</ele>
        <time>2018-04-09T18:45:11Z</time>
      </trkpt>
      <trkpt lat="62.636903116255" lon="17.964379183387">
        <ele>50</ele>
        <time>2018-04-09T18:45:12Z</time>
      </trkpt>
      <trkpt lat="62.636921472616" lon="17.964394354626">
        <ele>50.2</ele>
        <time>2018-04-09T18:45:13Z</time>
      </trkpt>
      <trkpt lat="62.636948127058" lon="17.964420254697">
        <ele>50.2</ele>
        <time>2018-04-09T18:45:14Z</time>
      </trkpt>
      <trkpt lat="62.63696472322" lon="17.964433833375">
        <ele>50</ele>
        <time>2018-04-09T18:45:15Z</time>
      </trkpt>
      <trkpt lat="62.636988946911" lon="17.964450261899">
        <ele>50</ele>
        <time>2018-04-09T18:45:16Z</time>
      </trkpt>
      <trkpt lat="62.637002944684" lon="17.964455626315">
        <ele>50</ele>
        <time>2018-04-09T18:45:17Z</time>
      </trkpt>
    </trkseg>
  </trk>
</gpx>